[[[{"header":{"parameterUnit":"kt","parameterCategory":2,"dx":1,"dy":1,"la1":29.285339999999998,"la2":30.599998999999997,"lo1":-89.70041500000002,"lo2":-87.6738589999976,"nx":112,"ny":82,"refTime":"2022-10-01T18:00:00:Z","depth":0,"parameterNumber":1,"parameterNumberName":"U-component_of_WINDS"},"data":[1.2126,1.1223,1.0134,0.949,0.9088,0.8609,0.7674,0.7326,0.7191,0.7144,0.68,0.6531,0.661,0.6488,0.0,0.0,0.0,0.0,0.0,0.557,0.5807,0.6055,0.7058,0.0,0.0,0.9093,1.0066,1.1221,1.1727,1.2453,1.3659,1.4187,1.4011,1.3036,1.3288,1.2795,1.1481,1.0646,0.9994,0.9516,0.8767,0.8167,0.7786,0.7938,0.803,0.8078,0.8258,0.8311,0.8313,0.8356,0.8374,0.8439,0.9351,1.0097,1.0591,1.0019,0.922,0.8491,0.9309,1.0167,1.0773,1.0431,1.2625,1.542,1.5754,1.5621,1.5361,1.5361,1.5361,1.5361,1.5361,1.5361,1.5446,1.5775,1.5855,1.5855,1.5855,1.5855,1.5855,1.5855,1.6343,1.6692,1.6692,1.6692,1.6485,1.595,1.5855,1.5855,1.5855,1.5855,1.5855,1.5855,1.5855,1.534,1.4121,1.4015,1.4015,1.4015,1.4015,1.4015,1.4015,1.4015,1.4015,1.4015,1.4015,1.4015,1.4015,1.4015,1.4015,1.4015,1.4015,1.4015,1.029,0.9368,0.8434,0.7958,0.8206,0.8312,0.745,0.7049,0.6874,0.6874,0.6594,0.6353,0.6353,0.0,0.0,0.0,0.0,0.0,0.0,0.565,0.5999,0.6441,0.7667,0.8597,0.8914,0.9813,1.0747,1.1645,1.1789,1.2337,1.3485,1.3444,1.2934,1.1901,1.2018,1.1485,1.0176,0.9326,0.8927,0.893,0.8211,0.7862,0.7907,0.8062,0.8218,0.826,0.834,0.8374,0.8374,0.8374,0.8374,0.8439,0.9416,0.9742,0.9677,0.8698,0.8374,0.8374,0.8374,0.8374,0.8324,0.7951,1.0185,1.3267,1.4859,1.5361,1.5361,1.5361,1.5361,1.5361,1.5361,1.5361,1.5361,1.5361,1.5361,1.5361,1.5361,1.5361,1.5361,1.5361,1.586,1.6284,1.6284,1.6284,1.6072,1.5451,1.5361,1.5361,1.5361,1.5361,1.5361,1.5361,1.5361,1.4979,1.4095,1.4015,1.4015,1.4015,1.4015,1.4015,1.4015,1.4015,1.4015,1.4015,1.4015,1.4015,1.4015,1.4015,1.4015,1.4015,1.4015,1.4015,0.8713,0.7874,0.7558,0.8158,0.7854,0.7318,0.7023,0.6758,0.6594,0.6599,0.6594,0.6594,0.6599,0.0,0.0,0.0,0.0,0.0,0.0,0.6029,0.647,0.6941,0.798,0.9053,0.9956,1.0066,1.0653,1.2085,1.1177,1.1163,1.245,1.1606,1.0606,0.9569,0.9513,0.8922,0.762,0.7723,0.7778,0.7783,0.7896,0.8012,0.8127,0.813,0.8258,0.8369,0.8371,0.8374,0.8374,0.8374,0.8374,0.8374,0.8374,0.8374,0.8374,0.8374,0.8374,0.8374,0.8374,0.8374,0.8374,0.8374,0.8363,0.9229,1.3938,1.5361,1.5361,1.5361,1.5361,1.5361,1.5361,1.5361,1.5361,1.5361,1.5361,1.5361,1.5361,1.5361,1.5361,1.5361,1.5361,1.5361,1.5361,1.5361,1.5361,1.5361,1.5361,1.5361,1.5361,1.5361,1.5361,1.5361,1.5329,1.4948,1.4089,1.4015,1.4015,1.4015,1.4015,1.4015,1.4015,1.4015,1.4015,1.4015,1.4015,1.4015,1.4015,1.4015,1.4015,1.4015,1.4015,1.4015,0.81,0.7816,0.7695,0.7218,0.7252,0.7232,0.6578,0.6228,0.6089,0.6295,0.6176,0.0,0.0,0.0,0.629,0.0,0.0,0.6842,0.6156,0.7373,0.7924,0.6834,0.6985,0.7644,0.8751,0.9162,0.9749,1.0648,0.9376,0.9013,1.0063,1.0738,1.0606,0.9569,0.9513,0.8922,0.762,0.7589,0.7704,0.7781,0.7815,0.7891,0.8009,0.8093,0.8215,0.825,0.8337,0.8374,0.8374,0.8374,0.8374,0.8374,0.8374,0.8374,0.8374,0.8374,0.8374,0.8374,0.8374,0.8374,0.8374,0.8374,0.808,0.8759,1.3823,1.5361,1.5361,1.5361,1.5361,1.5361,1.5361,1.5361,1.5361,1.5361,1.5361,1.5361,1.5361,1.5361,1.5361,1.5361,1.5361,1.5361,1.5361,1.5361,1.5361,1.5361,1.5361,1.5361,1.5361,1.5361,1.5361,1.5361,1.4751,1.4242,1.4036,1.4015,1.4015,1.4015,1.4015,1.4015,1.4015,1.4015,1.4015,1.4015,1.4015,1.4015,1.4015,1.4015,1.4015,1.4015,1.4015,1.4015,0.764,0.729,0.7111,0.6574,0.6763,0.6927,0.6494,0.6255,0.6202,0.6353,0.0,0.0,0.0,0.0,0.0,0.0,0.7187,0.7596,0.7032,0.8348,0.8398,0.5768,0.6032,0.6605,0.7006,0.7218,0.7586,0.8173,0.7366,0.7188,0.7926,0.9009,0.9322,0.8743,0.8686,0.833,0.756,0.7665,0.772,0.7781,0.7831,0.7891,0.7959,0.8028,0.8085,0.8135,0.8268,0.8326,0.8374,0.8374,0.8374,0.8374,0.8374,0.8374,0.8374,0.8374,0.8374,0.8374,0.8374,0.8374,0.8374,0.8374,0.8127,0.8427,1.1219,1.3633,1.5361,1.5361,1.5361,1.5361,1.5361,1.5361,1.5361,1.5361,1.5361,1.5361,1.5361,1.5361,1.5361,1.5361,1.5361,1.5361,1.5361,1.5361,1.5361,1.5361,1.5361,1.5361,1.5361,1.5361,1.5361,1.5361,1.4518,1.4015,1.4015,1.4015,1.4015,1.4015,1.4015,1.4015,1.4015,1.4015,1.4015,1.4015,1.4015,1.4015,1.4015,1.4015,1.4015,1.4015,1.4015,1.4015,0.7219,0.6557,0.6171,0.6171,0.6353,0.6552,0.6631,0.0,0.6716,0.6827,0.0,0.6805,0.6612,0.0,0.0,0.6332,0.719,0.7803,0.7497,0.8519,0.7959,0.4223,0.5007,0.5632,0.5098,0.4852,0.4854,0.5248,0.5119,0.529,0.5972,0.6842,0.7378,0.756,0.756,0.756,0.756,0.7715,0.777,0.7783,0.7875,0.7925,0.7936,0.7936,0.8001,0.8114,0.8127,0.8263,0.8374,0.8374,0.8374,0.8371,0.8358,0.8361,0.8374,0.8374,0.8374,0.8374,0.8374,0.8374,0.8374,0.8374,0.8374,0.8287,0.776,1.1195,1.5361,1.5361,1.5361,1.5361,1.5361,1.5361,1.5361,1.5361,1.5361,1.5361,1.5361,1.5361,1.5361,1.5361,1.5361,1.5361,1.5361,1.5361,1.5361,1.5361,1.5361,1.5361,1.5361,1.5361,1.5319,1.5213,1.446,1.4015,1.4015,1.4015,1.4015,1.4015,1.4015,1.4015,1.4015,1.4015,1.4015,1.4015,1.4015,1.4015,1.4015,1.4015,1.4015,1.4015,1.4015,1.4015,0.6632,0.6145,0.5899,0.5899,0.5953,0.6155,0.0,0.0,0.0,0.8195,0.8322,0.7922,0.6534,0.6323,0.587,0.4349,0.4722,0.5022,0.444,0.5828,0.5995,0.357,0.351,0.375,0.3816,0.3804,0.3571,0.3164,0.1855,0.1815,0.3515,0.4726,0.6056,0.756,0.756,0.756,0.756,0.7579,0.7694,0.7781,0.7715,0.7731,0.7815,0.7815,0.788,0.7996,0.8091,0.8263,0.8374,0.8374,0.8374,0.8363,0.8268,0.8289,0.8374,0.8374,0.8374,0.8374,0.8374,0.8374,0.8374,0.8374,0.8374,0.8287,0.776,1.1195,1.5361,1.5361,1.5361,1.5361,1.5361,1.5361,1.5361,1.5361,1.5361,1.5361,1.5361,1.5361,1.5361,1.5361,1.5361,1.5361,1.5361,1.5361,1.5361,1.5361,1.5361,1.5361,1.5361,1.5361,1.507,1.4311,1.4121,1.4015,1.4015,1.4015,1.4015,1.4015,1.4015,1.4015,1.4015,1.4015,1.4015,1.4015,1.4015,1.4015,1.4015,1.4015,1.4015,1.4015,1.4015,1.4015,0.6166,0.5833,0.5753,0.5805,0.5938,0.0,0.0,0.6996,0.7417,0.8211,0.8471,0.8088,0.6526,0.6328,0.5809,0.3983,0.424,0.3987,0.2014,0.2512,0.2735,0.1698,0.1285,0.1141,0.1225,0.0949,0.0509,-0.0175,-0.0354,0.0773,0.3713,0.4495,0.5696,0.75,0.756,0.756,0.756,0.756,0.7586,0.7699,0.7584,0.7586,0.7702,0.7702,0.7762,0.7873,0.793,0.8022,0.8133,0.8133,0.8231,0.8279,0.822,0.8234,0.8284,0.8284,0.8284,0.8276,0.8218,0.8273,0.8374,0.8374,0.8151,0.792,0.7689,0.9407,1.2029,1.4643,1.5361,1.5361,1.5361,1.5361,1.5361,1.5361,1.5361,1.5361,1.5361,1.5361,1.5361,1.5361,1.5361,1.5361,1.5361,1.5361,1.5361,1.5361,1.5361,1.5361,1.5361,1.4483,1.3722,1.3257,1.368,1.4015,1.4015,1.4015,1.4015,1.4015,1.4015,1.4015,1.4015,1.4015,1.4015,1.4015,1.4015,1.4015,1.4015,1.4015,1.4015,1.4015,1.4015,1.4015,0.5751,0.5602,0.5676,0.5797,0.6053,0.0,0.6911,0.723,0.7649,0.8469,0.8835,0.84,0.6475,0.6326,0.5713,0.3501,0.356,0.2939,0.0206,-0.0265,-0.0324,-0.0328,-0.0834,-0.1187,-0.1149,-0.1611,-0.2201,-0.2883,-0.1964,0.03,0.4075,0.4674,0.5696,0.75,0.756,0.756,0.756,0.756,0.756,0.756,0.756,0.756,0.756,0.756,0.7678,0.7781,0.7781,0.7846,0.7957,0.7957,0.7999,0.8064,0.8064,0.8078,0.8101,0.8125,0.8133,0.8122,0.8051,0.8215,0.8374,0.8374,0.8057,0.7736,0.7586,0.756,0.8692,1.3871,1.5361,1.5361,1.5361,1.5361,1.5361,1.5361,1.5361,1.5361,1.5361,1.5361,1.5361,1.5361,1.5361,1.5361,1.5361,1.5361,1.5361,1.5361,1.5361,1.5361,1.5361,1.3669,1.2463,1.2463,1.3183,1.3765,1.3999,1.4015,1.4015,1.4015,1.4015,1.4015,1.4015,1.4015,1.4015,1.4015,1.4015,1.4015,1.4015,1.4015,1.4015,1.4015,1.4015,1.4015,0.0,0.0,0.0,0.5797,0.6202,0.0,0.82,0.8711,0.9318,1.0774,1.1112,1.0031,0.6515,0.592,0.473,0.1053,0.0491,0.0253,-0.058,-0.1199,-0.1557,-0.156,-0.1696,-0.1839,-0.181,-0.193,-0.2237,-0.287,-0.2758,-0.1259,0.2097,0.3896,0.5696,0.75,0.756,0.756,0.756,0.756,0.756,0.756,0.756,0.756,0.756,0.756,0.7678,0.7781,0.7781,0.7846,0.7957,0.7957,0.7904,0.782,0.782,0.7883,0.7988,0.8093,0.8133,0.8146,0.8303,0.835,0.8374,0.8374,0.8337,0.8156,0.7744,0.756,0.8692,1.3871,1.5361,1.5361,1.5361,1.5361,1.5361,1.5361,1.5361,1.5361,1.5361,1.5361,1.5361,1.5361,1.5361,1.5361,1.5361,1.5361,1.5361,1.5361,1.5361,1.5361,1.5361,1.3669,1.2463,1.2463,1.2553,1.3003,1.3892,1.4015,1.4015,1.4015,1.4015,1.4015,1.4015,1.4015,1.4015,1.4015,1.4015,1.4015,1.4015,1.4015,1.4015,1.4015,1.4015,1.4015,0.0,0.533,0.5703,0.5977,0.0,0.0,0.7464,0.7934,0.8217,0.7815,0.8172,0.7493,0.4175,0.3921,0.3309,0.0455,-0.0259,-0.0637,-0.1239,-0.1597,-0.1738,-0.1755,-0.2185,-0.2512,-0.2492,-0.2853,-0.3219,-0.348,-0.2399,-0.1199,0.018,0.3176,0.5696,0.75,0.756,0.756,0.756,0.756,0.756,0.756,0.756,0.756,0.756,0.756,0.7584,0.7686,0.7686,0.7715,0.776,0.776,0.777,0.7781,0.7781,0.7812,0.7862,0.7909,0.7928,0.7938,0.8077,0.813,0.8125,0.8329,0.8125,0.787,0.7618,0.9705,1.2561,1.4762,1.5361,1.5361,1.5361,1.5361,1.5361,1.5361,1.5361,1.5361,1.5361,1.5361,1.5361,1.5361,1.5361,1.5361,1.5361,1.5361,1.5361,1.5361,1.5361,1.5361,1.5361,1.3669,1.2463,1.2463,1.2463,1.2621,1.3062,1.3643,1.4015,1.4015,1.4015,1.4015,1.4015,1.4015,1.4015,1.4015,1.4015,1.4015,1.4015,1.4015,1.4015,1.4015,1.4015,1.4015,0.4963,0.0,0.0,0.0,0.0,0.0,0.7173,0.7444,0.7445,0.6382,0.6975,0.6857,0.4158,0.3915,0.334,0.105,-0.0429,-0.1417,-0.1907,-0.2165,-0.226,-0.2288,-0.2799,-0.3202,-0.3178,-0.3601,-0.3902,-0.3902,-0.2098,-0.0719,-0.018,0.3056,0.5696,0.75,0.756,0.756,0.756,0.756,0.756,0.756,0.756,0.756,0.756,0.756,0.756,0.756,0.756,0.756,0.756,0.756,0.7665,0.7736,0.7736,0.7736,0.7739,0.777,0.7781,0.7791,0.7919,0.799,0.8077,0.8228,0.8028,0.8031,0.9335,1.2383,1.5361,1.5361,1.5361,1.5361,1.5361,1.5361,1.5361,1.5361,1.5361,1.5361,1.5361,1.5361,1.5361,1.5361,1.5361,1.5361,1.5361,1.5361,1.5361,1.5361,1.5361,1.517,1.4594,1.3295,1.2463,1.2463,1.2463,1.2463,1.2463,1.313,1.3574,1.3574,1.3818,1.4015,1.4015,1.4015,1.4015,1.4015,1.4015,1.4015,1.4015,1.4015,1.4015,1.4015,1.4015,1.4015,0.0,0.0,0.0,0.7093,0.6978,0.6953,0.8202,0.8038,0.7851,0.8825,0.9962,1.0207,0.8311,0.7189,0.5591,0.2871,-0.0327,-0.2507,-0.2508,-0.3141,-0.3664,-0.3608,-0.3768,-0.384,-0.3842,-0.3902,-0.3902,-0.3902,-0.2098,-0.012,0.1737,0.3775,0.5696,0.75,0.756,0.756,0.756,0.756,0.756,0.756,0.756,0.756,0.756,0.756,0.756,0.756,0.756,0.756,0.756,0.756,0.756,0.7566,0.7566,0.7566,0.7576,0.7741,0.7781,0.7796,0.7915,0.807,0.8128,0.7991,0.8112,0.9168,1.3756,1.5242,1.5361,1.5361,1.5361,1.5361,1.5361,1.5361,1.5361,1.5361,1.5361,1.5361,1.5361,1.5361,1.5361,1.5361,1.5361,1.5361,1.5361,1.5361,1.5361,1.5361,1.5361,1.4641,1.2774,1.2495,1.2463,1.2463,1.2463,1.2463,1.2463,1.2485,1.2506,1.2506,1.3457,1.4015,1.4015,1.4015,1.4015,1.4015,1.4015,1.4015,1.4015,1.4015,1.4015,1.4015,1.4015,1.4015,0.5895,0.5872,0.5874,0.7085,0.7267,0.7097,0.6922,0.7255,0.7215,0.5915,0.6314,0.6638,0.5869,0.5364,0.4646,0.3371,-0.0054,-0.2671,-0.3107,-0.3479,-0.3666,-0.3666,-0.3828,-0.3902,-0.3902,-0.3902,-0.336,-0.2038,-0.1318,0.0419,0.3715,0.4495,0.5696,0.75,0.756,0.756,0.756,0.756,0.756,0.756,0.756,0.756,0.756,0.756,0.756,0.756,0.756,0.756,0.756,0.756,0.756,0.756,0.756,0.756,0.7563,0.76,0.7673,0.7689,0.7802,0.794,0.8055,0.8014,0.8117,0.8668,1.0221,1.2903,1.5361,1.5361,1.5361,1.5361,1.5361,1.5361,1.5361,1.5361,1.5361,1.5361,1.5361,1.5361,1.5361,1.5361,1.5361,1.5361,1.5361,1.5361,1.5361,1.5361,1.424,1.3169,1.2542,1.2463,1.2463,1.2463,1.2463,1.41,1.8292,1.4826,1.4197,1.8388,1.8971,1.9172,1.9172,1.5183,1.2977,1.2977,1.3643,1.3653,1.2977,1.2977,1.2977,1.2993,1.3669,1.4015,0.6375,0.6162,0.6025,0.7278,0.7232,0.6821,0.6456,0.6753,0.6678,0.5131,0.5554,0.613,0.5982,0.5003,0.4082,0.3591,0.0436,-0.2289,-0.3325,-0.3572,-0.3642,-0.3662,-0.3751,-0.3819,-0.39,-0.324,-0.2339,-0.1078,0.03,0.2216,0.4734,0.5455,0.6357,0.756,0.756,0.756,0.756,0.756,0.756,0.756,0.756,0.756,0.756,0.756,0.756,0.756,0.756,0.756,0.756,0.756,0.756,0.756,0.756,0.756,0.756,0.756,0.756,0.7568,0.7699,0.7796,0.7953,0.7974,0.816,0.8374,0.8374,1.0359,1.2978,1.4822,1.5361,1.5361,1.5361,1.5361,1.5361,1.5361,1.5361,1.5451,1.5786,1.586,1.5759,1.5425,1.5361,1.5361,1.5361,1.5361,1.5361,1.5361,1.3706,1.2463,1.2463,1.2463,1.2463,1.2463,1.2463,1.4971,2.1235,1.8093,1.7517,2.1521,2.1759,2.1759,2.1759,1.7901,1.4729,1.2463,1.3104,1.3109,1.2463,1.2463,1.2463,1.2474,1.3125,1.3457,0.6658,0.6446,0.6524,0.7626,0.6955,0.6178,0.6804,0.6559,0.6272,0.6391,0.7519,0.8491,0.8497,0.619,0.4136,0.3645,0.1198,-0.1253,-0.2998,-0.3207,-0.326,-0.3369,-0.3425,-0.348,-0.3592,-0.1918,-0.0779,-0.0659,0.2756,0.4916,0.4976,0.6657,0.756,0.756,0.756,0.756,0.756,0.756,0.756,0.756,0.756,0.756,0.756,0.756,0.756,0.756,0.756,0.756,0.756,0.756,0.756,0.756,0.756,0.756,0.756,0.756,0.756,0.756,0.7566,0.7773,0.7946,0.8004,0.8191,0.8502,0.8374,0.819,0.9092,1.4057,1.5436,1.5436,1.5436,1.5393,1.5367,1.5388,1.5398,1.5632,1.6433,1.6655,1.6417,1.5542,1.5361,1.5361,1.5361,1.5361,1.548,1.589,1.4238,1.2798,1.2463,1.2463,1.2463,1.2463,1.2749,1.5302,2.1282,2.1759,2.1759,2.1759,2.1759,2.1759,2.1759,2.1759,1.8963,1.304,1.2943,1.2749,1.2463,1.2463,1.2463,1.2463,1.2463,1.2463,0.6715,0.6707,0.6749,0.7161,0.656,0.5952,0.6232,0.6318,0.6396,0.6511,0.6907,0.7301,0.7394,0.57,0.4245,0.4082,0.2396,0.0927,0.0491,0.0442,0.0392,0.0393,0.0346,0.0352,0.0294,0.0833,0.1797,0.3295,0.4315,0.5455,0.6837,0.7318,0.756,0.756,0.756,0.756,0.756,0.756,0.756,0.756,0.756,0.756,0.756,0.756,0.756,0.756,0.756,0.756,0.756,0.756,0.756,0.756,0.756,0.756,0.756,0.756,0.756,0.7571,0.7712,0.7836,0.7965,0.807,0.917,1.0127,0.8763,1.1189,1.4687,1.602,1.6401,1.6401,1.6401,1.5881,1.5451,1.5746,1.5769,1.5793,1.5738,1.6263,1.6417,1.5542,1.5361,1.5361,1.5361,1.5361,1.7241,2.2894,2.1255,1.7709,1.304,1.2463,1.2463,1.2463,1.6603,2.0024,2.1616,2.1759,2.1759,2.1759,2.1759,2.1759,2.1759,2.1759,2.1035,1.945,1.9394,1.7084,1.2463,1.2463,1.2463,1.2463,1.2463,1.2463,0.7526,0.7356,0.7009,0.6866,0.6375,0.5923,0.6012,0.6278,0.6501,0.6567,0.6719,0.6833,0.6952,0.6155,0.5226,0.4408,0.3485,0.2615,0.1853,0.1759,0.1774,0.1731,0.177,0.1742,0.1755,0.2672,0.3655,0.4796,0.5577,0.6477,0.75,0.756,0.756,0.756,0.756,0.756,0.756,0.756,0.756,0.756,0.756,0.756,0.756,0.756,0.756,0.756,0.756,0.756,0.756,0.756,0.756,0.756,0.756,0.756,0.756,0.756,0.756,0.7576,0.7744,0.7859,0.7972,0.8133,0.9478,1.0902,0.9866,1.2923,1.6692,1.6692,1.6692,1.6692,1.6692,1.6369,1.5978,1.6248,1.6095,1.59,1.5804,1.6253,1.6923,1.7618,1.9715,2.0031,1.6021,1.8128,2.1266,2.4094,2.2925,2.0502,1.6988,1.6555,1.6555,1.6555,1.9689,2.1759,2.1759,2.1759,2.1759,2.1759,2.1759,2.1759,2.1759,2.1759,2.1759,2.1759,2.1759,2.0024,1.6555,1.6555,1.6555,1.6459,1.3719,1.2463,0.8576,0.7992,0.7065,0.6591,0.6254,0.6008,0.6049,0.6327,0.6561,0.6631,0.6719,0.6833,0.6952,0.6973,0.6481,0.4899,0.4626,0.4138,0.267,0.2452,0.2465,0.2446,0.2483,0.2465,0.2505,0.4145,0.5203,0.5215,0.6657,0.756,0.756,0.756,0.756,0.756,0.756,0.756,0.756,0.756,0.756,0.756,0.756,0.756,0.756,0.756,0.756,0.756,0.756,0.756,0.756,0.756,0.756,0.756,0.756,0.756,0.756,0.756,0.756,0.7636,0.7945,0.8058,0.804,0.8558,0.9899,1.1296,1.1488,1.3962,1.6692,1.6692,1.6692,1.6692,1.6692,1.6692,1.6686,1.6655,1.6364,1.6095,1.6364,1.6875,1.798,2.0356,2.5231,2.6427,1.851,2.2578,2.5754,2.2282,2.1759,2.1759,2.1759,2.1759,2.1759,2.1759,2.1759,2.1759,2.1759,2.1759,2.1759,2.1759,2.1759,2.1759,2.1759,2.1759,2.1759,2.1759,2.1759,2.1759,2.1759,2.1759,2.1759,2.1616,1.6218,1.3665,0.8548,0.7447,0.5918,0.5824,0.5921,0.6076,0.6151,0.6322,0.6464,0.6613,0.6719,0.6833,0.6952,0.6973,0.6919,0.659,0.6535,0.6427,0.6157,0.61,0.6107,0.6071,0.6163,0.632,0.6425,0.682,0.7099,0.7131,0.7378,0.756,0.756,0.756,0.756,0.756,0.756,0.756,0.756,0.756,0.756,0.756,0.756,0.756,0.756,0.756,0.756,0.756,0.756,0.756,0.756,0.756,0.756,0.756,0.756,0.756,0.756,0.756,0.756,0.7769,0.9212,0.8936,0.8368,1.0913,1.1932,1.241,1.3633,1.526,1.6692,1.6692,1.6692,1.6692,1.6692,1.6692,1.6644,1.6464,1.6496,1.6586,1.6628,1.8462,2.0227,2.0678,2.5231,2.8425,2.6881,2.7724,2.699,2.2457,2.1759,2.1759,2.1759,2.1759,2.1759,2.1759,2.1759,2.1759,2.1759,2.1759,2.1759,2.1759,2.1759,2.1759,2.1759,2.1759,2.1759,2.1759,2.1759,2.1759,2.1759,2.1759,2.1759,2.1759,2.0653,2.0167,0.899,0.8058,0.6876,0.6596,0.628,0.6019,0.6099,0.6278,0.6422,0.648,0.6532,0.6655,0.6774,0.6796,0.6796,0.6796,0.6843,0.688,0.688,0.6933,0.6973,0.6973,0.7134,0.7228,0.7286,0.7398,0.7519,0.758,0.7588,0.7555,0.7558,0.7562,0.7588,0.7588,0.7588,0.7588,0.7588,0.7589,0.756,0.756,0.756,0.756,0.756,0.756,0.756,0.756,0.756,0.756,0.756,0.756,0.756,0.756,0.756,0.756,0.7678,0.833,0.8671,0.9,1.0563,1.0759,1.0549,1.2004,1.2931,1.3702,1.4347,1.5585,1.6692,1.6692,1.6692,1.6692,1.6692,1.6692,1.6665,1.6559,1.8281,1.9976,1.9976,2.0999,2.2214,2.324,2.5295,2.7038,2.7668,2.8401,2.732,2.2493,2.1759,2.1759,2.1759,2.1759,2.1759,2.1759,2.1759,2.1759,2.1759,2.1759,2.1759,2.1759,2.1759,2.1759,2.1759,2.1759,2.1759,2.1759,2.1759,2.1759,2.1759,2.1759,2.1759,2.1759,2.1759,2.1759,0.9012,0.8396,0.7675,0.7528,0.6746,0.5984,0.5999,0.6199,0.6346,0.6396,0.6406,0.6443,0.661,0.6634,0.6634,0.6634,0.6706,0.6769,0.6793,0.6878,0.6944,0.697,0.711,0.7177,0.7204,0.7292,0.7396,0.7513,0.7524,0.7564,0.7539,0.7516,0.7524,0.7524,0.7524,0.7537,0.7561,0.7595,0.7594,0.756,0.756,0.756,0.756,0.756,0.756,0.762,0.7857,0.7857,0.762,0.7857,0.7857,0.756,0.756,0.7737,0.8157,0.9196,0.9937,1.0555,1.2059,1.2479,1.2566,1.3133,1.3897,1.4607,1.4931,1.5844,1.6692,1.6692,1.6692,1.6821,1.7274,1.7404,1.7528,1.798,2.0549,2.2927,2.2927,2.3247,2.4016,2.5551,2.5814,2.5945,2.6648,2.7582,2.6893,2.2888,2.1988,2.1759,2.1759,2.1759,2.1759,2.1759,2.1759,2.1759,2.1759,2.1759,2.1759,2.1759,2.1759,2.1759,2.1759,2.1759,2.1759,2.1759,2.1759,2.1759,2.1759,2.1759,2.1759,2.1759,2.1759,2.1759,0.7901,0.7177,0.65,0.764,0.6867,0.5887,0.6003,0.6025,0.6149,0.6362,0.6406,0.6443,0.661,0.6634,0.6634,0.6634,0.6642,0.6682,0.6782,0.6806,0.6851,0.696,0.6984,0.7086,0.7196,0.7214,0.727,0.739,0.7401,0.7404,0.7414,0.7406,0.7401,0.7401,0.7401,0.7452,0.7561,0.7572,0.7574,0.756,0.756,0.756,0.756,0.756,0.756,0.7618,0.8806,0.8686,0.7678,0.8866,0.8626,0.756,0.756,0.833,0.9413,0.9725,1.0638,1.1921,1.3588,1.3412,1.2881,1.5456,1.552,1.4802,1.6108,1.6627,1.6692,1.6692,1.6692,1.7145,1.9073,1.9524,2.0034,2.19,2.267,2.2927,2.2927,2.4336,2.5615,2.5806,2.7353,2.8253,2.7338,2.6369,2.5331,2.4085,2.2705,2.1759,2.1759,2.1759,2.1759,2.1759,2.1759,2.1759,2.1759,2.1759,2.1759,2.1759,2.1759,2.1759,2.1759,2.1759,2.1759,2.1759,2.1759,2.1759,2.1759,2.1759,2.1759,2.1759,2.1759,2.1759,0.8773,0.8422,0.7902,0.7945,0.7316,0.656,0.612,0.6007,0.6055,0.6149,0.6187,0.62,0.6248,0.6266,0.6241,0.6267,0.6388,0.649,0.6586,0.6653,0.674,0.6854,0.6867,0.6912,0.7086,0.71,0.7148,0.7268,0.7276,0.7308,0.738,0.7316,0.7276,0.7276,0.7276,0.73,0.7348,0.7489,0.7585,0.7574,0.7586,0.7938,0.8693,0.9543,0.952,0.8803,1.0113,0.9934,0.8866,1.0173,1.0412,0.9938,0.9938,1.0236,1.0848,1.1865,1.2676,1.3498,1.5044,1.5294,1.5219,1.6336,1.7204,1.784,1.8427,1.9454,2.0485,2.0485,2.0485,2.0678,2.145,2.1707,2.2542,2.5814,2.6588,2.6588,2.6588,2.7162,2.7743,2.7743,2.7813,2.7563,2.6342,2.512,2.3954,2.2888,2.2172,2.1759,2.1759,2.1759,2.1759,2.1759,2.1759,2.1759,2.1759,2.1759,2.1759,2.1759,2.1759,2.1759,2.1759,2.1759,2.1759,2.1759,2.1759,2.1759,2.1759,2.1759,2.1759,2.1759,2.1759,2.1759,0.907,0.9081,0.8823,0.8229,0.7737,0.7235,0.65,0.6244,0.6134,0.5965,0.5931,0.5928,0.596,0.5989,0.5983,0.6028,0.6194,0.6364,0.6401,0.6477,0.6634,0.678,0.6796,0.6843,0.6963,0.6973,0.7062,0.7148,0.7153,0.719,0.7273,0.7198,0.7153,0.7153,0.7153,0.7169,0.7206,0.7372,0.7473,0.7511,0.7923,0.8705,0.9897,1.0833,1.0854,1.0166,1.1014,1.1081,1.0706,1.1243,1.1481,1.1489,1.154,1.18,1.2314,1.3538,1.435,1.4951,1.6062,1.6945,1.7657,1.7657,1.9073,2.0742,2.0742,2.1771,2.2927,2.2927,2.2927,2.3055,2.3632,2.4272,2.5431,2.8261,2.896,2.896,2.896,2.896,2.896,2.896,2.7998,2.6847,2.5672,2.4395,2.3132,2.1942,2.1759,2.1759,2.1759,2.1759,2.1759,2.1759,2.1759,2.1759,2.1759,2.1759,2.1759,2.1759,2.1759,2.1759,2.1759,2.1759,2.1759,2.1759,2.1759,2.1759,2.1759,2.1759,2.1759,2.1759,2.1759,2.1759,0.8193,0.847,0.8526,0.8392,0.815,0.7785,0.7152,0.6769,0.643,0.5767,0.5634,0.5666,0.5823,0.5842,0.5882,0.6001,0.6126,0.6272,0.6391,0.6406,0.649,0.6769,0.6796,0.6843,0.6963,0.6973,0.6973,0.6976,0.6976,0.6976,0.6976,0.6976,0.6976,0.6976,0.6976,0.7086,0.7204,0.7209,0.7268,0.7388,0.8724,0.9955,1.1052,1.0938,1.1101,1.1413,1.1193,1.1977,1.3271,1.2017,1.1481,1.1501,1.1736,1.2661,1.3812,1.4226,1.521,1.6327,1.6612,1.8039,1.9776,1.9776,2.1192,2.2927,2.2927,2.2927,2.2927,2.2927,2.2927,2.3376,2.5359,2.7353,2.8897,2.896,2.896,2.896,2.896,2.896,2.896,2.896,2.7998,2.6847,2.5672,2.4395,2.3132,2.1942,2.1759,2.1759,2.1759,2.1759,2.1759,2.1759,2.1759,2.1759,2.1759,2.1759,2.1759,2.1759,2.1759,2.1759,2.1759,2.1759,2.1759,2.1759,2.1759,2.1759,2.1759,2.1759,2.1759,2.1759,2.1759,2.1759,0.9096,0.9517,0.9528,0.8584,0.8624,0.8419,0.6491,0.5987,0.5786,0.5205,0.5233,0.5397,0.5431,0.557,0.5696,0.5733,0.6022,0.6214,0.6172,0.6236,0.6372,0.6655,0.6684,0.6761,0.6955,0.6973,0.6973,0.6973,0.6973,0.6973,0.6973,0.6973,0.6973,0.6973,0.6973,0.6992,0.7084,0.7164,0.7616,0.8439,0.9776,1.0591,1.0991,1.2643,1.2977,1.234,1.3143,1.3353,1.3196,1.3665,1.3982,1.4128,1.4408,1.4829,1.5312,1.5617,1.6861,1.8481,1.8731,2.0227,2.1964,2.1964,2.3312,2.4912,2.4912,2.5942,2.7034,2.7034,2.7034,2.7225,2.7807,2.8452,2.896,2.896,2.896,2.896,2.896,2.896,2.8722,2.7897,2.6819,2.5598,2.4376,2.3155,2.2209,2.1823,2.1759,2.1759,2.1759,2.1759,2.1759,2.1759,2.1759,2.1759,2.1759,2.1759,2.1759,2.1759,2.1759,2.1759,2.1759,2.1759,2.1759,2.1759,2.1759,2.1759,2.1759,2.1759,2.1759,2.1806,2.2529,2.2852,0.9096,0.9447,0.941,0.8388,0.8474,0.8247,0.6125,0.5441,0.5162,0.4715,0.4764,0.4891,0.4884,0.5071,0.5262,0.5528,0.5834,0.6099,0.6112,0.6186,0.6301,0.6493,0.6514,0.6639,0.6827,0.6883,0.6907,0.6907,0.6989,0.7094,0.7094,0.7094,0.7094,0.7094,0.6997,0.6973,0.6973,0.7102,0.7689,0.89,0.9672,1.0367,1.0929,1.2367,1.2926,1.2732,1.3444,1.3702,1.368,1.4491,1.5022,1.5372,1.5526,1.5772,1.6231,1.7286,1.8454,1.9748,2.0683,2.2342,2.4016,2.4016,2.5359,2.7034,2.7034,2.7934,2.896,2.896,2.896,2.896,2.896,2.896,2.896,2.896,2.896,2.896,2.896,2.896,2.8612,2.7471,2.6241,2.5074,2.3755,2.2527,2.1759,2.1759,2.1759,2.1759,2.1759,2.1759,2.1759,2.1759,2.1759,2.1759,2.1759,2.1759,2.1759,2.1759,2.1759,2.1759,2.1759,2.2139,2.2329,2.2329,2.2757,2.2956,2.2956,2.2956,2.2956,2.2956,2.362,2.3904,0.8422,0.8597,0.8468,0.7929,0.7822,0.7426,0.5971,0.5118,0.4555,0.4292,0.4265,0.4265,0.4236,0.4349,0.4669,0.5291,0.5618,0.5893,0.6144,0.6193,0.6243,0.6377,0.6393,0.6443,0.6621,0.6727,0.6785,0.6785,0.6989,0.7174,0.7193,0.7193,0.7198,0.7206,0.71,0.6981,0.6973,0.6973,0.7571,0.86,0.8706,0.9435,1.0739,1.0571,1.1281,1.2625,1.2432,1.3093,1.4445,1.4631,1.4969,1.5388,1.5604,1.59,1.6639,1.8982,1.9969,2.0549,2.2478,2.4464,2.607,2.607,2.7416,2.896,2.896,2.896,2.896,2.896,2.896,2.896,2.896,2.896,2.896,2.896,2.896,2.896,2.896,2.8896,2.8484,2.7334,2.6112,2.4936,2.3617,2.2472,2.1759,2.1759,2.1759,2.1759,2.1759,2.1759,2.1759,2.1759,2.1759,2.1759,2.1759,2.1759,2.1806,2.1997,2.1997,2.1997,2.1997,2.2899,2.343,2.343,2.4377,2.4906,2.4906,2.4906,2.4906,2.4906,2.4953,2.5001,0.8504,0.8923,0.8971,0.8243,0.7198,0.6189,0.5624,0.4825,0.4184,0.4021,0.406,0.406,0.3878,0.4112,0.4495,0.5045,0.5378,0.5624,0.5882,0.592,0.6032,0.6236,0.6272,0.6354,0.6613,0.6655,0.6671,0.6671,0.6724,0.683,0.7005,0.7068,0.711,0.7204,0.718,0.7121,0.6976,0.6973,0.7136,0.7408,0.8329,0.8943,0.9305,1.0135,1.0702,1.1053,1.0957,1.1847,1.3371,1.5186,1.5837,1.5851,1.7757,1.7594,1.6639,1.8982,2.1771,2.4528,2.4976,2.6516,2.8252,2.8252,2.8579,2.896,2.896,2.896,2.896,2.896,2.896,2.896,2.896,2.896,2.896,2.896,2.896,2.896,2.896,2.8245,2.7297,2.6123,2.4845,2.3581,2.2402,2.1951,2.1759,2.1759,2.1759,2.1759,2.1759,2.1759,2.1759,2.1759,2.1759,2.1759,2.1759,2.1759,2.2472,2.4046,2.414,2.414,2.414,2.4377,2.4529,2.4529,2.4765,2.4906,2.4906,2.4906,2.4906,2.4906,2.5613,2.5942,0.8353,0.8405,0.8431,0.8798,0.7558,0.6231,0.6088,0.4861,0.3702,0.3638,0.3675,0.3681,0.355,0.3774,0.411,0.4396,0.4836,0.5362,0.5858,0.5923,0.6044,0.6349,0.6296,0.6301,0.6483,0.6501,0.6501,0.6501,0.665,0.6785,0.6963,0.7081,0.7164,0.7284,0.7289,0.723,0.711,0.711,0.711,0.7108,0.7652,0.7949,0.7952,0.8669,0.9248,0.9855,1.103,1.2515,1.4264,1.6654,1.798,1.8458,1.8818,1.9168,1.9396,1.9726,2.2413,2.6006,2.6962,2.7998,2.896,2.896,2.896,2.896,2.896,2.896,2.896,2.896,2.896,2.896,2.896,2.896,2.896,2.896,2.896,2.896,2.896,2.8025,2.6874,2.5691,2.4422,2.3159,2.197,2.1759,2.1759,2.1759,2.1759,2.1759,2.1759,2.1759,2.1759,2.1759,2.1759,2.1958,2.2472,2.2481,2.3193,2.4812,2.4906,2.4906,2.4906,2.5283,2.5519,2.5519,2.5978,2.6213,2.6213,2.6213,2.6213,2.626,2.6729,2.6963,0.822,0.7887,0.7871,0.9298,0.8364,0.7023,0.6793,0.5085,0.3523,0.3342,0.3316,0.3316,0.3316,0.3475,0.3643,0.3681,0.4285,0.5027,0.5837,0.5951,0.6107,0.6459,0.6325,0.6249,0.6367,0.638,0.638,0.638,0.6608,0.6777,0.6912,0.7086,0.7206,0.7324,0.7364,0.7337,0.7236,0.7233,0.7233,0.7233,0.7113,0.7065,0.7086,0.7166,0.7717,0.8855,1.1567,1.3692,1.5544,1.8534,2.0421,2.1375,2.0024,2.0895,2.2669,2.1237,2.292,2.6133,2.8252,2.896,2.896,2.896,2.896,2.896,2.896,2.896,2.896,2.896,2.896,2.896,2.896,2.896,2.896,2.896,2.896,2.8914,2.8731,2.7811,2.659,2.5414,2.4147,2.293,2.1942,2.1759,2.1759,2.1759,2.1901,2.1997,2.1997,2.2139,2.2234,2.2234,2.2234,2.2614,2.3478,2.3572,2.4046,2.5273,2.532,2.532,2.532,2.6072,2.6448,2.6448,2.7338,2.7793,2.7793,2.7793,2.7793,2.7793,2.7793,2.7793,0.8687,0.8828,0.9074,0.9314,0.8834,0.7979,0.6758,0.5604,0.4501,0.3497,0.3316,0.3316,0.3316,0.3345,0.3432,0.3654,0.4078,0.4645,0.5418,0.5634,0.5795,0.6094,0.6104,0.6128,0.6246,0.6257,0.6257,0.6257,0.6291,0.6404,0.6674,0.679,0.6904,0.7078,0.7278,0.7374,0.7356,0.7356,0.7356,0.7356,0.7236,0.7233,0.7326,0.7244,0.7372,0.7811,1.0828,1.3034,1.4774,1.9811,2.1701,2.16,2.3519,2.3476,2.2634,2.43,2.5359,2.6133,2.8252,2.896,2.896,2.896,2.896,2.896,2.896,2.896,2.896,2.896,2.896,2.896,2.896,2.896,2.896,2.896,2.896,2.8685,2.7729,2.6544,2.5322,2.4057,2.2888,2.1988,2.1795,2.1759,2.1759,2.1759,2.2519,2.3098,2.3098,2.3856,2.4424,2.4424,2.4424,2.4471,2.4613,2.467,2.5414,2.7233,2.7326,2.7326,2.7326,2.7466,2.756,2.756,2.77,2.7793,2.7793,2.7793,2.7793,2.7793,2.7793,2.7793,0.8755,0.8824,0.9157,0.9722,0.9095,0.8069,0.6968,0.5862,0.471,0.3461,0.3195,0.3177,0.3114,0.3203,0.335,0.3456,0.3742,0.4153,0.4717,0.5365,0.5874,0.6196,0.6188,0.6196,0.6314,0.6267,0.623,0.623,0.623,0.6304,0.6477,0.6703,0.6851,0.6968,0.726,0.7353,0.7289,0.7289,0.7318,0.7382,0.7262,0.7268,0.7385,0.7393,0.8172,0.9666,1.2869,1.5641,1.8219,2.2406,2.4398,2.4886,2.4919,2.5358,2.5918,2.5884,2.658,2.7671,2.8643,2.896,2.896,2.896,2.896,2.896,2.896,2.896,2.896,2.896,2.896,2.896,2.896,2.896,2.8914,2.8694,2.8649,2.8319,2.7159,2.5994,2.4844,2.3736,2.2554,2.1759,2.1759,2.2234,2.2614,2.2614,2.3525,2.414,2.414,2.4576,2.4906,2.4906,2.4906,2.5095,2.5566,2.6119,2.6858,2.7747,2.7793,2.7793,2.7793,2.7793,2.7793,2.7793,2.7793,2.7793,2.7793,2.7793,2.7793,2.7793,2.7793,2.7793,0.9424,0.0,0.9814,1.0613,0.979,0.857,0.0,0.6527,0.5277,0.3971,0.353,0.3428,0.3534,0.3402,0.3335,0.3594,0.367,0.3822,0.4229,0.5,0.5706,0.6189,0.6196,0.6225,0.6314,0.6267,0.623,0.623,0.623,0.627,0.6359,0.6605,0.6772,0.6888,0.715,0.7228,0.7164,0.7193,0.7281,0.7425,0.7305,0.7324,0.7413,0.7532,0.9033,1.1751,1.495,1.8215,2.1464,2.4599,2.6553,2.7373,2.5958,2.6759,2.8515,2.7093,2.7607,2.896,2.896,2.896,2.896,2.896,2.896,2.896,2.896,2.896,2.896,2.896,2.896,2.896,2.896,2.896,2.8887,2.8594,2.831,2.776,2.659,2.5433,2.4266,2.3296,2.2402,2.1854,2.2092,2.2814,2.343,2.3667,2.4565,2.5189,2.5189,2.5414,2.5555,2.5555,2.5555,2.5837,2.6553,2.7326,2.7793,2.7793,2.8108,2.8154,2.784,2.812,2.8166,2.7793,2.7793,2.7793,2.7793,2.7793,2.7793,2.7793,2.7793,2.7793,0.0,1.1812,1.2204,1.2282,1.1483,1.0385,0.9248,0.8165,0.0,0.5716,0.4772,0.4445,0.5283,0.4183,0.3437,0.4399,0.4081,0.3822,0.4229,0.4445,0.4843,0.561,0.5878,0.6025,0.6033,0.6172,0.623,0.623,0.623,0.6236,0.6243,0.6362,0.6485,0.6653,0.6772,0.6883,0.6986,0.715,0.7321,0.7548,0.7428,0.7434,0.7591,0.755,0.9319,1.2522,1.5669,1.8856,2.2109,2.525,2.6645,2.6764,2.7346,2.7674,2.7934,2.8559,2.8833,2.896,2.896,2.896,2.896,2.896,2.896,2.896,2.896,2.896,2.896,2.896,2.896,2.896,2.896,2.896,2.896,2.8933,2.8071,2.6985,2.581,2.4542,2.3278,2.2126,2.1823,2.2092,2.3051,2.3288,2.3667,2.4613,2.5566,2.613,2.613,2.701,2.756,2.756,2.756,2.7606,2.77,2.7747,2.7793,2.7793,2.9038,2.9177,2.784,2.9084,2.9177,2.784,2.7793,2.7793,2.7793,2.7793,2.7793,2.7793,2.7793,2.7793,1.3459,1.2738,1.1935,1.2337,1.1652,1.0565,0.9394,0.8531,0.7514,0.5953,0.537,0.5236,0.5574,0.5321,0.4939,0.4612,0.4612,0.4578,0.4318,0.4324,0.4671,0.553,0.6022,0.6275,0.6275,0.6314,0.6309,0.6236,0.623,0.623,0.623,0.6343,0.6427,0.6472,0.6511,0.6708,0.697,0.7073,0.7252,0.7561,0.7516,0.7521,0.7678,0.9701,1.2124,1.4969,1.8568,2.1699,0.0,2.5958,2.6764,2.7049,2.76,2.7977,2.8218,2.8759,2.896,2.896,2.896,2.896,2.896,2.896,2.896,2.896,2.896,2.896,2.896,2.896,2.896,2.896,2.896,2.896,2.9086,2.9778,2.8819,2.7723,2.7362,2.6101,2.4826,2.3867,2.3715,2.3856,2.4235,2.4754,2.5273,2.566,2.6589,2.7186,2.7186,2.756,2.7793,2.7793,2.7793,2.8573,3.0426,3.0564,3.0564,3.0564,3.1084,3.113,3.0623,3.1117,3.0656,2.9177,2.913,2.8712,2.7793,2.7793,2.7793,2.7793,2.7793,2.7793,1.5202,1.3952,1.2575,1.3016,1.2338,1.1294,1.025,0.9344,0.8312,0.692,0.6337,0.6184,0.6554,0.6404,0.5965,0.5215,0.5176,0.5025,0.4366,0.4277,0.4605,0.5517,0.5938,0.624,0.6335,0.6417,0.6412,0.6296,0.6285,0.627,0.6233,0.6306,0.6385,0.6459,0.6496,0.7041,0.8044,0.8185,0.8337,0.8544,0.8703,0.8796,0.8869,1.1358,1.4376,1.7861,2.0694,2.3472,2.6017,2.6433,2.6856,2.7279,2.7664,2.8016,2.8429,2.8823,2.896,2.896,2.896,2.896,2.896,2.896,2.896,2.896,2.896,2.896,2.896,2.896,2.896,2.896,2.896,2.9278,2.9836,3.0562,2.955,2.843,2.8543,2.702,2.5517,2.4974,2.4906,2.5001,2.5283,2.5848,2.6365,2.6682,2.7338,2.798,2.8433,2.848,2.8666,2.913,2.9223,3.001,3.2094,3.2291,3.2291,3.2291,3.2689,3.2735,3.2291,3.2689,3.2218,3.0702,3.0195,2.9455,2.848,2.8026,2.7793,2.7793,2.7793,2.7793,1.6756,1.5676,1.4593,1.4593,1.3794,1.2836,1.2039,1.0849,0.9693,0.8914,0.7823,0.7368,0.8545,0.7372,0.6281,0.6389,0.5796,0.5069,0.4413,0.43,0.4645,0.5568,0.5634,0.5773,0.6191,0.6446,0.6535,0.6417,0.6406,0.6356,0.6241,0.6236,0.6341,0.6626,0.679,0.7958,1.0338,1.0735,1.083,1.0722,1.1132,1.1369,1.1536,1.2247,1.5615,2.1053,2.1699,2.3764,2.6608,2.6608,2.6856,2.7279,2.7664,2.8016,2.8429,2.8823,2.896,2.896,2.896,2.896,2.896,2.896,2.896,2.896,2.896,2.896,2.896,2.896,2.896,2.896,2.896,3.0038,3.1114,3.1167,3.006,2.899,2.899,2.686,2.4906,2.4953,2.4953,2.5236,2.613,2.6271,2.6647,2.7653,2.784,2.834,2.9779,2.9964,3.0564,3.2094,3.2278,3.2323,3.2323,3.2323,3.2323,3.2323,3.3633,3.38,3.2369,3.3664,3.3755,3.2337,3.0749,2.9951,2.9951,2.8527,2.784,2.7793,2.7793,2.7793,1.8699,1.7107,1.5211,1.502,1.4356,1.3419,1.225,1.1277,1.0243,0.9015,0.8484,0.8326,0.8681,0.8571,0.7965,0.6619,0.7772,0.8277,0.6817,0.6517,0.6873,0.7967,0.679,0.6088,0.6589,0.6706,0.67,0.6538,0.653,0.6514,0.648,0.6477,0.727,0.9042,0.9085,1.0313,1.2758,1.2886,1.3025,1.3167,1.354,1.4024,1.4555,1.7245,1.9635,2.1816,2.424,2.5775,2.6608,2.6608,2.6856,2.7279,2.7664,2.8016,2.8429,2.8823,2.896,2.896,2.896,2.896,2.896,2.896,2.896,2.896,2.896,2.896,2.896,2.896,2.896,2.896,2.896,3.0038,3.1546,3.3425,3.1885,3.0319,3.125,2.904,2.7233,2.8247,2.8433,2.8527,2.8805,2.8852,2.8945,2.9269,2.9316,2.9871,3.1347,3.159,3.1773,3.2186,3.4056,3.5278,3.5278,3.5278,3.5278,3.5278,3.5684,3.5729,3.5278,3.5684,3.5263,3.38,3.33,3.2067,2.9951,2.9501,2.8805,2.7793,2.7793,2.7793,2.1024,1.8966,1.6584,1.6451,1.5427,1.4098,1.2758,1.1885,1.0953,0.9511,0.9094,0.9031,0.918,0.9417,0.9217,0.8144,0.9381,1.011,0.9107,0.8356,0.8262,0.9104,0.7444,0.6414,0.6759,0.6838,0.6841,0.6774,0.6724,0.6719,0.6767,0.6769,0.7819,1.0176,1.0281,1.1861,1.5172,1.5324,1.5478,1.5516,1.6089,1.6665,1.7292,1.9892,2.1921,2.353,2.5716,2.6608,2.6608,2.6608,2.6948,2.749,2.7729,2.8108,2.8639,2.8878,2.896,2.896,2.896,2.896,2.896,2.896,2.896,2.896,2.896,2.896,2.896,2.896,2.896,2.9087,2.9658,3.0482,3.1605,3.3586,3.2632,3.1309,3.1505,2.9999,2.8898,2.9766,3.0426,3.0887,3.0887,3.0887,3.0887,3.0887,3.0887,3.1393,3.2904,3.3132,3.3314,3.392,3.5503,3.6553,3.6553,3.6553,3.6553,3.6553,3.6553,3.6553,3.6553,3.6553,3.6313,3.5878,3.5233,3.4285,3.2894,3.1903,3.1123,3.0664,2.9905,2.9442,2.3374,2.0907,1.8354,1.8317,1.6763,1.4876,1.3374,1.2575,1.1717,1.0227,0.9638,0.9535,0.9892,1.0027,1.0175,1.0371,1.0801,1.1208,1.1416,1.0218,0.9431,0.9605,0.8066,0.6888,0.6854,0.691,0.6973,0.6973,0.6875,0.6966,0.7294,0.7514,0.8706,1.1033,1.1141,1.319,1.756,1.7977,1.8057,1.7905,1.8742,1.9425,1.9877,2.1021,2.3009,2.573,2.6321,2.6571,2.6608,2.6608,2.7067,2.7765,2.7765,2.8234,2.8859,2.8896,2.8914,2.8914,2.8951,2.896,2.896,2.896,2.8942,2.8914,2.8951,2.896,2.896,2.896,2.9214,2.9712,3.0798,3.142,3.1923,3.2711,3.2754,3.2243,3.0673,3.0238,3.0182,3.0321,3.1485,3.2461,3.2461,3.2461,3.2461,3.2461,3.2461,3.3009,3.4435,3.4616,3.5128,3.6418,3.6553,3.6553,3.6553,3.6553,3.6553,3.6553,3.6553,3.6553,3.6553,3.6642,3.7119,3.8083,3.6775,3.6491,3.7308,3.5054,3.4332,3.4963,3.33,3.225,2.3875,2.1483,1.8985,1.8786,1.7316,1.5424,1.3461,1.2932,1.2274,1.033,1.0015,1.012,1.0198,1.0984,1.1475,1.1128,1.3002,1.4427,1.4162,1.4016,1.3471,1.2247,1.048,0.8737,0.7131,0.6957,0.6973,0.6973,0.6949,0.7756,0.9628,1.1403,1.3396,1.5775,1.5835,1.7178,2.0029,2.0151,2.035,2.0725,2.1187,2.2005,2.2968,2.3524,2.4608,2.5977,2.6092,2.6323,2.6608,2.6608,2.6911,2.7301,2.7301,2.7595,2.8114,2.8383,2.8511,2.8557,2.8859,2.896,2.896,2.896,2.8759,2.8566,2.8869,2.896,2.896,2.896,3.0885,3.2629,3.141,3.3769,3.6114,3.4778,3.4306,3.3694,3.2126,3.1777,3.2081,3.3195,3.3709,3.3936,3.3936,3.3936,3.3936,3.3936,3.3936,3.445,3.5909,3.6089,3.6178,3.6508,3.6553,3.6553,3.6553,3.6553,3.6553,3.6553,3.6553,3.6553,3.6553,3.7342,3.7877,3.8083,3.8455,3.82,3.7308,3.6773,3.5997,3.5009,3.4572,3.4346,2.6039,2.3634,2.1181,2.1032,1.8796,1.6237,1.4846,1.4387,1.3679,1.1807,1.1503,1.1442,1.0939,1.1611,1.2374,1.2795,1.4536,1.5982,1.6472,1.6144,1.5516,1.463,1.2968,1.1022,0.8909,0.8652,0.822,0.7082,0.8057,0.9679,1.1943,1.318,1.4849,1.7231,1.7285,1.8417,2.0784,2.0784,2.105,2.1583,2.2102,2.288,2.3948,2.4417,2.5063,2.5783,2.5783,2.6013,2.639,2.639,2.6691,2.7233,2.7233,2.7471,2.7839,2.8007,2.808,2.8117,2.8319,2.8383,2.8383,2.8383,2.8245,2.8117,2.8319,2.8383,2.8793,3.0595,3.237,3.4079,3.5504,3.7611,3.9293,3.8886,3.7379,3.5778,3.4943,3.3999,3.3496,3.4254,3.4992,3.5443,3.5443,3.5443,3.5443,3.5443,3.5443,3.5729,3.6463,3.6553,3.6553,3.6553,3.6553,3.6553,3.6553,3.6553,3.6553,3.6553,3.6553,3.6777,3.7253,3.7817,3.8527,3.9367,3.9851,3.9983,3.9641,3.9201,3.8788,3.8418,3.7546,3.7012,2.8083,2.5968,2.3705,2.3824,2.1014,1.8073,1.7352,1.6597,1.5736,1.4483,1.3557,1.2846,1.2298,1.2447,1.3072,1.4371,1.5416,1.6548,1.7948,1.7279,1.6562,1.636,1.5147,1.3457,1.1299,1.1087,1.0275,0.8326,1.0329,1.2488,1.4311,1.479,1.5924,1.7828,1.7882,1.8845,2.0784,2.089,2.121,2.1734,2.2372,2.313,2.3941,2.4491,2.4982,2.535,2.535,2.5589,2.5976,2.5976,2.636,2.7031,2.7031,2.7269,2.7618,2.7692,2.7719,2.7729,2.7793,2.7821,2.7863,2.8214,2.8074,2.7789,2.827,2.8471,2.9205,3.2329,3.4011,3.5745,3.9614,4.1095,4.1743,4.2607,3.9998,3.747,3.7846,3.6078,3.448,3.4752,3.5714,3.6553,3.6553,3.6553,3.6553,3.6553,3.6553,3.6553,3.6553,3.6553,3.6553,3.6553,3.6553,3.6553,3.6553,3.6553,3.6642,3.6806,3.6822,3.7253,3.8277,3.8483,3.9278,4.0771,4.099,4.1443,4.2173,4.1443,4.1443,4.213,4.0631,3.9692,2.7643,2.6713,2.5313,2.5896,2.44,2.2589,2.1569,1.9762,1.8385,1.8822,1.5766,1.3468,1.4907,1.4244,1.3702,1.4451,1.5163,1.6134,1.7555,1.793,1.7617,1.644,1.6447,1.567,1.359,1.3342,1.3234,1.291,1.507,1.6534,1.6802,1.8785,2.0029,2.0349,2.0349,2.0463,2.0784,2.1255,2.1796,2.2434,2.2965,2.3522,2.4107,2.416,2.4496,2.4954,2.4954,2.5175,2.5534,2.5534,2.5819,2.6186,2.6186,2.6424,2.681,2.7178,2.7315,2.7301,2.7701,2.7821,2.812,2.9927,2.9055,2.7789,3.0219,3.1334,3.1805,3.2279,3.6394,4.0449,3.9422,4.1361,4.3303,4.2367,3.9317,3.7215,3.9115,3.6862,3.4797,3.5999,3.6418,3.6553,3.6553,3.6553,3.6553,3.6553,3.6553,3.6553,3.6553,3.6553,3.6553,3.6553,3.6553,3.6553,3.6553,3.6553,3.6956,3.7833,3.7861,3.8321,3.9267,4.0043,4.0579,4.0815,4.1573,4.2069,4.2173,4.2069,4.2069,4.2173,4.1939,4.1808,2.6865,2.6725,2.6306,2.6585,2.5242,2.3635,2.2893,2.1896,2.1072,2.0773,1.8013,1.5661,1.5751,1.5062,1.4567,1.4876,1.612,1.7371,1.8147,1.855,1.8588,1.8041,1.8328,1.7757,1.5729,1.5547,1.5069,1.387,1.6968,1.9045,1.9266,2.0242,2.0784,2.0784,2.0784,2.0784,2.0784,2.1308,2.2062,2.3018,2.3221,2.3592,2.413,2.413,2.4231,2.4459,2.4459,2.4698,2.5148,2.5359,2.57,2.6048,2.6268,2.6461,2.6636,2.6819,2.6884,2.6911,2.7077,2.8071,2.938,3.0281,3.0742,3.1249,3.2831,3.3528,3.4214,3.6585,3.9301,4.1763,4.2996,4.4455,4.5425,4.4837,4.1723,3.9091,4.0101,3.7229,3.4806,3.5817,3.6291,3.6553,3.6553,3.6553,3.6553,3.6553,3.6553,3.6553,3.6553,3.6553,3.6553,3.6553,3.6553,3.6553,3.6553,3.7074,3.761,3.8099,3.8588,3.9251,4.0175,4.0596,4.1033,4.1573,4.1982,4.2173,4.2173,4.2173,4.2173,4.2173,4.2173,4.2173,2.5983,2.6469,2.6728,2.7269,2.6334,2.5163,2.4764,2.4179,2.3614,2.3199,2.0666,1.838,1.788,1.6707,1.5836,1.5927,1.6967,1.7885,1.8329,1.8668,1.8969,1.923,1.9499,1.9133,1.7801,1.7681,1.7034,1.5441,1.8283,2.0302,2.0634,2.0657,2.0697,2.0776,2.0784,2.0837,2.0997,2.1362,2.216,2.3336,2.3442,2.376,2.413,2.413,2.413,2.413,2.413,2.4305,2.4679,2.4973,2.5341,2.5801,2.6096,2.6277,2.6461,2.6461,2.6583,2.6783,2.8041,2.9641,3.1345,3.2148,3.3165,3.4292,3.5539,3.6036,3.6858,4.0077,4.1531,4.2718,4.557,4.629,4.6213,4.5913,4.2991,4.0319,3.9915,3.7122,3.4741,3.5208,3.5717,3.6073,3.6073,3.6183,3.6291,3.6291,3.6445,3.6519,3.6384,3.6558,3.669,3.669,3.669,3.6769,3.6986,3.771,3.8348,3.8776,3.9427,4.0219,4.112,4.1164,4.1486,4.2156,4.2173,4.2173,4.2173,4.2173,4.2173,4.2173,4.2173,4.2173,2.5101,2.6097,2.6557,2.8537,2.8951,2.8894,2.8825,2.7039,2.5824,2.7505,2.4104,2.1333,2.2983,2.0138,1.7664,1.8041,1.7055,1.6576,1.7595,1.7752,1.8123,1.9143,1.9278,1.9379,1.964,1.968,1.9629,1.9543,1.9738,1.999,2.0242,2.0258,2.04,2.0776,2.0784,2.105,2.153,2.1575,2.216,2.3336,2.3813,2.4068,2.413,2.413,2.413,2.413,2.413,2.414,2.4158,2.4176,2.4496,2.4936,2.4954,2.5433,2.6114,2.6114,2.6344,2.7297,3.1861,3.3507,3.4133,3.7089,3.6569,3.5301,3.8131,3.9474,3.999,4.0241,4.2338,4.4562,4.4773,4.4844,4.4504,4.326,4.1312,3.9346,3.8127,3.6132,3.4644,3.4632,3.4663,3.4694,3.4694,3.5192,3.5625,3.5625,3.6136,3.6384,3.5869,3.6577,3.7096,3.7096,3.7096,3.7394,3.8148,3.8257,3.8971,4.0589,4.0728,4.1164,4.2069,4.213,4.213,4.2173,4.2173,4.2173,4.2173,4.2173,4.2173,4.2173,4.2173,4.2173,2.4507,2.5742,2.6517,2.8523,2.8798,2.8522,2.8426,2.7509,2.6911,2.756,2.5061,2.2848,2.3258,2.1887,2.0657,2.0535,2.0098,1.9901,2.0267,1.9174,1.8439,1.885,1.8849,1.9023,1.942,1.9213,1.9173,1.9444,1.9452,1.961,1.9923,2.0108,2.0289,2.0407,2.0673,2.105,2.1575,2.2009,2.2593,2.3336,2.3857,2.413,2.413,2.413,2.413,2.413,2.413,2.413,2.4149,2.4477,2.4679,2.4899,2.5148,2.5589,2.6257,2.7818,2.8645,2.9427,3.2357,3.4875,3.6849,3.7122,3.8231,3.9656,4.108,4.1402,4.1422,4.2282,4.3245,4.4071,4.4071,4.4411,4.4288,4.2429,4.0474,3.8529,3.6706,3.4698,3.3386,3.3875,3.3968,3.4107,3.4509,3.4787,3.4957,3.4957,3.5588,3.6198,3.6586,3.6939,3.7106,3.7106,3.7106,3.7263,3.7529,3.8084,3.8706,3.93,3.9872,4.0333,4.0686,4.0686,4.0917,4.1416,4.1416,4.1683,4.2173,4.2173,4.2173,4.2156,4.1665,4.1416,2.4059,2.5255,2.623,2.7971,2.8394,2.8313,2.8204,2.8001,2.7782,2.7782,2.6388,2.5068,2.481,2.3988,2.3267,2.2989,2.2694,2.2216,2.1558,2.0462,1.9419,1.8764,1.8667,1.8754,1.9023,1.8793,1.8754,1.9031,1.9047,1.9205,1.9602,1.9797,2.003,2.0355,2.0698,2.1252,2.1983,2.2524,2.3071,2.3601,2.391,2.413,2.413,2.413,2.413,2.4121,2.4914,2.5283,2.5355,2.6443,2.6883,2.6967,2.7195,2.7667,2.8413,3.0079,3.1436,3.2726,3.4702,3.7137,3.9229,3.8508,3.9925,4.2029,4.2616,4.2456,4.2302,4.3185,4.3414,4.3414,4.3414,4.3871,4.3716,4.0933,3.9454,3.791,3.5131,3.3437,3.2635,3.3139,3.3231,3.337,3.3787,3.3864,3.3983,3.423,3.4915,3.5775,3.6736,3.7069,3.7255,3.7255,3.7255,3.7374,3.7629,3.8195,3.8643,3.8945,3.9521,3.9849,3.9849,3.9849,4.008,4.0597,4.0638,4.0864,4.1416,4.1416,4.1416,4.1398,4.0864,4.0638,2.3866,2.4755,2.5605,2.7104,2.8021,2.8585,2.8558,2.8558,2.8531,2.8586,2.8273,2.8029,2.8029,2.6577,2.5416,2.5416,2.4642,2.3346,2.13,2.1502,2.1056,1.8979,1.8756,1.8756,1.8748,1.8756,1.8715,1.8667,1.8715,1.8906,1.923,1.9262,1.9677,2.0585,2.1008,2.1664,2.2699,2.3123,2.3583,2.4103,2.4121,2.4121,2.4174,2.4174,2.4227,2.4438,2.6694,2.769,2.7847,3.0003,3.0884,3.0884,3.0884,3.1547,3.243,3.2581,3.4298,3.6897,3.9211,4.0401,4.1048,4.1528,4.167,4.1842,4.2485,4.2693,4.2641,4.2672,4.2688,4.2703,4.2703,4.3213,4.2666,3.8668,3.8188,3.7524,3.336,3.2441,3.2441,3.2441,3.2441,3.2441,3.2441,3.2481,3.2768,3.3488,3.4319,3.5199,3.6203,3.7053,3.7519,3.7519,3.7519,3.784,3.8602,3.8656,3.8976,3.9724,3.9777,3.9777,3.9818,3.9818,3.9859,3.9936,3.9895,3.9895,3.9931,3.9849,3.989,3.9931,3.9854,3.9854,2.8356,2.7036,2.5838,2.8214,2.8772,2.8628,2.8248,2.7936,2.7916,2.8448,2.8477,2.8436,2.8436,2.877,2.906,2.906,2.8081,2.6934,2.5871,2.4678,2.297,2.0533,2.0603,2.0712,2.0252,2.0659,2.0311,1.8756,2.008,2.0449,1.9422,1.9633,2.0124,2.0719,2.1023,2.1573,2.2335,2.2724,2.3189,2.3657,2.3993,2.5019,2.6651,2.6651,2.7522,2.9067,2.9702,3.0014,3.0066,3.0676,3.0884,3.0884,3.0884,3.1242,3.2155,3.5372,3.7031,3.7757,3.829,3.9207,4.0067,3.9236,3.9581,4.0275,4.0424,4.0539,4.0582,4.1091,4.1585,4.192,4.192,4.2466,4.2116,3.856,3.7848,3.6967,3.3268,3.2441,3.2441,3.2441,3.2441,3.2441,3.2441,3.3014,3.3514,3.376,3.4987,3.6026,3.629,3.7053,3.7519,3.7519,3.7519,3.7608,3.784,3.7858,3.7908,3.8161,3.8161,3.857,3.9369,3.9407,4.0131,4.1671,4.0747,4.0585,4.1252,4.0298,4.0339,4.1233,3.9722,3.9474,2.6985,2.5926,2.501,2.6585,2.7116,2.7246,2.726,2.6764,2.6506,2.7292,2.6943,2.6545,2.6545,2.7671,2.8572,2.8572,2.882,2.8476,2.7081,2.6086,2.4561,2.2082,2.2807,2.3086,2.189,2.2292,2.2178,2.0975,2.2197,2.2244,2.0502,2.063,2.0662,2.0582,2.1714,2.2705,2.3449,2.4713,2.5487,2.5791,2.6045,2.6989,2.8573,2.8573,2.9447,3.0987,3.1877,3.229,3.2341,3.3266,3.3677,3.3677,3.3677,3.3779,3.4294,3.6528,3.7652,3.8022,3.7895,3.8564,3.9248,3.8454,3.8692,3.9255,3.9255,3.9255,3.9348,3.9686,4.0087,4.0474,4.0717,4.0906,4.0399,3.7817,3.6999,3.6011,3.3098,3.2441,3.2441,3.2441,3.2441,3.2561,3.2974,3.345,3.4044,3.4753,3.6005,3.6821,3.6821,3.7228,3.7644,3.7961,3.7997,3.8122,3.8482,3.8499,3.8553,3.8718,3.8721,3.9115,4.0034,3.9562,4.0111,4.1828,4.0603,4.0443,4.1557,4.0774,4.0793,4.1538,4.0307,4.0243,2.2159,2.2894,2.3798,2.3624,2.4251,2.5076,0.0,2.5166,2.4815,2.573,2.4891,2.3973,2.3977,2.5212,2.624,2.6129,2.8162,2.8932,2.6682,2.6705,2.6162,2.3949,2.5071,2.5325,2.3527,2.3859,2.4097,2.3921,2.4528,2.4122,2.2282,2.2187,2.1769,2.0892,2.3006,2.4555,2.5377,2.7628,2.8748,2.8797,2.8855,2.932,3.0165,3.0165,3.0678,3.1529,3.351,3.4377,3.4647,3.6674,3.7483,3.7412,3.7412,3.7241,3.7006,3.6386,3.6712,3.747,3.7517,3.7891,3.8328,3.8328,3.8374,3.8436,3.8436,3.8498,3.856,3.856,3.8606,3.8791,3.941,3.9008,3.8096,3.678,3.5973,3.4934,3.3031,3.2634,3.264,3.2735,3.268,3.2879,3.3807,3.4044,3.4635,3.6217,3.7261,3.7837,3.7875,3.7947,3.8309,3.9016,3.9128,3.938,3.9974,4.0028,4.0145,4.0495,4.0517,4.0776,4.1404,4.0202,4.0145,4.1413,4.0087,3.9992,4.1218,4.107,4.1107,4.1329,4.1181,4.1496,0.0,0.0,0.0,0.0,0.0,0.0,0.0,2.3619,2.4334,2.5843,2.5963,2.5663,2.5475,2.7399,2.8731,2.7895,2.9455,3.0465,2.9591,2.9268,2.8637,2.7208,2.6348,2.563,2.4942,2.5345,2.5131,2.3992,2.546,2.5911,2.4822,2.4749,2.4843,2.5042,2.5562,2.5888,2.603,2.6859,2.743,2.7902,2.8177,2.9551,3.1822,3.1822,3.2866,3.4696,3.5148,3.5587,3.614,3.7147,3.7213,3.6757,3.6757,3.5709,3.4299,3.4861,3.4902,3.4653,3.513,3.5658,3.6165,3.6165,3.6536,3.6938,3.6938,3.7385,3.7895,3.7895,3.8266,3.8699,3.8822,3.791,3.6779,3.6077,3.5419,3.4687,3.375,3.3546,3.3728,3.4343,3.4004,3.3807,3.4635,3.5397,3.6178,3.7151,3.8736,3.9957,4.017,4.0726,4.1307,4.1774,4.1814,4.1563,4.1005,4.0948,4.0966,4.1057,4.1037,4.1504,4.2555,4.1666,4.1715,4.2899,4.1039,4.0443,4.123,4.0157,4.0452,4.1963,4.0905,4.1116,0.0,0.0,0.0,0.0,0.0,0.0,0.0,0.0,0.0,0.0,0.0,2.2368,2.3093,0.0,2.6773,2.6991,2.8702,2.9997,2.9873,2.968,2.9347,2.8735,2.765,2.6861,2.6653,2.6896,2.6821,2.6121,2.7266,2.7461,2.6221,2.6151,2.6043,2.5877,2.6871,2.7618,2.8084,2.9307,3.0181,3.0624,3.0824,3.1783,3.3422,3.3422,3.4207,3.557,3.557,3.5755,3.6053,3.6053,3.5683,3.5072,3.5008,3.4622,3.4193,3.4632,3.4923,3.5229,3.5476,3.5795,3.6044,3.6044,3.6275,3.6553,3.6553,3.6799,3.7123,3.7123,3.7354,3.7817,3.8669,3.7208,3.5703,3.6299,3.5045,3.3609,3.3327,3.3233,3.3359,3.3724,3.3829,3.4115,3.4925,3.5437,3.5927,3.6304,3.7188,3.7855,3.7968,3.8808,3.9732,4.0616,4.1196,4.1691,4.2126,4.2203,4.2052,4.171,4.1743,4.2294,4.3414,4.2439,4.245,4.3624,4.2052,4.1662,4.2562,4.139,4.1322,4.2246,4.0785,4.0539,0.0,0.0,0.0,0.0,0.0,0.0,0.0,0.0,0.0,0.0,0.0,0.0,0.0,0.0,0.0,2.5267,2.724,2.8786,2.9214,2.9214,2.909,2.897,2.8449,2.8018,2.7937,2.8153,2.831,2.8428,2.8873,2.8614,2.7425,2.7404,2.7111,2.648,2.8207,2.9502,3.038,3.2062,3.3128,3.351,3.3587,0.0,3.44,3.44,3.4645,3.4972,3.4972,3.5001,3.4987,3.4475,3.4002,3.3593,3.2963,3.3413,3.4378,3.4635,3.5382,3.6167,3.6167,3.6337,3.6553,3.6553,3.6553,3.6598,3.6851,3.7074,0.0,3.7119,3.7298,3.7737,3.8852,3.6931,3.507,3.6583,3.4745,3.2746,3.2892,3.2937,3.2964,3.311,3.3543,3.4133,3.5012,3.5539,3.5778,3.5706,3.5887,3.6195,3.6573,3.7367,3.8441,3.9786,4.0691,4.1702,4.2996,4.3247,4.3023,4.2385,4.2535,4.315,4.4175,4.2956,4.2715,4.364,4.2377,4.2126,4.2987,4.2119,4.1802,4.1891,4.0122,3.9257,0.0,0.0,0.0,0.0,0.0,0.0,0.0,0.0,0.0,0.0,0.0,0.0,0.0,0.0,0.0,0.0,2.5895,2.7767,2.8867,2.8594,2.8125,2.769,2.8046,2.822,2.7864,2.8234,2.8774,2.9343,2.9141,2.9107,2.9413,2.9396,0.0,0.0,0.0,3.1327,3.2003,3.2245,3.2612,3.3142,3.3465,3.3675,3.3746,3.3746,3.3377,3.2796,3.2796,3.2955,3.317,3.3099,3.3296,3.3405,3.1189,3.1313,3.2853,3.4136,3.4714,3.4818,3.4818,0.0,0.0,3.6553,3.6553,3.6777,3.7922,3.8936,3.9564,3.9251,3.9983,4.0623,3.966,3.7171,3.5161,3.607,3.4524,3.3042,3.3712,3.3881,3.4095,3.4749,3.4419,3.4252,3.5072,3.6799,3.796,3.7483,3.842,3.9766,4.1531,4.1959,4.2493,4.3583,4.3833,0.0,4.3055,4.3511,4.3557,4.2922,4.3449,4.4207,4.5265,4.3519,4.2586,4.2715,4.0906,3.9811,3.9635,3.9498,3.9734,4.0252,3.7739,3.6474,0.0,0.0,0.0,0.0,0.0,0.0,0.0,0.0,0.0,0.0,0.0,0.0,0.0,0.0,0.0,0.0,2.4861,2.6771,2.8115,2.8079,2.8255,2.9014,2.834,2.7741,2.7587,2.7901,2.8096,2.7947,2.8436,2.8825,2.9067,2.9404,2.9917,3.0466,3.0642,3.0983,3.1596,3.2098,3.2477,3.2714,3.3329,3.3633,3.3633,3.3633,3.3095,3.2129,3.2129,3.2171,3.2243,3.1488,3.1261,3.1473,0.0,0.0,0.0,0.0,3.4586,3.4586,3.4586,3.4957,3.5409,3.5409,3.5905,3.6642,3.7164,3.8438,3.9672,3.9429,3.9713,4.0413,4.1525,3.9382,3.7273,3.8749,3.6804,3.4769,3.5072,3.515,3.5241,3.5583,3.5754,0.0,3.5642,3.6413,3.6934,3.6732,3.7144,3.7943,3.914,3.9858,4.0748,4.205,4.2709,4.3121,4.3278,4.3537,0.0,0.0,0.0,4.4576,4.4486,4.4033,0.0,0.0,0.0,3.9106,3.8964,3.7886,0.0,0.0,3.382,3.3108,0.0,0.0,0.0,0.0,0.0,0.0,0.0,0.0,0.0,0.0,0.0,0.0,0.0,0.0,0.0,0.0,2.3289,2.4782,2.5946,2.6941,2.7796,2.8572,2.8151,2.7697,2.7292,2.756,2.77,2.741,2.8117,2.8516,2.8516,2.9145,2.9678,3.006,3.0323,3.0704,3.1159,3.1828,3.22,3.2314,3.254,3.2624,3.2624,3.2624,3.2171,3.1359,3.1359,3.1486,3.1667,3.0678,3.0318,3.0465,3.1897,3.2441,3.2564,3.3633,3.4029,3.4029,3.4029,3.5514,3.7387,3.7387,3.6998,3.6732,3.7788,3.9303,4.0621,4.0501,4.0732,4.1205,4.2145,4.0338,3.8564,3.975,3.7763,3.564,3.5888,3.5979,3.5979,3.5979,3.6476,3.6657,3.5809,3.5658,3.5722,3.5893,3.5893,3.6391,3.7921,3.8747,3.9887,4.1672,4.2513,4.3237,4.3896,4.4156,4.4316,4.4392,4.4777,4.4568,4.361,4.403,4.3319,4.1232,3.9319,3.8112,0.0,0.0,0.0,0.0,0.0,0.0,0.0,0.0,0.0,0.0,0.0,0.0,0.0,0.0,0.0,0.0,0.0,0.0,0.0,0.0,0.0,0.0,0.0,0.0,2.1715,2.4726,2.6246,2.4671,2.7111,2.8375,2.6962,2.7444,2.8091,2.8846,2.8571,2.8388,2.8388,2.9012,2.9359,2.9387,3.0345,3.1005,3.1302,3.1316,3.1516,3.1872,3.0622,3.0068,3.0068,3.0068,3.0039,3.0011,3.0011,3.0483,3.133,3.13,3.1271,3.1351,3.2137,3.2441,3.2457,3.2527,3.2503,3.2503,3.2503,3.7734,4.4412,4.4412,4.0862,3.7208,4.0876,4.2834,4.374,4.3483,4.4433,4.4514,4.047,3.8855,3.8089,3.7275,3.5828,3.4874,3.577,3.5979,3.5979,3.5979,3.6198,3.6017,3.4994,3.4844,3.5033,3.5676,3.5667,0.0,4.0606,4.1097,4.2093,4.4708,4.4979,4.5034,4.5024,4.5753,4.585,4.5103,4.484,4.4247,4.3188,4.3195,4.2213,4.0128,3.8053,3.6121,3.4341,0.0,0.0,0.0,0.0,0.0,0.0,0.0,0.0,0.0,0.0,0.0,0.0,0.0,0.0,0.0,0.0,0.0,0.0,0.0,0.0,0.0,0.0,0.0,0.0,2.3358,2.4319,2.4899,2.649,2.6932,2.5314,2.5663,2.5928,2.5774,2.6509,2.6775,2.6352,2.7758,2.8588,2.8588,2.9848,3.022,2.9608,3.1258,3.1583,3.0565,3.0153,2.9954,2.9954,2.9954,2.9954,2.9995,3.1095,3.1777,3.2057,3.2057,3.467,3.8652,3.8918,3.9032,3.9032,3.9032,3.9032,3.9184,4.0221,4.238,4.4711,4.4711,4.347,4.22,4.3463,4.4117,4.4457,4.4324,4.4676,4.4523,4.2293,4.0782,3.958,3.8575,3.7033,3.5857,3.6146,3.6208,3.6208,3.6208,3.655,3.6743,3.6421,3.6362,3.6567,3.7208,3.7288,3.7855,3.9565,4.1017,4.2361,4.3682,4.5051,4.5896,4.5896,4.609,4.6122,4.5896,4.5134,4.4254,4.3172,4.2494,4.0811,3.8029,3.7281,3.5444,3.2388,0.0,0.0,0.0,0.0,0.0,0.0,0.0,0.0,0.0,0.0,0.0,0.0,0.0,0.0,0.0,0.0,0.0,0.0,0.0,0.0,0.0,0.0,0.0,0.0,0.0,0.0,2.4712,2.6083,0.0,2.4082,2.4091,2.4222,2.4185,2.4973,2.5281,2.4885,2.7078,2.827,2.8047,2.9538,3.0545,3.0985,3.2117,3.174,2.9954,2.9954,2.9954,3.0021,3.3015,3.307,3.0894,3.2017,3.2441,3.2523,3.3679,3.5422,3.7595,3.9679,4.0534,4.0534,4.0534,4.0817,4.1344,4.2355,4.2702,4.2702,4.2702,4.2702,4.2702,4.2702,4.0835,3.8724,3.8724,4.1611,4.4222,4.2121,4.0519,3.9116,3.7929,3.672,3.5972,3.6261,3.6501,3.6211,3.4884,3.4882,3.5185,3.53,3.5327,3.5601,3.6388,3.6702,3.741,3.8923,4.079,4.2401,4.3562,4.5213,4.6275,4.6275,4.6275,4.6111,4.576,4.4722,4.3529,4.2097,4.0694,3.8878,3.6567,3.5418,3.3539,0.0,0.0,0.0,0.0,0.0,0.0,0.0,0.0,0.0,0.0,0.0,0.0,0.0,0.0,0.0,0.0,0.0,0.0,0.0,0.0,0.0,0.0,0.0,0.0,0.0,0.0,0.0,2.3744,2.5578,0.0,0.0,0.0,0.0,2.3948,2.3939,2.3863,2.3923,2.679,2.8179,2.7593,2.937,3.1648,3.4395,3.3641,3.2245,3.0303,3.0303,3.0303,3.0584,3.8674,3.8918,3.2943,3.2943,3.2943,3.3196,3.5986,3.3679,2.8901,3.4494,3.6663,3.6663,3.6663,3.7445,3.8503,3.8503,3.8503,3.8503,3.8503,3.8503,3.8513,3.8291,3.3358,0.0,0.0,3.6115,4.3819,3.9827,3.8023,3.683,3.5228,3.4846,3.5058,3.5937,3.6492,3.576,3.207,3.1377,3.1526,3.1919,0.0,3.2394,3.3429,3.4178,3.5746,3.8684,4.052,4.2307,4.4348,4.5517,4.6181,4.6181,4.6181,4.5736,4.4605,4.3529,4.2003,3.9965,3.7916,3.6403,3.5543,3.2572,0.0,0.0,0.0,0.0,0.0,0.0,0.0,0.0,0.0,0.0,0.0,0.0,0.0,0.0,0.0,0.0,0.0,0.0,0.0,0.0,0.0,0.0,0.0,0.0,0.0,0.0,1.7986,1.9476,1.861,2.1273,2.2421,0.0,0.0,0.0,0.0,0.0,0.0,2.1444,2.3097,2.4237,2.4749,2.8364,2.9124,2.6647,3.2909,3.5812,3.5305,3.5305,3.5305,3.5448,4.0205,4.1459,3.9845,3.9845,3.9845,3.9693,3.7867,3.3564,2.8243,2.9735,3.033,3.033,3.033,3.053,3.0826,3.0826,3.0826,3.0826,3.0826,3.0826,3.0295,2.7491,0.0,0.0,0.0,0.0,4.3224,3.6707,3.5454,3.5448,3.3667,3.2811,3.2449,3.2664,3.2832,3.2319,3.0156,3.008,3.0397,3.0599,3.1348,0.0,3.2796,3.4358,3.5692,3.6283,3.877,4.0933,4.226,4.4021,4.5096,4.5096,4.5096,4.4348,4.2517,4.0699,3.9109,3.7772,3.5912,3.4058,3.2313,0.0,0.0,0.0,0.0,0.0,0.0,0.0,0.0,0.0,0.0,0.0,0.0,0.0,0.0,0.0,0.0,0.0,0.0,0.0,0.0,0.0,0.0,0.0,0.0,0.0,0.0,0.0,1.708,1.8143,1.7387,1.8991,1.9534,0.0,0.0,0.0,0.0,0.0,0.0,0.0,0.0,0.0,2.3924,2.5511,2.6626,2.7301,3.382,3.7143,3.7143,3.7143,3.7143,3.7172,3.9185,4.0091,4.0091,4.0091,3.9191,3.7393,3.2595,2.8628,2.5519,0.0,0.0,0.0,0.0,2.6559,2.6559,2.6559,2.6092,2.5519,2.5519,0.0,0.0,0.0,0.0,0.0,0.0,0.0,3.5604,3.4038,3.4123,3.4114,3.2239,3.1886,3.1818,3.12,3.0021,2.8835,2.7956,2.7569,2.7638,2.8456,2.9118,0.0,0.0,0.0,3.4175,3.5395,3.7383,3.9062,4.0138,4.1676,4.2658,4.2658,4.2664,4.1775,3.9689,3.8454,3.717,3.5818,3.3869,3.2188,0.0,0.0,0.0,0.0,0.0,0.0,0.0,0.0,0.0,0.0,0.0,0.0,0.0,0.0,0.0,0.0,0.0,0.0,0.0,0.0,0.0,0.0,0.0,0.0,0.0,0.0,0.0,0.0,0.0,1.8829,1.7466,0.0,0.0,0.0,0.0,0.0,0.0,0.0,0.0,0.0,0.0,0.0,0.0,0.0,2.3754,3.0558,3.3662,3.5139,3.5017,3.5017,3.55,3.6458,3.6922,3.7143,3.7063,3.5621,0.0,3.0151,2.4104,0.0,0.0,0.0,0.0,0.0,0.0,0.0,0.0,0.0,0.0,0.0,0.0,0.0,0.0,0.0,0.0,0.0,0.0,0.0,0.0,0.0,0.0,3.2523,3.1057,3.1551,3.1924,3.013,2.7751,2.588,2.5683,2.4732,2.44,0.0,0.0,0.0,0.0,0.0,0.0,3.4789,3.6076,3.7144,3.8173,3.9222,3.9825,3.9825,3.9717,3.8808,3.6863,3.6463,3.5557,3.3845,3.1793,0.0,0.0,0.0,0.0,0.0,0.0,0.0,0.0,0.0,0.0,0.0,0.0,0.0,0.0,0.0,0.0,0.0,0.0,0.0,0.0,0.0,0.0,0.0,0.0,0.0,0.0,0.0,0.0,0.0,0.0,0.0,0.0,0.0,0.0,0.0,0.0,0.0,0.0,0.0,0.0,0.0,0.0,0.0,0.0,0.0,0.0,0.0,0.0,0.0,0.0,2.396,2.708,3.2883,3.5813,3.7143,3.664,2.7804,2.3969,2.37,1.9447,0.0,0.0,0.0,0.0,0.0,0.0,0.0,0.0,0.0,0.0,0.0,0.0,0.0,0.0,0.0,0.0,0.0,0.0,0.0,0.0,0.0,0.0,2.927,3.044,3.0885,3.0075,2.6476,0.0,0.0,0.0,0.0,0.0,0.0,0.0,0.0,0.0,0.0,0.0,3.1746,3.4104,3.6043,3.7097,3.8126,3.8758,3.8758,3.7962,3.6957,3.5715,3.4032,3.2675,0.0,0.0,0.0,0.0,0.0,0.0,0.0,0.0,0.0,0.0,0.0,0.0,0.0,0.0,0.0,0.0,0.0,0.0,0.0,0.0,0.0,0.0,0.0,0.0,0.0,0.0,0.0,0.0,0.0,0.0,0.0,0.0,0.0,0.0,0.0,0.0,0.0,0.0,0.0,0.0,0.0,0.0,0.0,0.0,0.0,0.0,0.0,0.0,0.0,0.0,0.0,0.0,0.0,0.0,0.0,0.0,0.0,0.0,2.1954,1.9073,0.0,0.0,0.0,0.0,0.0,0.0,0.0,0.0,0.0,0.0,0.0,0.0,0.0,0.0,0.0,0.0,0.0,0.0,0.0,0.0,0.0,0.0,0.0,0.0,0.0,0.0,0.0,0.0,0.0,0.0,0.0,0.0,0.0,0.0,0.0,0.0,0.0,0.0,0.0,0.0,3.0948,3.3165,3.4966,3.6019,3.705,3.7682,3.7682,3.6721,3.5742,3.4832,3.2814,0.0,0.0,0.0,0.0,0.0,0.0,0.0,0.0,0.0,0.0,0.0,0.0,0.0,0.0,0.0,0.0,0.0,0.0,0.0,0.0,0.0,0.0,0.0,0.0,0.0,0.0,0.0,0.0,0.0,0.0,0.0,0.0,0.0,0.0,0.0,0.0,0.0,0.0,0.0,0.0,0.0,0.0,0.0,0.0,0.0,0.0,0.0,0.0,0.0,0.0,0.0,0.0,0.0,0.0,0.0,0.0,0.0,0.0,0.0,1.7432,1.5762,0.0,0.0,0.0,0.0,0.0,0.0,0.0,0.0,0.0,0.0,0.0,0.0,0.0,0.0,0.0,0.0,0.0,0.0,0.0,0.0,0.0,0.0,0.0,0.0,0.0,0.0,0.0,0.0,0.0,0.0,0.0,0.0,0.0,0.0,0.0,0.0,0.0,0.0,0.0,0.0,3.0265,3.2504,3.4126,3.4943,3.616,3.684,3.6629,3.5645,3.4619,3.361,3.1793,0.0,0.0,0.0,0.0,0.0,0.0,0.0,0.0,0.0,0.0,0.0,0.0,0.0,0.0,0.0,0.0,0.0,0.0,0.0,0.0,0.0,0.0,0.0,0.0,0.0,0.0,0.0,0.0,0.0,0.0,0.0,0.0,0.0,0.0,0.0,0.0,0.0,0.0,0.0,0.0,0.0,0.0,0.0,0.0,0.0,0.0,0.0,0.0,0.0,0.0,0.0,0.0,0.0,0.0,0.0,0.0,0.0,0.0,0.0,0.0,0.0,0.0,0.0,0.0,0.0,0.0,0.0,0.0,0.0,0.0,0.0,0.0,0.0,0.0,0.0,0.0,0.0,0.0,0.0,0.0,0.0,0.0,0.0,0.0,0.0,0.0,0.0,0.0,0.0,0.0,0.0,0.0,0.0,0.0,0.0,0.0,0.0,0.0,0.0,0.0,0.0,2.8193,3.161,3.3869,3.3962,3.5739,3.6534,3.5599,3.4569,3.3214,3.149,0.0,0.0,0.0,0.0,0.0,0.0,0.0,0.0,0.0,0.0,0.0,0.0,0.0,0.0,0.0,0.0,0.0,0.0,0.0,0.0,0.0,0.0,0.0,0.0,0.0,0.0,0.0,0.0,0.0,0.0,0.0,0.0,0.0,0.0,0.0,0.0,0.0,0.0,0.0,0.0,0.0,0.0,0.0,0.0,0.0,0.0,0.0,0.0,0.0,0.0,0.0,0.0,0.0,0.0,0.0,0.0,0.0,0.0,0.0,0.0,0.0,0.0,0.0,0.0,0.0,0.0,0.0,0.0,0.0,0.0,0.0,0.0,0.0,0.0,0.0,0.0,0.0,0.0,0.0,0.0,0.0,0.0,0.0,0.0,0.0,0.0,0.0,0.0,0.0,0.0,0.0,0.0,0.0,0.0,0.0,0.0,0.0,0.0,0.0,0.0,0.0,0.0,2.7855,3.1081,3.3353,3.4011,3.5768,3.6587,3.5682,3.4502,3.3072,3.133,0.0,0.0,0.0,0.0,0.0,0.0,0.0,0.0,0.0,0.0,0.0,0.0,0.0,0.0,0.0,0.0,0.0,0.0,0.0,0.0,0.0,0.0,0.0,0.0,0.0,0.0,0.0,0.0,0.0,0.0,0.0,0.0,0.0,0.0,0.0,0.0,0.0,0.0,0.0,0.0,0.0,0.0,0.0,0.0,0.0,0.0,0.0,0.0,0.0,0.0,0.0,0.0,0.0,0.0,0.0,0.0,0.0,0.0,0.0,0.0,0.0,0.0,0.0,0.0,0.0,0.0,0.0,0.0,0.0,0.0,0.0,0.0,0.0,0.0,0.0,0.0,0.0,0.0,0.0,0.0,0.0,0.0,0.0,0.0,0.0,0.0,0.0,0.0,0.0,0.0,0.0,0.0,0.0,0.0,0.0,0.0,0.0,0.0,0.0,0.0,0.0,0.0,2.7901,3.061,3.2757,3.408,3.5375,3.5865,3.5235,3.4128,3.2598,3.053,0.0,0.0,0.0,0.0,0.0,0.0,0.0,0.0,0.0,0.0,0.0,0.0,0.0,0.0,0.0,0.0,0.0,0.0,0.0,0.0,0.0,0.0,0.0,0.0,0.0,0.0,0.0,0.0,0.0,0.0,0.0,0.0,0.0,0.0,0.0,0.0,0.0,0.0,0.0,0.0,0.0,0.0,0.0,0.0,0.0,0.0,0.0,0.0,0.0,0.0,0.0,0.0,0.0,0.0,0.0,0.0,0.0,0.0,0.0,0.0,0.0,0.0,0.0,0.0,0.0,0.0,0.0,0.0,0.0,0.0,0.0,0.0,0.0,0.0,0.0,0.0,0.0,0.0,0.0,0.0,0.0,0.0,0.0,0.0,0.0,0.0,0.0,0.0,0.0,0.0,0.0,0.0,0.0,0.0,0.0,0.0,0.0,0.0,0.0,0.0,0.0,0.0,2.8131,3.0173,3.2059,3.401,3.4223,3.4128,3.3869,3.3116,3.138,0.0,0.0,0.0,0.0,0.0,0.0,0.0,0.0,0.0,0.0,0.0,0.0,0.0,0.0,0.0,0.0,0.0,0.0,0.0,0.0,0.0,0.0,0.0,0.0,0.0,0.0,0.0,0.0,0.0,0.0,0.0,0.0,0.0,0.0,0.0,0.0,0.0,0.0,0.0,0.0,0.0,0.0,0.0,0.0,0.0,0.0,0.0,0.0,0.0,0.0,0.0,0.0,0.0,0.0,0.0,0.0,0.0,0.0,0.0,0.0,0.0,0.0,0.0,0.0,0.0,0.0,0.0,0.0,0.0,0.0,0.0,0.0,0.0,0.0,0.0,0.0,0.0,0.0,0.0,0.0,0.0,0.0,0.0,0.0,0.0,0.0,0.0,0.0,0.0,0.0,0.0,0.0,0.0,0.0,0.0,0.0,0.0,0.0,0.0,0.0,0.0,0.0,0.0,2.7126,2.9253,3.1593,3.4448,3.4574,3.4433,3.4387,3.3322,3.1377,2.8384,0.0,0.0,0.0,0.0,0.0,0.0,0.0,0.0,0.0,0.0,0.0,0.0,0.0,0.0,0.0,0.0,0.0,0.0,0.0,0.0,0.0,0.0,0.0,0.0,0.0,0.0,0.0,0.0,0.0,0.0,0.0,0.0,0.0,0.0,0.0,0.0,0.0,0.0,0.0,0.0,0.0,0.0,0.0,0.0,0.0,0.0,0.0,0.0,0.0,0.0,0.0,0.0,0.0,0.0,0.0,0.0,0.0,0.0,0.0,0.0,0.0,0.0,0.0,0.0,0.0,0.0,0.0,0.0,0.0,0.0,0.0,0.0,0.0,0.0,0.0,0.0,0.0,0.0,0.0,0.0,0.0,0.0,0.0,0.0,0.0,0.0,0.0,0.0,0.0,0.0,0.0,0.0,0.0,0.0,0.0,0.0,0.0,0.0,0.0,0.0,0.0,0.0,0.0,2.8639,3.09,3.4073,3.3891,3.3706,3.3999,3.3021,3.1207,2.8494,0.0,0.0,0.0,0.0,0.0,0.0,0.0,0.0,0.0,0.0,0.0,0.0,0.0,0.0,0.0,0.0,0.0,0.0,0.0,0.0,0.0,0.0,0.0,0.0,0.0,0.0,0.0,0.0,0.0,0.0,0.0,0.0,0.0,0.0,0.0,0.0,0.0,0.0,0.0,0.0,0.0,0.0,0.0,0.0,0.0,0.0,0.0,0.0,0.0,0.0,0.0,0.0,0.0,0.0,0.0,0.0,0.0,0.0,0.0,0.0,0.0,0.0,0.0,0.0,0.0,0.0,0.0,0.0,0.0,0.0,0.0,0.0,0.0,0.0,0.0,0.0,0.0,0.0,0.0,0.0,0.0,0.0,0.0,0.0,0.0,0.0,0.0,0.0,0.0,0.0,0.0,0.0,0.0,0.0,0.0,0.0,0.0,0.0,0.0,0.0,0.0,0.0,0.0,2.826,3.0104,3.313,3.2521,3.2218,3.3016,3.225,3.0855,2.8704,2.6652,0.0,0.0,0.0,0.0,0.0,0.0,0.0,0.0,0.0,0.0,0.0,0.0,0.0,0.0,0.0,0.0,0.0,0.0,0.0,0.0,0.0,0.0,0.0,0.0,0.0,0.0,0.0,0.0,0.0,0.0,0.0,0.0,0.0,0.0,0.0,0.0,0.0,0.0,0.0,0.0,0.0,0.0,0.0,0.0,0.0,0.0,0.0,0.0,0.0,0.0,0.0,0.0,0.0,0.0,0.0,0.0,0.0,0.0,0.0,0.0,0.0,0.0,0.0,0.0,0.0,0.0,0.0,0.0,0.0,0.0,0.0,0.0,0.0,0.0,0.0,0.0,0.0,0.0,0.0,0.0,0.0,0.0,0.0,0.0,0.0,0.0,0.0,0.0,0.0,0.0,0.0,0.0,0.0,0.0,0.0,0.0,0.0,0.0,0.0,0.0,0.0,0.0,2.7765,3.0183,3.3414,3.271,3.2385,3.3255,3.1618,2.9982,2.8656,2.5829,0.0,0.0,0.0,0.0,0.0,0.0,0.0,0.0,0.0,0.0,0.0,0.0,0.0,0.0,0.0,0.0,0.0,0.0,0.0,0.0,0.0,0.0,0.0,0.0,0.0,0.0,0.0,0.0,0.0,0.0,0.0,0.0,0.0,0.0,0.0,0.0,0.0,0.0,0.0,0.0,0.0,0.0,0.0,0.0,0.0,0.0,0.0,0.0,0.0,0.0,0.0,0.0,0.0,0.0,0.0,0.0,0.0,0.0,0.0,0.0,0.0,0.0,0.0,0.0,0.0,0.0,0.0,0.0,0.0,0.0,0.0,0.0,0.0,0.0,0.0,0.0,0.0,0.0,0.0,0.0,0.0,0.0,0.0,0.0,0.0,0.0,0.0,0.0,0.0,0.0,0.0,0.0,0.0,0.0,0.0,0.0,0.0,0.0,0.0,0.0,0.0,0.0,2.5363,2.8156,3.1917,3.2189,3.2251,3.2795,3.1276,2.9676,2.8118,2.4479,0.0,0.0,0.0,0.0,0.0,0.0,0.0,0.0,0.0,0.0,0.0,0.0,0.0,0.0,0.0,0.0,0.0,0.0,0.0,0.0,0.0,0.0,0.0,0.0,0.0,0.0,0.0,0.0,0.0,0.0,0.0,0.0,0.0,0.0,0.0,0.0,0.0,0.0,0.0,0.0,0.0,0.0,0.0,0.0,0.0,0.0,0.0,0.0,0.0,0.0,0.0,0.0,0.0,0.0,0.0,0.0,0.0,0.0,0.0,0.0,0.0,0.0,0.0,0.0,0.0,0.0,0.0,0.0,0.0,0.0,0.0,0.0,0.0,0.0,0.0,0.0,0.0,0.0,0.0,0.0,0.0,0.0,0.0,0.0,0.0,0.0,0.0,0.0,0.0,0.0,0.0,0.0,0.0,0.0,0.0,0.0,0.0,0.0,0.0,0.0,0.0,0.0,0.0,2.5648,2.9621,3.1241,3.2021,3.1875,3.0871,2.9396,2.7281,0.0,0.0,0.0,0.0,0.0,0.0,0.0,0.0,0.0,0.0,0.0,0.0,0.0,0.0,0.0,0.0,0.0,0.0,0.0,0.0,0.0,0.0,0.0,0.0,0.0,0.0,0.0,0.0,0.0,0.0,0.0,0.0,0.0,0.0,0.0,0.0,0.0,0.0,0.0,0.0,0.0,0.0,0.0,0.0,0.0,0.0,0.0,0.0,0.0,0.0,0.0,0.0,0.0,0.0,0.0,0.0,0.0,0.0,0.0,0.0,0.0,0.0,0.0,0.0,0.0,0.0,0.0,0.0,0.0,0.0,0.0,0.0,0.0,0.0,0.0,0.0,0.0,0.0,0.0,0.0,0.0,0.0,0.0,0.0,0.0,0.0,0.0,0.0,0.0,0.0,0.0,0.0,0.0,0.0,0.0,0.0,0.0,0.0,0.0,0.0,0.0,0.0,0.0,0.0,2.5063,2.7641,3.0403,3.1729,3.0822,2.9792,2.8254,2.6078,0.0,0.0,0.0,0.0,0.0,0.0,0.0,0.0,0.0,0.0,0.0,0.0,0.0,0.0]}],[{"header":{"parameterUnit":"kt","parameterCategory":2,"dx":1,"dy":1,"la1":29.285339999999998,"la2":30.599998999999997,"lo1":-89.70041500000002,"lo2":-87.6738589999976,"nx":112,"ny":82,"refTime":"2022-10-01T18:00:00:Z","depth":0,"parameterNumber":2,"parameterNumberName":"V-component_of_WINDS"},"data":[8.6283,7.9854,7.2109,6.7791,6.4665,6.1014,5.4819,5.2338,5.1168,5.083,4.8386,4.6469,4.7033,4.6168,0.0,0.0,0.0,0.0,0.0,3.9473,4.1318,4.343,5.042,0.0,0.0,6.4703,7.1621,8.0161,8.3771,8.8959,9.6803,10.0946,10.4227,10.6649,10.8225,10.9125,10.9233,10.9317,10.9417,10.946,11.0627,11.1548,11.2222,11.4419,11.5745,11.6426,11.8088,11.8846,11.8884,11.949,11.9755,11.975,11.9645,11.9927,12.0303,11.9781,11.9655,11.9556,11.8277,11.6949,11.5178,11.0864,10.9221,10.9284,11.1652,11.0712,10.887,10.887,10.887,10.887,10.887,10.887,10.9472,11.1802,11.2366,11.2366,11.2366,11.2366,11.2366,11.2366,11.5825,11.8766,11.8766,11.8766,11.73,11.3043,11.2366,11.2366,11.2366,11.2366,11.2366,11.2366,11.2366,10.872,9.969,9.8938,9.8938,9.8938,9.8938,9.8938,9.8938,9.8938,9.8938,9.8938,9.8938,9.8938,9.8938,9.8938,9.8938,9.8938,9.8938,9.8938,7.3506,6.6658,5.9773,5.685,5.8157,5.8679,5.3011,5.0153,4.8721,4.8721,4.692,4.5382,4.5382,0.0,0.0,0.0,0.0,0.0,0.0,3.9883,4.2518,4.583,5.4552,6.1169,6.3425,6.9548,7.6164,8.2862,8.6981,9.2539,10.0314,10.3421,10.582,10.7584,10.864,10.9271,10.9438,11.0048,11.0347,11.0385,11.2154,11.3321,11.3965,11.6199,11.752,11.8126,11.9263,11.9755,11.9755,11.9755,11.9755,11.975,11.9639,11.9613,11.9619,11.9694,11.9755,11.9755,11.9755,11.9755,11.9035,11.4608,11.2869,11.2089,10.9629,10.887,10.887,10.887,10.887,10.887,10.887,10.887,10.887,10.887,10.887,10.887,10.887,10.887,10.887,10.887,11.2404,11.5411,11.5411,11.5411,11.3908,10.9509,10.887,10.887,10.887,10.887,10.887,10.887,10.887,10.6163,9.9502,9.8938,9.8938,9.8938,9.8938,9.8938,9.8938,9.8938,9.8938,9.8938,9.8938,9.8938,9.8938,9.8938,9.8938,9.8938,9.8938,9.8938,6.1996,5.6248,5.3992,5.8048,5.5446,5.1457,4.9773,4.8085,4.692,4.6958,4.692,4.692,4.6958,0.0,0.0,0.0,0.0,0.0,0.0,4.2897,4.6401,4.9785,5.723,6.467,7.1406,7.2196,7.6407,8.6327,8.8631,9.3873,10.3737,10.5974,10.7681,10.9379,10.9422,10.9548,10.9836,11.1313,11.2109,11.2185,11.3813,11.548,11.7146,11.7184,11.8088,11.9679,11.9717,11.9755,11.9755,11.9755,11.9755,11.9755,11.9755,11.9755,11.9755,11.9755,11.9755,11.9755,11.9755,11.9755,11.9755,11.9755,11.9603,11.8093,11.1013,10.887,10.887,10.887,10.887,10.887,10.887,10.887,10.887,10.887,10.887,10.887,10.887,10.887,10.887,10.887,10.887,10.887,10.887,10.887,10.887,10.887,10.887,10.887,10.887,10.887,10.887,10.887,10.8645,10.5938,9.9464,9.8938,9.8938,9.8938,9.8938,9.8938,9.8938,9.8938,9.8938,9.8938,9.8938,9.8938,9.8938,9.8938,9.8938,9.8938,9.8938,9.8938,5.7865,5.5835,5.497,5.1356,5.1198,5.0856,4.6807,4.4671,4.3847,4.4968,4.4295,0.0,0.0,0.0,4.4931,0.0,0.0,4.8304,4.38,5.2255,6.0188,6.3682,6.611,7.0507,7.8329,8.2409,8.7692,9.5308,9.4145,9.6926,10.5712,10.6638,10.7681,10.9379,10.9422,10.9548,10.9836,11.0257,11.1048,11.2147,11.2639,11.3737,11.5442,11.6654,11.7482,11.7975,11.9225,11.9755,11.9755,11.9755,11.9755,11.9755,11.9755,11.9755,11.9755,11.9755,11.9755,11.9755,11.9755,11.9755,11.9755,11.9755,11.6464,11.2074,10.9612,10.887,10.887,10.887,10.887,10.887,10.887,10.887,10.887,10.887,10.887,10.887,10.887,10.887,10.887,10.887,10.887,10.887,10.887,10.887,10.887,10.887,10.887,10.887,10.887,10.887,10.887,10.887,10.4547,10.0938,9.9088,9.8938,9.8938,9.8938,9.8938,9.8938,9.8938,9.8938,9.8938,9.8938,9.8938,9.8938,9.8938,9.8938,9.8938,9.8938,9.8938,9.8938,5.4364,5.2075,5.0796,4.6961,4.7931,4.9097,4.6206,4.4859,4.4483,4.5382,0.0,0.0,0.0,0.0,0.0,0.0,5.0939,5.3834,5.0232,5.9402,6.7782,7.1294,7.6643,8.1092,8.3763,8.8622,9.3772,9.9019,9.8397,10.0428,10.6655,10.7712,10.86,10.9562,10.9605,10.967,10.984,11.048,11.1276,11.2147,11.2866,11.3737,11.4722,11.5707,11.654,11.726,11.824,11.9073,11.9755,11.9755,11.9755,11.9755,11.9755,11.9755,11.9755,11.9755,11.9755,11.9755,11.9755,11.9755,11.9755,11.9755,11.7146,11.3394,11.0214,10.9062,10.887,10.887,10.887,10.887,10.887,10.887,10.887,10.887,10.887,10.887,10.887,10.887,10.887,10.887,10.887,10.887,10.887,10.887,10.887,10.887,10.887,10.887,10.887,10.887,10.887,10.887,10.2893,9.8938,9.8938,9.8938,9.8938,9.8938,9.8938,9.8938,9.8938,9.8938,9.8938,9.8938,9.8938,9.8938,9.8938,9.8938,9.8938,9.8938,9.8938,9.8938,5.1164,4.6657,4.4257,4.4257,4.5382,4.6619,4.7183,0.0,4.7785,4.8574,0.0,4.8807,4.8987,0.0,0.0,4.956,5.6033,6.0548,5.8673,6.6389,7.3413,7.6574,8.7329,9.2921,8.8921,9.2585,9.6653,10.013,10.1923,10.4195,10.7239,10.8937,10.9815,10.984,10.984,10.984,10.984,11.12,11.1995,11.2185,11.351,11.423,11.4381,11.4381,11.5328,11.6957,11.7146,11.8164,11.9755,11.9755,11.9755,11.9717,11.9528,11.9566,11.9755,11.9755,11.9755,11.9755,11.9755,11.9755,11.9755,11.9755,11.9755,11.8505,11.1844,10.9377,10.887,10.887,10.887,10.887,10.887,10.887,10.887,10.887,10.887,10.887,10.887,10.887,10.887,10.887,10.887,10.887,10.887,10.887,10.887,10.887,10.887,10.887,10.887,10.887,10.8569,10.7817,10.2479,9.8938,9.8938,9.8938,9.8938,9.8938,9.8938,9.8938,9.8938,9.8938,9.8938,9.8938,9.8938,9.8938,9.8938,9.8938,9.8938,9.8938,9.8938,9.8938,4.7375,4.4069,4.2647,4.2647,4.2869,4.4145,0.0,0.0,0.0,5.7852,5.8984,5.9422,6.0889,6.1446,6.2024,6.3177,6.8061,7.0704,6.7737,8.02,8.9969,9.0858,9.3215,9.5448,9.7117,9.8181,10.0697,10.5459,10.625,10.7313,10.9208,10.9619,10.982,10.984,10.984,10.984,10.984,11.0106,11.0897,11.2147,11.12,11.1427,11.2639,11.2639,11.3586,11.5252,11.6616,11.8164,11.9755,11.9755,11.9755,11.9603,11.824,11.8543,11.9755,11.9755,11.9755,11.9755,11.9755,11.9755,11.9755,11.9755,11.9755,11.8505,11.1844,10.9377,10.887,10.887,10.887,10.887,10.887,10.887,10.887,10.887,10.887,10.887,10.887,10.887,10.887,10.887,10.887,10.887,10.887,10.887,10.887,10.887,10.887,10.887,10.887,10.887,10.6802,10.1427,9.969,9.8938,9.8938,9.8938,9.8938,9.8938,9.8938,9.8938,9.8938,9.8938,9.8938,9.8938,9.8938,9.8938,9.8938,9.8938,9.8938,9.8938,9.8938,9.8938,4.3875,4.1506,4.1096,4.197,4.2757,0.0,0.0,4.9586,5.2363,5.8194,6.0036,6.1698,6.5165,6.6481,6.7672,6.9477,7.4672,7.94,8.2057,9.0285,9.6394,9.7291,9.8133,9.9615,10.212,10.2351,10.3759,10.7139,10.8163,10.8997,10.9772,10.9819,10.9839,10.9845,10.984,10.984,10.984,10.984,11.0219,11.0973,11.0181,11.0219,11.101,11.101,11.1882,11.3472,11.4305,11.5631,11.7222,11.7222,11.771,11.8391,11.7558,11.7748,11.8467,11.8467,11.8467,11.8354,11.752,11.8316,11.9755,11.9755,11.7487,11.4154,11.0821,10.9583,10.9288,10.8931,10.887,10.887,10.887,10.887,10.887,10.887,10.887,10.887,10.887,10.887,10.887,10.887,10.887,10.887,10.887,10.887,10.887,10.887,10.887,10.887,10.887,10.3051,9.7637,9.4329,9.6953,9.8938,9.8938,9.8938,9.8938,9.8938,9.8938,9.8938,9.8938,9.8938,9.8938,9.8938,9.8938,9.8938,9.8938,9.8938,9.8938,9.8938,9.8938,9.8938,4.0598,3.9392,4.0071,4.1741,4.3584,0.0,4.9176,5.124,5.4209,6.0497,6.2861,6.5179,6.9632,7.1857,7.3622,7.547,8.0522,8.6892,9.4458,9.7268,9.9014,10.0267,10.1896,10.3601,10.531,10.5456,10.6167,10.786,10.9133,10.9834,10.9835,10.9811,10.9839,10.9845,10.984,10.984,10.984,10.984,10.984,10.984,10.984,10.984,10.984,10.984,11.067,11.2147,11.2147,11.3094,11.4684,11.4684,11.529,11.6237,11.6237,11.6426,11.6767,11.7108,11.7222,11.707,11.6048,11.7482,11.9755,11.9755,11.6123,11.1503,11.0219,10.984,10.968,10.9032,10.887,10.887,10.887,10.887,10.887,10.887,10.887,10.887,10.887,10.887,10.887,10.887,10.887,10.887,10.887,10.887,10.887,10.887,10.887,10.887,10.887,9.7261,8.9034,8.9034,9.3802,9.7555,9.8825,9.8938,9.8938,9.8938,9.8938,9.8938,9.8938,9.8938,9.8938,9.8938,9.8938,9.8938,9.8938,9.8938,9.8938,9.8938,9.8938,9.8938,0.0,0.0,0.0,4.1741,4.4483,0.0,5.8119,6.1498,6.5783,7.6659,7.9065,7.9898,8.2204,8.3999,8.5786,8.7732,8.9939,9.275,9.6735,9.9956,10.1964,10.2154,10.367,10.5339,10.7048,10.7236,10.7913,10.9607,10.9914,10.9941,10.9815,10.9841,10.9839,10.9845,10.984,10.984,10.984,10.984,10.984,10.984,10.984,10.984,10.984,10.984,11.067,11.2147,11.2147,11.3094,11.4684,11.4684,11.3927,11.2715,11.2715,11.3624,11.5139,11.6654,11.7222,11.7411,11.8732,11.9414,11.9755,11.9755,11.9225,11.7563,11.1616,10.984,10.968,10.9032,10.887,10.887,10.887,10.887,10.887,10.887,10.887,10.887,10.887,10.887,10.887,10.887,10.887,10.887,10.887,10.887,10.887,10.887,10.887,10.887,10.887,9.7261,8.9034,8.9034,8.9674,9.2524,9.8457,9.8938,9.8938,9.8938,9.8938,9.8938,9.8938,9.8938,9.8938,9.8938,9.8938,9.8938,9.8938,9.8938,9.8938,9.8938,9.8938,9.8938,0.0,3.7628,4.0259,4.2866,0.0,0.0,5.7912,6.2636,6.8148,7.5948,7.9842,8.3035,8.6917,8.9817,9.1893,9.2787,9.5142,9.7342,9.8741,10.0976,10.2796,10.3783,10.5408,10.711,10.8781,10.8962,10.9256,10.9969,10.996,10.9904,10.9834,10.9827,10.9839,10.9845,10.984,10.984,10.984,10.984,10.984,10.984,10.984,10.984,10.984,10.984,11.0181,11.0783,11.0783,11.12,11.1844,11.1844,11.1995,11.2147,11.2147,11.2601,11.3321,11.4002,11.4268,11.4419,11.5513,11.6271,11.7108,11.9111,11.7108,11.3434,11.0674,10.9557,10.919,10.8915,10.887,10.887,10.887,10.887,10.887,10.887,10.887,10.887,10.887,10.887,10.887,10.887,10.887,10.887,10.887,10.887,10.887,10.887,10.887,10.887,10.887,9.7261,8.9034,8.9034,8.9034,9.0162,9.2938,9.669,9.8938,9.8938,9.8938,9.8938,9.8938,9.8938,9.8938,9.8938,9.8938,9.8938,9.8938,9.8938,9.8938,9.8938,9.8938,9.8938,3.5034,0.0,0.0,0.0,0.0,0.0,6.032,6.5334,7.0833,7.6806,8.1251,8.5337,8.9616,9.3161,9.5653,9.6237,9.8368,9.9915,9.9907,10.1763,10.3584,10.4836,10.6875,10.8686,10.9903,11.0003,11.0031,11.0031,10.989,10.9832,10.9834,10.983,10.9839,10.9845,10.984,10.984,10.984,10.984,10.984,10.984,10.984,10.984,10.984,10.984,10.984,10.984,10.984,10.984,10.984,10.984,11.048,11.1503,11.1503,11.1503,11.1541,11.1995,11.2147,11.2298,11.3241,11.4263,11.5513,11.7672,11.5707,11.2205,11.0161,10.9211,10.887,10.887,10.887,10.887,10.887,10.887,10.887,10.887,10.887,10.887,10.887,10.887,10.887,10.887,10.887,10.887,10.887,10.887,10.887,10.887,10.887,10.7517,10.3841,9.4975,8.9034,8.9034,8.9034,8.9034,8.9034,9.3426,9.6201,9.6201,9.793,9.8938,9.8938,9.8938,9.8938,9.8938,9.8938,9.8938,9.8938,9.8938,9.8938,9.8938,9.8938,9.8938,0.0,0.0,0.0,5.007,5.4376,5.9581,6.9297,7.3022,7.6707,8.4851,8.7859,8.9589,9.1538,9.4641,9.7525,9.9277,9.9773,9.9894,9.9932,10.2801,10.4911,10.4951,10.7908,10.9957,11.0033,11.0031,11.0031,11.0031,10.989,10.9834,10.9821,10.9808,10.9839,10.9845,10.984,10.984,10.984,10.984,10.984,10.984,10.984,10.984,10.984,10.984,10.984,10.984,10.984,10.984,10.984,10.984,10.984,10.9916,10.9916,10.9916,11.0068,11.1579,11.2147,11.2374,11.4078,11.5399,11.6233,11.5177,11.6919,11.8136,11.1036,10.8887,10.887,10.887,10.887,10.887,10.887,10.887,10.887,10.887,10.887,10.887,10.887,10.887,10.887,10.887,10.887,10.887,10.887,10.887,10.887,10.887,10.887,10.4179,9.1253,8.926,8.9034,8.9034,8.9034,8.9034,8.9034,8.9185,8.9335,8.9335,9.5374,9.8938,9.8938,9.8938,9.8938,9.8938,9.8938,9.8938,9.8938,9.8938,9.8938,9.8938,9.8938,9.8938,4.1613,4.4604,4.7628,5.6429,6.287,6.8236,7.2717,7.8482,8.4051,8.8034,9.1013,9.3464,9.5113,9.7272,9.8981,9.9641,9.985,9.9928,9.9915,10.2828,10.4987,10.4987,10.7944,11.0031,11.0031,11.0031,10.9973,10.9892,10.9865,10.9834,10.981,10.9819,10.9839,10.9845,10.984,10.984,10.984,10.984,10.984,10.984,10.984,10.984,10.984,10.984,10.984,10.984,10.984,10.984,10.984,10.984,10.984,10.984,10.984,10.984,10.9878,11.0409,11.0594,11.0821,11.245,11.3544,11.4297,11.4604,11.6995,11.9277,11.683,11.2705,10.887,10.887,10.887,10.887,10.887,10.887,10.887,10.887,10.887,10.887,10.887,10.887,10.887,10.887,10.887,10.887,10.887,10.887,10.887,10.887,10.1322,9.4073,8.9598,8.9034,8.9034,8.9034,8.9034,8.8713,8.7944,8.8595,8.8698,8.7924,8.9975,9.1174,9.1174,9.1961,9.2336,9.2336,9.669,9.6765,9.2336,9.2336,9.2336,9.2449,9.6878,9.8938,4.465,4.8433,5.2121,6.1493,6.8451,7.3794,7.6685,8.2908,8.855,9.0364,9.3306,9.5933,9.6932,9.8546,9.9728,9.9709,9.9849,9.9899,9.9908,10.2293,10.4304,10.4873,10.7415,10.935,10.9955,10.9977,10.9924,10.9829,10.9834,10.9812,10.9808,10.9813,10.9841,10.984,10.984,10.984,10.984,10.984,10.984,10.984,10.984,10.984,10.984,10.984,10.984,10.984,10.984,10.984,10.984,10.984,10.984,10.984,10.984,10.984,10.984,10.984,10.984,10.9954,11.0973,11.2374,11.3733,11.4036,11.6687,11.9755,11.9755,11.4797,10.9142,10.8907,10.887,10.887,10.887,10.887,10.887,10.887,10.887,10.9509,11.1878,11.2404,11.169,10.9321,10.887,10.887,10.887,10.887,10.887,10.887,9.7524,8.9034,8.9034,8.9034,8.9034,8.9034,8.9034,8.857,8.7398,8.7947,8.8063,8.7328,8.7269,8.7269,8.7269,8.7986,8.8611,8.9034,9.3238,9.3276,8.9034,8.9034,8.9034,8.911,9.3389,9.5374,4.5568,5.1344,5.7261,6.5657,7.1417,7.6365,8.1342,8.6351,9.0407,9.2111,9.4882,9.7049,9.7125,9.8554,9.9726,9.9707,9.9842,9.9918,9.9919,10.1355,10.3025,10.4655,10.64,10.8108,10.9738,10.9856,10.9832,10.9833,10.9838,10.9839,10.9836,10.9823,10.984,10.984,10.984,10.984,10.984,10.984,10.984,10.984,10.984,10.984,10.984,10.984,10.984,10.984,10.984,10.984,10.984,10.984,10.984,10.984,10.984,10.984,10.984,10.984,10.984,10.984,10.9916,11.2033,11.4533,11.3577,11.6228,11.9708,11.9755,11.5315,11.0143,10.9544,10.9396,10.9396,10.9396,10.9096,10.8908,10.9058,10.9133,11.0787,11.6924,11.8503,11.6811,11.0148,10.887,10.887,10.887,10.887,10.8853,10.8756,9.7448,8.8949,8.9034,8.9034,8.9034,8.9034,8.8956,8.8475,8.7386,8.7269,8.7269,8.7269,8.7269,8.7269,8.7269,8.7269,8.7802,8.8913,8.8928,8.8956,8.9034,8.9034,8.9034,8.9034,8.9034,8.9034,5.1003,5.9151,6.5943,7.4372,7.8429,8.1295,8.5119,8.8957,9.2187,9.3853,9.5766,9.7527,9.8776,9.9421,9.9721,9.9728,9.9821,9.9921,9.9924,10.1367,10.2582,10.3038,10.562,10.7518,10.7936,10.911,10.982,10.9823,10.9826,10.9813,10.9812,10.9819,10.984,10.984,10.984,10.984,10.984,10.984,10.984,10.984,10.984,10.984,10.984,10.984,10.984,10.984,10.984,10.984,10.984,10.984,10.984,10.984,10.984,10.984,10.984,10.984,10.984,10.9992,11.1162,11.2942,11.4798,11.5399,11.7336,11.9505,11.9689,11.8228,11.6467,11.6291,11.6238,11.6238,11.6238,11.2554,10.9509,11.2037,11.2647,11.2375,11.1539,11.5261,11.6811,11.0148,10.887,10.887,10.887,10.887,10.8473,10.7422,9.6123,8.8025,8.8913,8.9034,8.9034,8.9034,8.824,8.7605,8.7304,8.7269,8.7269,8.7269,8.7269,8.7269,8.7269,8.7269,8.7407,8.7734,8.7708,8.8148,8.9034,8.9034,8.9034,8.9034,8.9034,8.9034,5.0928,6.1292,7.0763,7.7031,8.0996,8.4037,8.6657,9.0482,9.3702,9.4649,9.6084,9.7713,9.9417,9.9736,9.9713,9.9714,9.9789,9.9853,9.9908,10.0745,10.1618,10.2341,10.4656,10.6479,10.7239,10.8853,10.9812,10.9844,10.9845,10.9834,10.9845,10.984,10.984,10.984,10.984,10.984,10.984,10.984,10.984,10.984,10.984,10.984,10.984,10.984,10.984,10.984,10.984,10.984,10.984,10.984,10.984,10.984,10.984,10.984,10.984,10.984,10.984,11.0068,11.1616,11.3283,11.4911,11.6308,11.7959,11.9361,11.9527,11.9197,11.8766,11.8766,11.8766,11.8766,11.8766,11.6013,11.3691,11.5608,11.4978,11.3587,11.245,11.5646,11.7621,11.364,11.2525,11.1466,10.9235,10.8328,10.5704,9.9167,9.1947,8.7495,8.8167,8.8249,8.8249,8.8249,8.7681,8.7269,8.7269,8.7269,8.7269,8.7269,8.7269,8.7269,8.7269,8.7269,8.7269,8.7269,8.7269,8.7605,8.8249,8.8249,8.8249,8.8267,8.8811,8.9034,4.8951,5.9949,7.133,7.6293,8.1158,8.5249,8.7187,9.1202,9.4573,9.4834,9.6084,9.7713,9.9417,9.972,9.9715,9.9729,9.9704,9.9764,9.989,9.9895,10.0427,10.1908,10.3464,10.5098,10.6806,10.8503,10.9559,10.9825,10.9823,10.984,10.984,10.984,10.984,10.984,10.984,10.984,10.984,10.984,10.984,10.984,10.984,10.984,10.984,10.984,10.984,10.984,10.984,10.984,10.984,10.984,10.984,10.984,10.984,10.984,10.984,10.984,10.984,11.0064,11.1869,11.3459,11.4983,11.6887,11.8343,11.9362,11.9306,11.908,11.8766,11.8766,11.8766,11.8766,11.8766,11.8766,11.8729,11.8503,11.6435,11.4978,11.6435,11.7743,11.854,11.8078,11.7133,11.5039,11.0612,10.8846,10.3293,8.9369,8.7269,8.7269,8.7269,8.7269,8.7269,8.7269,8.7269,8.7269,8.7269,8.7269,8.7269,8.7269,8.7269,8.7269,8.7269,8.7269,8.7269,8.7269,8.7269,8.7269,8.7269,8.7269,8.7269,8.7304,8.8312,8.8781,5.2306,5.7532,6.2897,7.6126,8.2096,8.5549,8.8664,9.1126,9.3171,9.4569,9.6084,9.7713,9.9417,9.972,9.9724,9.9708,9.9712,9.9719,9.9774,9.9739,9.9853,10.0159,10.1675,10.3339,10.5044,10.6731,10.8311,10.9717,10.9815,10.984,10.984,10.984,10.984,10.984,10.984,10.984,10.984,10.984,10.984,10.984,10.984,10.984,10.984,10.984,10.984,10.984,10.984,10.984,10.984,10.984,10.984,10.984,10.984,10.984,10.984,10.984,10.984,11.0244,11.3105,11.4345,11.515,11.8063,11.9148,11.9328,11.908,11.892,11.8766,11.8766,11.8766,11.8766,11.8766,11.8766,11.8428,11.715,11.7375,11.8014,11.8315,11.8235,11.81,11.8022,11.7133,11.6164,11.5284,11.4928,10.8502,9.0069,8.7269,8.7269,8.7269,8.7269,8.7269,8.7269,8.7269,8.7269,8.7269,8.7269,8.7269,8.7269,8.7269,8.7269,8.7269,8.7269,8.7269,8.7269,8.7269,8.7269,8.7269,8.7269,8.7269,8.7269,8.7498,8.7572,5.1808,5.8024,6.4403,7.3548,8.0356,8.5401,8.7907,9.0482,9.2565,9.3399,9.4156,9.5175,9.688,9.7182,9.7182,9.7182,9.7864,9.8394,9.8394,9.9152,9.972,9.972,10.1231,10.2557,10.339,10.498,10.6685,10.8393,10.8507,10.8889,10.9803,10.9003,10.8507,10.8507,10.8507,10.8507,10.8507,10.9382,10.984,10.984,10.984,10.984,10.984,10.984,10.984,10.984,10.984,10.984,10.984,10.984,10.984,10.984,10.984,10.984,10.9794,10.967,11.0177,11.1255,11.3597,11.5027,11.6191,11.8568,11.9272,11.911,11.8996,11.8878,11.8766,11.8766,11.8766,11.8766,11.8766,11.8766,11.8578,11.7826,11.7917,11.8181,11.8181,11.7965,11.7704,11.7505,11.7119,11.5676,11.2011,11.4176,10.9829,9.0216,8.7269,8.7269,8.7269,8.7269,8.7269,8.7269,8.7269,8.7269,8.7269,8.7269,8.7269,8.7269,8.7269,8.7269,8.7269,8.7269,8.7269,8.7269,8.7269,8.7269,8.7269,8.7269,8.7269,8.7269,8.7269,8.7269,4.9838,5.7247,6.4848,6.9794,7.6622,8.2967,8.6468,8.9346,9.1467,9.2187,9.2338,9.2868,9.4531,9.4872,9.4872,9.4872,9.5895,9.6804,9.7145,9.8357,9.9303,9.9682,10.089,10.1837,10.2216,10.3465,10.4942,10.6609,10.676,10.7328,10.8662,10.7484,10.676,10.676,10.676,10.695,10.7291,10.862,10.9458,10.984,10.984,10.984,10.984,10.984,10.984,10.9836,10.9782,10.9782,10.9836,10.9782,10.9782,10.984,10.984,10.979,10.976,10.9944,11.0795,11.2186,11.4135,11.5694,11.7097,11.8716,11.9087,11.8964,11.8924,11.8844,11.8766,11.8766,11.8766,11.8748,11.8683,11.8664,11.8607,11.854,11.8044,11.7606,11.7606,11.7543,11.7388,11.7064,11.7045,11.4954,10.8391,11.0624,10.7861,9.18,8.819,8.7269,8.7269,8.7269,8.7269,8.7269,8.7269,8.7269,8.7269,8.7269,8.7269,8.7269,8.7269,8.7269,8.7269,8.7269,8.7269,8.7269,8.7269,8.7269,8.7269,8.7269,8.7269,8.7269,8.7269,8.7269,4.7372,5.1477,5.5697,6.5158,7.051,7.5855,8.5173,8.7531,8.8627,9.1694,9.2338,9.2868,9.4531,9.4872,9.4872,9.4872,9.4986,9.5554,9.6993,9.7334,9.7978,9.9531,9.9871,10.0549,10.2102,10.2367,10.3162,10.4867,10.5018,10.5056,10.5208,10.5094,10.5018,10.5018,10.5018,10.5738,10.7291,10.7442,10.8317,10.984,10.984,10.984,10.984,10.984,10.984,10.9798,10.9595,10.9605,10.9794,10.959,10.961,10.984,10.984,10.967,10.9659,11.1156,11.1759,11.2241,11.5339,11.6583,11.7025,11.8397,11.8887,11.894,11.8847,11.8775,11.8766,11.8766,11.8766,11.8702,11.833,11.8257,11.8133,11.7801,11.7655,11.7606,11.7606,11.7322,11.705,11.7008,11.6734,11.4917,10.9902,10.5762,10.1599,9.6823,9.1063,8.7269,8.7269,8.7269,8.7269,8.7269,8.7269,8.7269,8.7269,8.7269,8.7269,8.7269,8.7269,8.7269,8.7269,8.7269,8.7269,8.7269,8.7269,8.7269,8.7269,8.7269,8.7269,8.7269,8.7269,8.7269,4.4358,5.0326,5.5784,5.984,6.5807,7.2255,7.8312,7.9654,8.1477,8.7941,8.8472,8.7976,8.8658,8.9608,8.9952,8.8923,9.135,9.355,9.4191,9.5137,9.6387,9.8016,9.8205,9.8849,10.0549,10.0739,10.142,10.3125,10.3238,10.3693,10.4715,10.3806,10.3238,10.3238,10.3238,10.3579,10.4261,10.6268,10.7631,10.8317,10.9344,10.9243,10.8195,10.9076,10.9497,10.9557,10.9406,10.9423,10.959,10.9401,10.9378,10.946,10.946,10.9433,10.9526,11.1139,11.2349,11.3515,11.5733,11.7155,11.8084,11.8586,11.8655,11.8484,11.8433,11.823,11.8055,11.8055,11.8055,11.8022,11.7884,11.7837,11.768,11.7045,11.691,11.691,11.691,11.6778,11.668,11.668,11.4203,11.055,10.5651,10.0752,9.6073,9.18,8.8927,8.7269,8.7269,8.7269,8.7269,8.7269,8.7269,8.7269,8.7269,8.7269,8.7269,8.7269,8.7269,8.7269,8.7269,8.7269,8.7269,8.7269,8.7269,8.7269,8.7269,8.7269,8.7269,8.7269,8.7269,8.7269,4.1232,4.7547,5.3261,5.4854,6.0556,6.7076,7.2032,7.274,7.4807,8.3349,8.4151,8.3466,8.392,8.4984,8.5555,8.4867,8.8585,9.1732,9.2262,9.3361,9.4872,9.6955,9.7182,9.7864,9.9569,9.972,10.0209,10.142,10.1496,10.2026,10.32,10.214,10.1496,10.1496,10.1496,10.1723,10.2254,10.4602,10.6041,10.6571,10.8216,10.8346,10.7062,10.7582,10.8381,10.9325,10.8785,10.8854,10.9312,10.9258,10.9233,10.9308,10.9799,10.9963,11.0212,11.2286,11.3793,11.5017,11.6592,11.7772,11.8588,11.8588,11.833,11.8011,11.8011,11.7825,11.7606,11.7606,11.7606,11.7581,11.7466,11.7335,11.7128,11.6595,11.6424,11.6424,11.6424,11.6424,11.6424,11.6424,11.2555,10.7677,10.2727,9.7841,9.2991,8.8006,8.7269,8.7269,8.7269,8.7269,8.7269,8.7269,8.7269,8.7269,8.7269,8.7269,8.7269,8.7269,8.7269,8.7269,8.7269,8.7269,8.7269,8.7269,8.7269,8.7269,8.7269,8.7269,8.7269,8.7269,8.7269,8.7269,3.8237,4.1631,4.5449,5.0485,5.4328,5.9134,6.7696,6.8345,6.956,7.8187,7.9947,8.0402,8.1989,8.2254,8.2822,8.4488,8.7601,9.0407,9.2111,9.2338,9.355,9.6804,9.7182,9.7864,9.9569,9.972,9.972,9.9758,9.9758,9.9758,9.9758,9.9758,9.9758,9.9758,9.9758,10.0549,10.2216,10.2291,10.3125,10.4829,10.6402,10.7057,10.6835,10.5167,10.6181,10.9164,10.7622,10.7728,10.9068,10.9175,10.9233,10.9422,11.1077,11.1663,11.1985,11.5339,11.6515,11.6632,11.8202,11.8492,11.8176,11.8176,11.793,11.7606,11.7606,11.7606,11.7606,11.7606,11.7606,11.7517,11.7105,11.6734,11.6439,11.6424,11.6424,11.6424,11.6424,11.6424,11.6424,11.6424,11.2555,10.7677,10.2727,9.7841,9.2991,8.8006,8.7269,8.7269,8.7269,8.7269,8.7269,8.7269,8.7269,8.7269,8.7269,8.7269,8.7269,8.7269,8.7269,8.7269,8.7269,8.7269,8.7269,8.7269,8.7269,8.7269,8.7269,8.7269,8.7269,8.7269,8.7269,8.7269,3.8071,4.3038,4.804,5.0953,5.4255,5.874,6.6275,6.758,6.8283,7.2175,7.4837,7.6577,7.7069,7.9038,8.0818,8.1348,8.6124,8.9573,8.8967,8.9876,9.1846,9.5175,9.5592,9.669,9.9455,9.972,9.972,9.972,9.972,9.972,9.972,9.972,9.972,9.972,9.972,9.9985,10.0511,10.1648,10.249,10.2921,10.3298,10.3485,10.3482,10.3905,10.4744,10.5738,10.5144,10.5883,10.7471,10.7412,10.8022,10.9152,11.0838,11.2162,11.3438,11.5695,11.6288,11.6272,11.7847,11.81,11.7789,11.7789,11.753,11.7201,11.7201,11.7016,11.6808,11.6808,11.6808,11.6763,11.6665,11.6549,11.6424,11.6424,11.6424,11.6424,11.6424,11.6424,11.5466,11.215,10.7567,10.2667,9.7768,9.2868,8.9074,8.7527,8.7269,8.7269,8.7269,8.7269,8.7269,8.7269,8.7269,8.7269,8.7269,8.7269,8.7269,8.7269,8.7269,8.7269,8.7269,8.7269,8.7269,8.7269,8.7269,8.7269,8.7269,8.7269,8.7269,8.7257,8.7113,8.6989,3.6312,4.2393,4.8411,5.0293,5.1857,5.4774,6.1847,6.2978,6.3383,6.6387,6.8667,6.9952,6.9305,7.1956,7.5254,7.8432,8.3435,8.7222,8.8096,8.9157,9.0823,9.3588,9.3891,9.4948,9.7637,9.8432,9.8773,9.8773,9.9947,10.0663,10.0663,10.0663,10.0663,10.0663,10.0061,9.972,9.972,10.0777,10.1228,10.1091,10.102,10.1295,10.1847,10.2103,10.2952,10.4162,10.3421,10.4077,10.5688,10.5618,10.6886,10.8945,11.0035,11.2224,11.5035,11.6532,11.6929,11.6834,11.7674,11.7679,11.7388,11.7388,11.7105,11.6808,11.6808,11.6635,11.6424,11.6424,11.6424,11.6424,11.6424,11.6424,11.6424,11.6424,11.6424,11.6424,11.6424,11.6424,11.5023,11.0182,10.5246,10.0333,9.5497,9.056,8.7269,8.7269,8.7269,8.7269,8.7269,8.7269,8.7269,8.7269,8.7269,8.7269,8.7269,8.7269,8.7269,8.7269,8.7269,8.7269,8.7269,8.7173,8.7125,8.7125,8.7014,8.7001,8.7001,8.7001,8.7001,8.7001,8.6823,8.6745,3.3702,4.0014,4.6541,4.8522,4.8193,4.9139,5.5642,5.6032,5.6309,6.0898,6.1965,6.147,5.9646,6.2188,6.7303,7.5671,7.972,8.3621,8.8551,8.927,8.999,9.1922,9.2149,9.2868,9.4683,9.6198,9.7031,9.7031,9.9947,10.1799,10.2064,10.2064,10.214,10.2254,10.0739,9.9834,9.972,9.972,9.9676,9.9555,9.9507,10.028,10.1638,10.0052,10.0968,10.3754,10.2171,10.2471,10.4015,10.4104,10.6088,10.9058,10.9296,11.2245,11.655,11.7768,11.8144,11.8044,11.7692,11.7295,11.6988,11.6988,11.6719,11.6424,11.6424,11.6424,11.6424,11.6424,11.6424,11.6424,11.6424,11.6424,11.6424,11.6424,11.6424,11.6424,11.6424,11.6166,11.4508,10.963,10.473,9.978,9.4944,9.0339,8.7269,8.7269,8.7269,8.7269,8.7269,8.7269,8.7269,8.7269,8.7269,8.7269,8.7269,8.7269,8.7257,8.7209,8.7209,8.7209,8.7209,8.6977,8.6874,8.6874,8.6614,8.6502,8.6502,8.6502,8.6502,8.6502,8.6489,8.6475,3.5168,3.8268,4.1759,4.6157,5.1014,5.5121,5.6785,5.6934,5.6718,5.6616,5.7603,5.7603,5.4609,5.7904,6.3776,7.2148,7.6311,7.9796,8.3469,8.3999,8.559,8.9876,9.0407,9.1581,9.4569,9.5175,9.5402,9.5402,9.616,9.7675,10.0174,10.0284,10.089,10.2216,10.1875,10.1042,9.9758,9.972,9.9708,9.9689,9.9578,9.9715,10.0063,9.9563,9.9733,10.042,10.0049,10.1515,10.4196,10.5137,10.7574,11.1025,11.3311,11.5142,11.655,11.7768,11.7825,11.7282,11.7188,11.6888,11.6558,11.6558,11.6518,11.6424,11.6424,11.6424,11.6424,11.6424,11.6424,11.6424,11.6424,11.6424,11.6424,11.6424,11.6424,11.6424,11.6424,11.355,10.9482,10.4532,9.9646,9.4797,8.9848,8.8043,8.7269,8.7269,8.7269,8.7269,8.7269,8.7269,8.7269,8.7269,8.7269,8.7269,8.7269,8.7269,8.7088,8.6706,8.668,8.668,8.668,8.6614,8.661,8.661,8.6543,8.6502,8.6502,8.6502,8.6502,8.6502,8.6296,8.6197,3.4462,3.8307,4.2026,4.474,4.8927,5.2403,5.242,5.2586,5.2528,5.1619,5.2149,5.2225,5.0369,5.3551,5.7866,6.2375,6.9156,7.6084,8.2481,8.4037,8.6427,9.1505,9.0747,9.0823,9.3437,9.3702,9.3702,9.3702,9.5099,9.7031,9.9569,10.0474,10.1648,10.3352,10.3428,10.2594,10.089,10.089,10.089,10.0852,10.0013,9.9609,9.9647,10.0349,10.0641,10.0621,10.1225,10.2391,10.3963,10.4414,10.7083,11.1044,11.2832,11.4929,11.7085,11.7877,11.7705,11.7002,11.6786,11.662,11.6424,11.6424,11.6424,11.6424,11.6424,11.6424,11.6424,11.6424,11.6424,11.6424,11.6424,11.6424,11.6424,11.6424,11.6424,11.6424,11.6424,11.2666,10.7788,10.2801,9.7952,9.3102,8.8116,8.7269,8.7269,8.7269,8.7269,8.7269,8.7269,8.7269,8.7269,8.7269,8.7269,8.7258,8.7088,8.7125,8.6938,8.6529,8.6502,8.6502,8.6502,8.6393,8.6324,8.6324,8.6147,8.6076,8.6076,8.6076,8.6076,8.6061,8.5917,8.5844,3.383,3.9424,4.4218,4.3979,4.5402,4.6819,4.6853,4.7146,4.7402,4.7415,4.7417,4.7417,4.7417,4.969,5.1695,5.2225,6.1279,7.1883,8.2178,8.5101,8.8021,9.3096,9.1164,9.0066,9.177,9.1959,9.1959,9.1959,9.4493,9.6917,9.8849,10.0549,10.2254,10.392,10.4488,10.4109,10.267,10.2632,10.2632,10.2632,10.0928,10.0246,10.0549,10.1685,10.2331,10.2505,10.3533,10.4002,10.401,10.3789,10.6296,11.0288,11.1081,11.3779,11.7307,11.7807,11.7568,11.6974,11.6558,11.6424,11.6424,11.6424,11.6424,11.6424,11.6424,11.6424,11.6424,11.6424,11.6424,11.6424,11.6424,11.6424,11.6424,11.6424,11.6424,11.6239,11.5502,11.1545,10.6646,10.1696,9.6847,9.2181,8.8006,8.7269,8.7269,8.7269,8.7233,8.7209,8.7209,8.7173,8.7149,8.7149,8.7149,8.7051,8.6862,8.6836,8.6706,8.6356,8.6343,8.6343,8.6343,8.6118,8.6004,8.6004,8.5725,8.5539,8.5539,8.5539,8.5539,8.5539,8.5539,8.5539,3.7348,4.109,4.3987,4.3937,4.5313,4.6743,4.6973,4.7125,4.7281,4.7404,4.7417,4.7417,4.7417,4.7834,4.9084,5.1846,5.7411,6.5402,7.688,7.9947,8.2866,8.7831,8.7983,8.8324,9.0028,9.0179,9.0179,9.0179,9.0672,9.23,9.544,9.7107,9.8735,10.0436,10.3276,10.4639,10.4374,10.4374,10.4374,10.4374,10.267,10.2632,10.3958,10.2784,10.3003,10.4341,10.411,10.4737,10.5962,10.6566,10.8173,11.0476,11.3071,11.4747,11.5767,11.6826,11.7105,11.6974,11.6558,11.6424,11.6424,11.6424,11.6424,11.6424,11.6424,11.6424,11.6424,11.6424,11.6424,11.6424,11.6424,11.6424,11.6424,11.6424,11.6424,11.5318,11.1214,10.6461,10.1562,9.6713,9.18,8.819,8.7416,8.7269,8.7269,8.7269,8.7076,8.6963,8.6963,8.6758,8.66,8.66,8.66,8.6587,8.6547,8.657,8.6315,8.5719,8.5689,8.5689,8.5689,8.5644,8.5614,8.5614,8.5569,8.5539,8.5539,8.5539,8.5539,8.5539,8.5539,8.5539,3.8112,4.0858,4.3311,4.5985,4.6655,4.6959,4.8056,4.7744,4.7032,4.6227,4.6055,4.579,4.4881,4.6169,4.791,4.9424,5.3096,5.8928,6.7985,7.6122,8.3356,8.9308,8.9195,8.9308,9.1013,9.0331,8.9801,8.9801,8.9801,9.0861,9.3361,9.5857,9.7978,9.9644,10.3011,10.4337,10.3428,10.3428,10.3844,10.4753,10.3049,10.3125,10.4791,10.4905,10.5304,10.5825,10.6249,10.6644,10.7081,10.7137,10.8648,11.1106,11.2693,11.4385,11.601,11.6757,11.6873,11.6659,11.6502,11.6424,11.6424,11.6424,11.6424,11.6424,11.6424,11.6424,11.6424,11.6424,11.6424,11.6424,11.6424,11.6424,11.6239,11.5355,11.5171,11.3845,10.893,10.4016,9.9412,9.5423,9.067,8.7269,8.7269,8.7149,8.7051,8.7051,8.6849,8.668,8.668,8.6597,8.6502,8.6502,8.6502,8.6448,8.631,8.6104,8.5837,8.5554,8.5539,8.5539,8.5539,8.5539,8.5539,8.5539,8.5539,8.5539,8.5539,8.5539,8.5539,8.5539,8.5539,8.5539,4.0217,0.0,4.6548,5.0337,4.9498,4.8143,0.0,4.8156,4.6093,4.4547,4.4241,4.3868,4.2527,4.4784,4.6959,4.7321,5.0132,5.4651,6.1435,7.1504,8.097,8.851,8.9308,8.9725,9.1013,9.0331,8.9801,8.9801,8.9801,9.0369,9.1656,9.4456,9.6842,9.8508,10.1458,10.2557,10.1648,10.2064,10.3314,10.5359,10.3655,10.392,10.6007,10.6874,10.7291,10.7295,10.8084,10.8121,10.7601,10.7083,10.8258,11.0559,11.1601,11.3363,11.5439,11.6482,11.6674,11.6424,11.6424,11.6424,11.6424,11.6424,11.6424,11.6424,11.6424,11.6424,11.6424,11.6424,11.6424,11.6424,11.6424,11.6424,11.6129,11.495,11.3808,11.1597,10.6646,10.1769,9.7326,9.3655,8.9848,8.7245,8.7185,8.7038,8.6874,8.681,8.656,8.642,8.642,8.6315,8.6273,8.6273,8.6273,8.6189,8.6011,8.5689,8.5539,8.5539,8.5396,8.538,8.5523,8.5432,8.5416,8.5539,8.5539,8.5539,8.5539,8.5539,8.5539,8.5539,8.5539,8.5539,0.0,5.2601,5.7567,5.7939,5.446,5.1043,5.13,4.7828,0.0,4.2519,4.2291,4.2289,4.2077,4.3688,4.5581,4.7024,5.0101,5.4651,6.1435,6.4579,6.9803,7.9606,8.4725,8.7531,8.7645,8.8967,8.9801,8.9801,8.9801,8.9876,8.999,9.1694,9.3474,9.5137,9.6842,9.8432,9.9909,10.1458,10.3882,10.7101,10.5397,10.631,10.942,10.7976,10.7876,10.8851,10.8481,10.7973,10.747,10.6971,10.6867,10.7346,11.0448,11.1775,11.2297,11.5349,11.6455,11.6424,11.6424,11.6424,11.6424,11.6424,11.6424,11.6424,11.6424,11.6424,11.6424,11.6424,11.6424,11.6424,11.6424,11.6424,11.6424,11.6313,11.285,10.823,10.3279,9.8431,9.3581,8.8742,8.7527,8.7185,8.6976,8.6913,8.681,8.6547,8.631,8.614,8.614,8.5829,8.5614,8.5614,8.5614,8.5599,8.5569,8.5554,8.5539,8.5539,8.5084,8.5036,8.5523,8.5068,8.5036,8.5523,8.5539,8.5539,8.5539,8.5539,8.5539,8.5539,8.5539,8.5539,5.2753,5.5038,5.615,5.8199,5.4968,5.1355,5.1466,4.8535,4.505,4.2524,4.2028,4.1701,4.0622,4.2761,4.487,4.5554,4.8453,5.2992,5.9868,6.1352,6.6275,7.847,8.6124,9.0444,9.0444,9.1013,9.0937,8.9876,8.9801,8.9801,8.9801,9.1429,9.2641,9.3285,9.3853,9.5933,9.9682,10.036,10.2897,10.7291,10.6647,10.756,10.9794,10.8834,10.8514,10.8656,10.8061,10.7554,0.0,10.684,10.7346,10.8488,11.0698,11.2208,11.3439,11.5613,11.6424,11.6424,11.6424,11.6424,11.6424,11.6424,11.6424,11.6424,11.6424,11.6424,11.6424,11.6424,11.6424,11.6424,11.6424,11.6424,11.6118,11.4884,11.0936,10.6004,10.0796,9.5945,9.1453,8.7543,8.6797,8.6758,8.6653,8.6506,8.6356,8.6282,8.596,8.5733,8.5733,8.5614,8.5539,8.5539,8.5539,8.5241,8.4598,8.4548,8.4548,8.4548,8.4398,8.4381,8.4567,8.4346,8.4514,8.5036,8.5052,8.5194,8.5539,8.5539,8.5539,8.5539,8.5539,8.5539,5.736,5.8536,5.9002,6.1237,5.8044,5.4151,5.3198,4.9661,4.5682,4.2493,4.1471,4.0918,4.0245,4.2536,4.4745,4.5336,4.7747,5.2189,5.9636,6.0214,6.4834,7.8281,8.4912,8.9229,9.1316,9.249,9.2414,9.0747,9.0596,9.0369,8.9839,9.0899,9.2035,9.3096,9.3626,9.5452,9.8763,9.9818,10.2358,10.6341,10.6861,10.7996,10.9628,10.9208,10.8737,10.818,10.7713,10.7258,10.6826,10.6763,10.7714,10.9409,11.0956,11.2629,11.4287,11.5871,11.6424,11.6424,11.6424,11.6424,11.6424,11.6424,11.6424,11.6424,11.6424,11.6424,11.6424,11.6424,11.6424,11.6424,11.6424,11.6344,11.5889,11.456,10.9328,10.3613,9.9954,9.423,8.9171,8.6917,8.6502,8.6475,8.6393,8.6225,8.6069,8.5931,8.5725,8.5478,8.5288,8.5272,8.521,8.5052,8.5021,8.4746,8.4019,8.3985,8.3985,8.3985,8.379,8.3772,8.3985,8.379,8.3931,8.4498,8.468,8.4941,8.5272,8.5462,8.5539,8.5539,8.5539,8.5539,6.0164,6.4212,6.8471,6.8471,6.4721,6.0228,5.6943,5.1179,4.5603,4.2275,4.0366,3.9756,4.1305,4.3188,4.5047,4.6757,4.8517,5.2643,6.1194,6.1011,6.4907,7.8391,7.9947,8.2563,8.9233,9.2906,9.4194,9.249,9.2338,9.1619,8.9952,8.9876,9.1391,9.4759,9.6346,9.7056,9.6832,10.0035,10.2506,10.4197,10.591,10.7603,10.9189,10.9073,10.8527,10.7682,10.7554,10.7194,10.6719,10.6719,10.7714,10.9409,11.0956,11.2629,11.4287,11.5871,11.6424,11.6424,11.6424,11.6424,11.6424,11.6424,11.6424,11.6424,11.6424,11.6424,11.6424,11.6424,11.6424,11.6424,11.6424,11.615,11.5866,11.5813,10.8165,10.0893,10.0893,9.3288,8.6502,8.6489,8.6489,8.6407,8.614,8.6098,8.5982,8.5584,8.5523,8.5319,8.4827,8.4762,8.4548,8.4019,8.3949,8.3932,8.3932,8.3932,8.3932,8.3932,8.3375,8.3266,8.3914,8.3321,8.3284,8.3967,8.4481,8.4726,8.4726,8.5257,8.5523,8.5539,8.5539,8.5539,6.6164,6.9256,7.1561,7.0476,6.7357,6.3131,5.748,5.2913,4.832,4.2758,4.124,4.104,4.151,4.2966,4.4741,4.6725,5.1237,5.6651,6.2882,6.4364,6.9785,8.322,8.3934,8.6385,9.4228,9.5895,9.5819,9.4232,9.4118,9.3891,9.3399,9.3361,9.3683,9.4444,9.4898,9.6109,9.8151,9.913,10.1064,10.3955,10.5514,10.6524,10.695,10.7742,10.7911,10.753,10.7126,10.6846,10.6719,10.6719,10.7714,10.9409,11.0956,11.2629,11.4287,11.5871,11.6424,11.6424,11.6424,11.6424,11.6424,11.6424,11.6424,11.6424,11.6424,11.6424,11.6424,11.6424,11.6424,11.6424,11.6424,11.615,11.571,11.5142,10.7641,10.0541,10.0255,9.2633,8.5719,8.535,8.5288,8.5257,8.5163,8.5147,8.5116,8.5005,8.4989,8.4795,8.4261,8.421,8.4141,8.3984,8.3244,8.2733,8.2733,8.2733,8.2733,8.2733,8.2559,8.2539,8.2733,8.2559,8.2698,8.3266,8.3467,8.3948,8.4726,8.4924,8.5163,8.5539,8.5539,8.5539,6.9717,7.1562,7.2736,7.1793,6.9766,6.6325,5.9701,5.5617,5.139,4.4865,4.3013,4.2716,4.3422,4.4303,4.6205,5.0179,5.4592,6.0013,6.7192,7.0273,7.5824,8.6616,8.8413,9.1006,9.6652,9.7788,9.7826,9.688,9.616,9.6084,9.6766,9.6804,9.6648,9.6314,9.6303,9.7039,9.8575,9.9204,10.0564,10.267,10.4157,10.522,10.5811,10.6358,10.685,10.7246,10.686,10.6719,10.6719,10.6719,10.8082,11.0256,11.1214,11.2997,11.5134,11.6092,11.6424,11.6424,11.6424,11.6424,11.6424,11.6424,11.6424,11.6424,11.6424,11.6424,11.6424,11.6424,11.6424,11.6392,11.6248,11.6034,11.5183,11.2483,10.5908,9.968,9.7506,9.0809,8.5131,8.4792,8.4598,8.443,8.443,8.443,8.443,8.443,8.443,8.4244,8.3665,8.3575,8.3502,8.3299,8.2637,8.2219,8.2219,8.2219,8.2219,8.2219,8.2219,8.2219,8.2219,8.2219,8.2284,8.2392,8.2628,8.3026,8.3506,8.393,8.4222,8.4391,8.4743,8.4905,7.1406,7.2167,7.2936,7.2789,7.2071,6.9614,6.2753,5.8847,5.4682,4.7857,4.5343,4.486,4.6415,4.7046,4.9459,5.5957,5.8812,6.3561,7.3109,7.7615,8.2379,8.9044,9.278,9.5501,9.7255,9.8811,9.972,9.972,9.8319,9.8084,9.9621,9.9643,9.9507,9.9238,9.9226,9.8936,9.8332,9.9723,10.048,10.0584,10.2053,10.3548,10.5009,10.4785,10.5417,10.6661,10.6556,10.6572,10.6719,10.6719,10.8561,11.1361,11.1361,11.324,11.6018,11.6166,11.6239,11.6239,11.6387,11.6424,11.6424,11.6424,11.635,11.6239,11.6387,11.6424,11.6424,11.6424,11.636,11.6195,11.5951,11.5745,11.4385,10.9336,10.3882,9.8503,9.3704,8.8445,8.4644,8.4595,8.4209,8.3879,8.3879,8.3879,8.3879,8.3879,8.3879,8.3664,8.3005,8.293,8.2756,8.2279,8.2219,8.2219,8.2219,8.2219,8.2219,8.2219,8.2219,8.2219,8.2219,8.218,8.1924,8.1438,8.1995,8.2081,8.1629,8.2581,8.2884,8.2619,8.3467,8.3878,7.3479,7.4766,7.6144,7.4824,7.4632,7.237,6.3161,6.0518,5.7436,4.834,4.7242,4.7996,4.8368,5.1539,5.547,5.9678,6.5929,7.1917,7.6878,8.157,8.6583,9.2244,9.3799,9.5655,9.8871,9.9493,9.972,9.972,9.9379,9.9243,9.9422,9.912,9.8832,9.8557,9.8586,9.8361,9.7898,9.8221,9.8374,9.8296,9.9945,10.0817,10.0991,10.2149,10.3494,10.492,10.4892,10.5577,10.6719,10.6719,10.7935,10.9755,10.9755,11.0934,11.2761,11.4102,11.4618,11.4802,11.6018,11.6424,11.6424,11.6424,11.5613,11.4839,11.6055,11.6424,11.6424,11.6424,11.5771,11.5212,11.5708,11.4923,11.3889,11.3312,10.5977,9.7856,9.3136,8.7904,8.3984,8.3468,8.3303,8.321,8.321,8.321,8.321,8.321,8.321,8.304,8.2461,8.2383,8.2343,8.2239,8.2219,8.2219,8.2219,8.2219,8.2219,8.2219,8.2219,8.2219,8.2219,8.1822,8.1576,8.1438,8.1305,8.1341,8.1629,8.1871,8.2174,8.26,8.2825,8.2919,7.5757,7.7455,7.9223,7.832,7.8105,7.6389,6.9659,6.7505,6.4357,5.54,5.4262,5.412,5.1742,5.4627,5.9006,6.3958,7.0267,7.621,8.1187,8.6318,9.0596,9.3357,9.5289,9.7215,9.9337,9.9512,9.9587,9.9712,9.96,9.9379,9.9056,9.8861,9.8624,9.8352,9.8342,9.8175,9.7779,9.7779,9.7722,9.7606,9.8424,9.9103,9.9749,10.0495,10.1704,10.3169,10.3169,10.409,10.56,10.56,10.7051,10.9224,10.9224,11.0182,11.1656,11.2592,11.2887,11.3034,11.3845,11.4102,11.4102,11.4102,11.355,11.3034,11.3845,11.4102,11.4156,11.4433,11.4062,11.3682,11.4121,11.3643,11.3113,11.3334,10.5738,9.7801,9.5357,8.886,8.343,8.308,8.2813,8.2621,8.2621,8.2621,8.2621,8.2621,8.2621,8.2539,8.2259,8.2219,8.2219,8.2219,8.2219,8.2219,8.2219,8.2219,8.2219,8.2219,8.2219,8.2119,8.1863,8.1562,8.1229,8.0825,8.0588,8.0522,8.0606,8.0821,8.0979,8.1113,8.1561,8.1805,7.729,7.9185,8.1,8.1242,8.1073,7.9873,7.6299,7.429,7.0981,6.3363,6.147,5.9954,5.576,5.7477,6.1497,6.7431,7.2333,7.7642,8.4215,8.9155,9.2455,9.3378,9.6312,9.8479,9.917,9.9232,9.932,9.954,9.9314,9.9027,9.8704,9.8595,9.8456,9.8284,9.8274,9.8094,9.7779,9.7756,9.7687,9.7533,9.7389,9.7992,9.9243,9.9148,9.9964,10.1438,10.1438,10.2395,10.3942,10.3942,10.5725,10.8414,10.8414,10.9372,11.0772,11.1066,11.1177,11.1214,11.1471,11.1582,11.1493,11.1092,11.1049,11.1198,11.1312,11.1339,11.1424,11.1823,11.168,11.1457,11.1673,11.1581,11.1462,11.1541,10.4369,9.7613,9.7793,9.0002,8.2987,8.2873,8.2505,8.2219,8.2219,8.2219,8.2219,8.2219,8.2219,8.2219,8.2219,8.2219,8.2219,8.2219,8.2219,8.2219,8.2219,8.2219,8.218,8.2065,8.2099,8.1863,8.1389,8.125,8.0868,8.0126,8.0015,7.9824,7.9526,7.9824,7.9824,7.9549,8.0283,8.0709,7.6076,7.8135,7.9078,8.0446,8.1071,8.0096,7.5374,7.3432,7.093,6.5102,6.2508,6.0906,5.9788,6.1392,6.4119,6.7802,7.1338,7.5906,8.259,8.5266,8.8314,9.294,9.5097,9.6882,9.8652,9.8839,9.8854,9.8897,9.8629,9.8471,9.8426,9.8067,9.7898,9.7832,9.7832,9.7847,9.7779,9.7639,9.7558,9.7414,9.729,9.7274,9.7365,9.7352,9.8247,9.9854,9.9854,10.0738,10.2174,10.2174,10.3316,10.5025,10.5025,10.5983,10.753,10.9003,10.9556,10.9755,11.1103,11.1582,11.1233,10.9068,10.8911,10.9672,11.0366,11.041,11.0236,11.0296,10.8967,10.7649,10.8312,10.775,10.7516,10.9478,10.276,9.6165,9.6965,8.9684,8.2854,8.2422,8.2279,8.2219,8.2219,8.2219,8.2219,8.2219,8.2219,8.2219,8.2219,8.2219,8.2219,8.2219,8.2219,8.2219,8.2219,8.2219,8.2039,8.1597,8.1541,8.1368,8.0958,8.0535,8.0181,8.0104,7.9756,7.9538,7.9526,7.9538,7.9538,7.9526,7.9607,7.9676,7.3935,7.789,8.1112,8.1819,8.2402,8.2088,7.9022,7.7964,7.6145,7.098,6.7966,6.5075,6.118,6.4437,6.8166,6.9614,7.5637,8.1504,8.5376,8.727,8.9124,9.1482,9.3205,9.4938,9.6911,9.7133,9.7554,9.869,9.7473,9.7127,9.7973,9.7854,9.7779,9.7779,9.7779,9.7779,9.7779,9.7627,9.7499,9.7277,9.719,9.7101,9.7007,9.7007,9.7413,9.8099,9.8099,9.9057,10.0627,10.1475,10.2837,10.4472,10.5356,10.613,10.683,10.7567,10.7824,10.7935,10.8598,10.8541,10.7998,10.692,10.6551,10.6562,10.6761,10.6743,10.6685,10.6818,10.6173,10.5515,10.6085,10.5852,10.5729,10.6762,9.9957,9.3363,9.376,8.6523,8.0167,8.0801,8.163,8.2219,8.2219,8.2219,8.2219,8.2219,8.2219,8.2219,8.2219,8.2219,8.2219,8.2219,8.2219,8.2219,8.2219,8.1944,8.1699,8.1472,8.1242,8.0924,8.0469,8.0215,7.9992,7.9756,7.9584,7.9526,7.9526,7.9526,7.9526,7.9526,7.9526,7.9526,7.1145,7.593,8.0173,8.1794,8.2578,8.2625,8.1477,8.0979,7.9721,7.5881,7.267,6.9047,6.4067,6.7321,7.0881,7.1288,7.794,8.3918,8.6463,8.7827,8.9005,9.023,9.1492,9.3004,9.4891,9.5107,9.5688,9.7149,9.5728,9.5514,9.7073,9.7185,9.7371,9.7742,9.7779,9.7768,9.7733,9.7616,9.7437,9.7201,9.7176,9.7099,9.7007,9.7007,9.7007,9.7007,9.7007,9.7707,9.8983,10.0162,10.1636,10.3243,10.4421,10.5393,10.613,10.613,10.6373,10.6676,10.6273,10.5759,10.5188,10.4945,10.4588,10.4184,10.3765,10.3554,10.3546,10.3728,10.3605,10.345,10.372,10.3817,10.3643,10.2821,9.6558,9.0558,8.9782,8.3254,7.7914,7.9078,8.0223,8.102,8.102,8.1387,8.163,8.163,8.1977,8.1902,8.1006,8.0802,8.0742,8.0742,8.0742,8.0915,8.1275,8.0984,8.0852,8.1068,8.0838,8.0447,7.9947,7.9925,7.9801,7.9492,7.9526,7.9526,7.9526,7.9526,7.9526,7.9526,7.9526,7.9526,6.7586,7.0739,7.2472,7.8538,8.0085,8.0065,8.0009,7.9227,7.8313,7.7538,7.4322,7.1448,7.0735,7.0373,7.0682,7.2192,7.4614,7.7986,8.2776,8.3519,8.5264,8.9822,9.0453,9.1169,9.2899,9.3084,9.3095,9.3191,9.3111,9.3795,9.5488,9.5562,9.623,9.7742,9.7779,9.7722,9.7618,9.7569,9.7437,9.7201,9.7086,9.6984,9.7007,9.7007,9.7007,9.7007,9.7007,9.7044,9.7118,9.7192,9.8247,9.978,9.9854,10.1769,10.4495,10.4495,10.5416,10.6506,10.5032,10.4479,10.4276,10.3302,10.3447,10.3807,10.2841,10.2333,10.2174,10.2157,10.1429,10.0679,10.071,10.072,9.9957,9.702,9.2651,8.8373,8.5508,8.1035,7.7584,7.7672,7.7741,7.781,7.781,7.9043,8.0014,8.0014,8.1283,8.1006,7.7694,7.6901,7.6694,7.6694,7.6694,7.731,7.8758,7.8874,7.9244,8.0091,8.0148,7.9925,7.9538,7.9549,7.9549,7.9526,7.9526,7.9526,7.9526,7.9526,7.9526,7.9526,7.9526,7.9526,6.3223,6.7832,7.1637,7.6926,7.8322,7.8099,7.6922,7.6488,7.6258,7.6106,7.3564,7.0978,6.9765,7.2153,7.4172,7.3733,7.8956,8.3697,8.5444,8.6046,8.6983,8.8681,8.8914,8.9498,9.1121,9.0389,9.0203,9.1233,9.127,9.2012,9.3731,9.4856,9.5711,9.6268,9.7259,9.7722,9.7569,9.7511,9.7377,9.7201,9.7036,9.7007,9.7007,9.7007,9.7007,9.7007,9.7007,9.7007,9.7081,9.8173,9.8983,9.9633,10.0627,10.2395,10.4342,10.3818,10.4617,10.5662,10.3609,10.3109,10.2985,10.0624,10.0248,10.0673,10.0101,9.9187,9.8478,9.931,9.9309,9.8986,9.8986,9.9749,9.9472,9.5437,9.0905,8.641,8.2442,7.7933,7.4985,7.5973,7.6181,7.6493,7.7394,7.8019,7.84,7.84,7.8658,7.8295,7.6813,7.6475,7.6395,7.6395,7.6395,7.6613,7.716,7.7014,7.7001,7.7339,7.7003,7.6762,7.6619,7.6619,7.7055,7.7994,7.7994,7.8497,7.9526,7.9526,7.9526,7.9492,7.8463,7.7994,5.7551,6.2805,6.7889,7.263,7.5191,7.6234,7.506,7.4892,7.5055,7.5055,7.3623,7.2036,7.092,7.424,7.6852,7.5786,8.1486,8.6095,8.6263,8.7114,8.7819,8.8039,8.806,8.8468,8.9498,8.8654,8.8468,8.9535,8.9609,9.0352,9.1975,9.3137,9.398,9.4493,9.6089,9.6862,9.666,9.7081,9.7265,9.7137,9.7023,9.7007,9.7007,9.7007,9.7007,9.697,9.677,9.6674,9.6734,9.7622,9.7975,9.807,9.911,10.083,10.2673,10.2157,10.2423,10.2816,10.0962,10.0497,10.0392,9.8228,9.7743,9.7973,9.7719,9.6919,9.6282,9.7137,9.7367,9.7367,9.7367,9.8535,9.8188,9.2072,8.8616,8.5023,7.8905,7.5212,7.3408,7.443,7.4639,7.4951,7.5887,7.6061,7.6215,7.677,7.6503,7.5853,7.4801,7.4551,7.4416,7.4416,7.4416,7.4654,7.5163,7.4962,7.5031,7.5516,7.5216,7.5043,7.5043,7.5043,7.5479,7.6452,7.6429,7.6955,7.7994,7.7994,7.7994,7.796,7.6955,7.6429,5.1036,5.5846,6.069,6.5536,7.0572,7.4346,7.4397,7.4397,7.4448,7.459,7.4749,7.4841,7.4841,7.6777,7.8367,7.8367,8.1553,8.4182,8.4644,8.6042,8.7285,8.7876,8.8002,8.8002,8.7965,8.8002,8.8049,8.806,8.8049,8.8708,9.023,9.0378,9.1105,9.2616,9.4272,9.5019,9.4777,9.6315,9.7064,9.6897,9.697,9.697,9.6957,9.6957,9.6944,9.6891,9.6255,9.5973,9.5927,9.5156,9.4874,9.4874,9.4874,9.6734,9.9441,9.9351,9.8732,9.7871,9.7049,9.6642,9.6411,9.6081,9.5978,9.5944,9.5703,9.561,9.5633,9.5703,9.5737,9.5772,9.5772,9.6916,9.583,8.6722,8.5647,8.4156,7.5038,7.3079,7.3079,7.3079,7.3079,7.3079,7.3079,7.3061,7.3598,7.5106,7.4981,7.3899,7.163,7.0895,7.0563,7.0563,7.0563,7.1166,7.2696,7.2797,7.34,7.4808,7.4909,7.4909,7.4887,7.4887,7.4866,7.4911,7.4933,7.4933,7.5,7.5043,7.5021,7.5,7.4954,7.4954,5.6411,5.6761,5.7108,6.2908,6.5485,6.7037,6.8514,6.8929,7.0082,7.387,7.4672,7.4687,7.4687,7.7077,7.9035,7.9035,8.2281,8.4459,8.348,8.5185,8.629,8.5732,8.6652,8.6899,8.5798,8.6677,8.7539,8.8002,8.7631,8.7702,8.8518,8.9716,9.0541,9.0874,9.244,9.321,9.303,9.4654,9.544,9.5325,9.6455,9.6743,9.6306,9.6306,9.5982,9.5446,9.529,9.5192,9.5176,9.4941,9.4874,9.4874,9.4874,9.6154,9.7693,9.524,9.4158,9.3747,9.2298,9.2366,9.27,9.0371,9.022,9.0993,9.0927,9.0918,9.1148,9.2292,9.3402,9.4292,9.4292,9.5379,9.4454,8.6479,8.4884,8.2908,7.483,7.3079,7.3079,7.3079,7.3079,7.3079,7.3079,7.2863,7.2802,7.3232,7.2738,7.2059,7.1416,7.0895,7.0563,7.0563,7.0563,7.0731,7.1166,7.12,7.1388,7.177,7.177,7.1594,7.1114,7.1093,7.1385,7.1904,7.2388,7.3218,7.4325,7.4803,7.4781,7.4291,7.3733,7.3177,5.0752,5.1088,5.1923,5.5504,5.8067,6.0221,6.2044,6.2673,6.3893,6.7551,6.8508,6.8704,6.8704,7.185,7.4432,7.4432,7.8516,8.1543,8.0936,8.2577,8.3756,8.3501,8.4015,8.4135,8.3513,8.4859,8.5948,8.6328,8.661,8.699,8.7495,8.8478,8.9056,8.9152,9.0446,9.1063,9.0874,9.223,9.2886,9.2802,9.3716,9.4318,9.4564,9.4564,9.4653,9.484,9.4584,9.4444,9.4427,9.4105,9.3959,9.3959,9.3959,9.4567,9.5028,9.1703,9.0343,8.9982,8.9005,8.909,8.933,8.7522,8.7417,8.804,8.804,8.804,8.8248,8.9136,9.0038,9.0905,9.1586,9.1876,9.0606,8.4939,8.3101,8.0882,7.4448,7.3079,7.3079,7.3079,7.3079,7.3025,7.2881,7.2664,7.2388,7.205,7.1433,7.1016,7.1016,7.076,7.0798,7.1489,7.1556,7.1791,7.2373,7.2407,7.2034,7.1125,7.1037,7.0474,6.9167,6.9395,6.9649,6.9785,7.0504,7.1121,7.1707,7.2068,7.2101,7.1675,7.1242,6.9792,3.9066,4.2002,4.6207,4.5869,4.9379,5.332,0.0,5.5704,5.6732,5.8736,5.9631,6.0088,6.029,6.4415,6.7804,6.7847,7.3126,7.7381,7.7905,7.9381,8.052,8.0849,8.0588,8.0628,8.121,8.2695,8.3693,8.3941,8.5189,8.6251,8.6941,8.6965,8.711,8.7441,8.8361,8.8732,8.85,8.9494,8.9978,8.9962,9.0143,9.0911,9.2153,9.2153,9.2863,9.406,9.3494,9.3341,9.3443,9.2952,9.2629,9.2453,9.2453,9.2031,9.102,8.8115,8.662,8.6047,8.6026,8.5987,8.5959,8.5959,8.6063,8.6202,8.6202,8.634,8.6479,8.6479,8.6583,8.6999,8.8386,8.7485,8.5439,8.2368,8.0441,7.8119,7.3647,7.2868,7.299,7.2989,7.2972,7.2883,7.2499,7.2388,7.2107,7.1368,7.0914,7.0695,7.0674,7.0808,7.1389,7.2518,7.263,7.3098,7.4201,7.4301,7.346,7.1484,7.1341,7.0449,6.84,6.885,6.8751,6.7995,6.8566,6.8489,6.7758,6.7848,6.7826,6.7691,6.7781,6.553,0.0,0.0,0.0,0.0,0.0,0.0,0.0,4.7828,5.0309,5.5979,5.7218,5.781,5.9384,6.4548,6.8725,6.915,7.4537,7.8341,7.7213,7.8674,7.8947,7.6434,7.7618,7.8736,7.8957,8.0383,8.2039,8.3842,8.3765,8.4421,8.621,8.631,8.6283,8.6265,8.6469,8.6531,8.6488,8.8022,8.8681,8.8493,8.9879,9.0277,8.9864,8.9864,8.9689,8.9364,8.9228,8.9912,9.1163,9.2232,9.196,9.0834,9.0834,8.7695,8.3062,8.2127,8.087,7.9696,7.9486,8.0207,8.1228,8.1228,8.2061,8.3087,8.3087,8.3968,8.4988,8.4988,8.582,8.6791,8.7069,8.5148,8.2243,7.8936,7.694,7.4811,7.1057,7.1531,7.2536,7.2204,7.2406,7.2499,7.2107,7.1778,7.1388,7.08,7.1158,7.1439,7.1363,7.2444,7.2639,7.1185,7.0986,7.0649,6.9787,6.9689,6.9546,6.9096,6.9063,6.865,6.769,6.6679,6.5796,6.5121,6.4651,6.4175,6.3717,6.4265,6.4035,6.31,6.3746,6.2341,0.0,0.0,0.0,0.0,0.0,0.0,0.0,0.0,0.0,0.0,0.0,4.8174,5.0599,0.0,6.2504,6.4267,7.0707,7.5547,7.5596,7.6446,7.6453,7.4858,7.571,7.6517,7.659,7.8112,7.9582,8.0693,8.1195,8.237,8.4445,8.4546,8.5016,8.5979,8.5713,8.5476,8.5324,8.5875,8.5974,8.5736,8.6592,8.7175,8.7495,8.7495,8.768,8.8038,8.8038,8.8496,8.9235,8.9235,8.832,8.6806,8.5972,8.3585,8.0554,8.0366,8.0199,8.0065,7.9914,8.0396,8.1075,8.1075,8.1595,8.2219,8.2219,8.2774,8.3379,8.3379,8.3899,8.4566,8.5098,8.1883,7.823,7.7075,7.3888,7.0661,6.8902,6.9285,6.9939,6.9722,7.043,7.0925,7.0529,6.955,6.8741,6.8457,6.8759,6.9001,6.8939,6.9297,6.9341,6.8695,6.8393,6.8537,6.925,6.9292,6.9384,6.959,6.7704,6.5832,6.4138,6.3741,6.3231,6.2519,6.2492,6.2205,6.1639,6.1291,6.0832,6.0194,5.8112,5.6377,0.0,0.0,0.0,0.0,0.0,0.0,0.0,0.0,0.0,0.0,0.0,0.0,0.0,0.0,0.0,5.8109,6.5562,7.1697,7.3693,7.3693,7.3497,7.3544,7.3991,7.4318,7.4349,7.5929,7.7126,7.7447,7.8659,8.0246,8.2262,8.2349,8.3285,8.5279,8.4763,8.4482,8.4614,8.4072,8.3699,8.3465,8.3393,0.0,8.5276,8.5276,8.575,8.656,8.656,8.663,8.6595,8.5328,8.429,8.3145,8.0573,7.9317,7.8946,7.9537,8.0412,8.1352,8.1352,8.1734,8.2219,8.2219,8.2219,8.2199,8.2045,8.1944,0.0,8.1924,8.1842,8.1975,8.2964,7.875,7.4464,7.5214,7.1041,6.6862,6.6791,6.7065,6.7306,6.7233,6.8205,6.893,6.853,6.7015,6.5896,6.5935,6.6182,6.6231,6.5979,6.5795,6.5834,6.6051,6.5676,6.6253,6.831,6.8376,6.8517,6.8913,6.5812,6.3078,6.1151,6.1134,6.0932,6.0273,6.038,5.9953,5.8964,5.7905,5.7338,5.7132,5.2289,5.0077,0.0,0.0,0.0,0.0,0.0,0.0,0.0,0.0,0.0,0.0,0.0,0.0,0.0,0.0,0.0,0.0,6.2421,6.8833,7.1787,7.0997,7.0162,7.0295,7.1542,7.2452,7.2589,7.4033,7.5574,7.6942,7.7425,7.837,7.9997,8.0084,0.0,0.0,0.0,8.2686,8.4054,8.4002,8.3861,8.3734,8.3483,8.348,8.3656,8.3656,8.2741,8.1174,8.1174,8.1437,8.1842,8.1666,8.2282,8.2811,7.7196,7.4558,7.4225,7.6896,7.7968,7.8088,7.8088,0.0,0.0,8.2219,8.2219,8.2119,8.1555,8.0949,8.056,8.0924,8.0522,8.0159,8.0978,7.6743,7.219,7.1952,6.831,6.4762,6.4416,6.5697,6.6825,6.6487,6.6829,6.7043,6.6661,6.5375,6.4443,6.4678,6.5714,6.6019,6.4878,6.6181,6.6381,6.4161,6.3852,0.0,6.2499,6.1996,6.1918,6.2452,6.1622,6.1549,6.2517,6.0313,5.902,5.8927,5.6627,5.4607,5.2897,5.2714,5.249,5.2045,4.7551,4.5598,0.0,0.0,0.0,0.0,0.0,0.0,0.0,0.0,0.0,0.0,0.0,0.0,0.0,0.0,0.0,0.0,5.6753,6.3165,6.3991,6.5455,6.7072,6.877,7.0035,7.0764,7.0824,7.2331,7.3192,7.2923,7.4687,7.6083,7.6722,7.761,7.8836,8.0414,8.0348,8.0583,8.1119,8.1616,8.1793,8.1739,8.2883,8.3375,8.3375,8.3375,8.1913,7.9396,7.9396,7.9502,7.9555,7.7812,7.7495,7.7777,0.0,0.0,0.0,0.0,7.7568,7.7568,7.7568,7.84,7.9529,7.9529,8.0762,8.218,8.1903,8.1271,8.0337,7.8974,7.8364,7.8048,7.7893,7.3485,6.9188,6.9548,6.5633,6.1768,6.1597,6.2207,6.2766,6.2573,6.3436,0.0,6.2758,6.2049,6.1697,6.1817,6.2279,6.2374,6.1585,6.1892,6.1491,5.9775,5.9259,5.9148,5.9362,5.9173,0.0,0.0,0.0,6.0104,5.9982,5.8567,0.0,0.0,0.0,5.0963,5.0209,4.8547,0.0,0.0,4.247,4.1484,0.0,0.0,0.0,0.0,0.0,0.0,0.0,0.0,0.0,0.0,0.0,0.0,0.0,0.0,0.0,0.0,5.03,5.5335,5.4168,5.8608,6.243,6.3705,6.592,6.7386,6.7551,6.908,7.0209,7.0485,7.2655,7.3925,7.3925,7.5432,7.6813,7.7928,7.8355,7.8574,7.8598,7.9149,7.9572,7.9854,8.054,8.0875,8.0875,8.0875,7.9625,7.7496,7.7496,7.7444,7.7165,7.4986,7.4108,7.4006,7.3359,7.3079,7.3356,7.554,7.6319,7.6319,7.6319,7.5514,7.4477,7.4477,7.8005,8.2139,8.1617,8.0138,7.824,7.6373,7.5906,7.5693,7.4302,7.0132,6.6377,6.6648,6.2926,5.9462,5.9801,5.9879,5.9879,5.9879,5.9889,5.96,5.865,5.8475,5.8436,5.8287,5.8287,5.838,5.8533,5.8126,5.7765,5.762,5.7191,5.7313,5.8385,5.8332,5.8877,6.0335,5.9623,5.8543,5.7221,5.6802,5.5383,5.2774,4.9932,4.8128,0.0,0.0,0.0,0.0,0.0,0.0,0.0,0.0,0.0,0.0,0.0,0.0,0.0,0.0,0.0,0.0,0.0,0.0,0.0,0.0,0.0,0.0,0.0,0.0,4.2965,5.0625,5.5413,5.2756,5.7566,6.1375,6.2009,6.3496,6.6481,7.1509,7.2069,7.2182,7.2182,7.365,7.4533,7.4604,7.594,7.6861,7.7232,7.7268,7.776,7.8763,7.591,7.4537,7.4537,7.4537,7.4467,7.4396,7.4396,7.4163,7.3809,7.3739,7.3669,7.3635,7.3254,7.3079,7.3113,7.3165,7.3217,7.3217,7.3217,7.0319,6.6624,6.6624,7.3716,8.1883,8.0115,7.6485,7.2976,7.2998,7.3313,7.2997,7.045,6.713,6.4102,6.2731,6.0146,5.8328,5.9606,5.9879,5.9879,5.9879,5.6752,5.4288,5.4863,5.4958,5.4793,5.4286,5.4337,0.0,5.647,5.663,5.7407,5.9532,5.9756,5.9762,5.9817,5.9358,5.9283,5.9853,5.8239,5.6633,5.5341,5.5287,5.4031,5.142,4.8705,4.5974,4.3317,0.0,0.0,0.0,0.0,0.0,0.0,0.0,0.0,0.0,0.0,0.0,0.0,0.0,0.0,0.0,0.0,0.0,0.0,0.0,0.0,0.0,0.0,0.0,0.0,4.481,4.8709,4.9735,5.4538,5.7104,5.5386,5.781,5.9809,6.0536,6.4796,6.69,6.5842,6.9246,7.1204,7.1204,7.1179,7.1847,7.3167,7.1567,7.2419,7.5769,7.4748,7.4255,7.4255,7.4255,7.4255,7.4239,7.3702,7.3411,7.3289,7.3289,7.1879,6.9819,6.9671,6.9607,6.9607,6.9607,6.9607,6.9522,6.8795,6.7576,6.6286,6.6286,6.8729,7.1551,7.0925,6.9668,6.8457,6.8498,6.8632,6.8233,6.6148,6.3554,6.1167,5.9828,5.7299,5.5346,5.5792,5.5888,5.5888,5.5888,5.4572,5.3523,5.3743,5.3782,5.3643,5.3201,5.3191,5.3255,5.3469,5.4992,5.6215,5.6735,5.8316,5.9343,5.9343,5.9192,5.9167,5.9343,5.7964,5.6579,5.5257,5.439,5.2236,4.8675,4.7718,4.4961,4.031,0.0,0.0,0.0,0.0,0.0,0.0,0.0,0.0,0.0,0.0,0.0,0.0,0.0,0.0,0.0,0.0,0.0,0.0,0.0,0.0,0.0,0.0,0.0,0.0,0.0,0.0,4.6112,5.0239,0.0,4.9376,5.1225,5.2921,5.3689,5.7864,5.992,5.8892,6.3695,6.6199,6.5675,6.7429,6.8104,6.7404,6.7335,6.9647,7.4255,7.4255,7.4255,7.4188,7.2654,7.2671,7.3787,7.3307,7.3079,7.2834,6.9533,6.7506,6.6364,6.5228,6.479,6.479,6.479,6.4612,6.4276,6.3614,6.3382,6.3382,6.3382,6.3382,6.3382,6.3382,6.0612,5.741,5.741,6.1691,6.5562,6.2446,6.0001,5.7924,5.6298,5.4503,5.3267,5.3759,5.3734,5.3059,5.1115,5.0517,5.0307,5.018,5.0161,5.02,5.043,5.0343,5.0672,5.177,5.3642,5.5134,5.582,5.7806,5.9096,5.9096,5.9096,5.8887,5.8438,5.7178,5.5652,5.3881,5.2086,4.965,4.6542,4.5079,4.2354,0.0,0.0,0.0,0.0,0.0,0.0,0.0,0.0,0.0,0.0,0.0,0.0,0.0,0.0,0.0,0.0,0.0,0.0,0.0,0.0,0.0,0.0,0.0,0.0,0.0,0.0,0.0,4.1178,4.4415,0.0,0.0,0.0,0.0,5.0704,5.1338,5.154,5.1596,5.7045,5.9496,5.8094,6.426,6.5159,6.0103,6.4453,6.8954,7.3498,7.3498,7.3498,7.3382,6.959,6.9671,7.2812,7.2812,7.2812,7.2112,6.3042,6.0681,6.2512,5.9521,5.8389,5.8389,5.8389,5.7936,5.7284,5.7284,5.7284,5.7284,5.7284,5.7284,5.7232,5.6969,4.9397,0.0,0.0,5.3354,6.4964,5.9185,5.6372,5.4474,5.2166,5.16,5.1915,5.3153,5.3097,5.1249,4.5907,4.4863,4.4712,4.4338,0.0,4.4792,4.6011,4.5979,4.7222,5.1046,5.251,5.415,5.6699,5.8194,5.8977,5.8977,5.8977,5.8409,5.7028,5.5652,5.3761,5.121,4.8475,4.6333,4.4835,4.1086,0.0,0.0,0.0,0.0,0.0,0.0,0.0,0.0,0.0,0.0,0.0,0.0,0.0,0.0,0.0,0.0,0.0,0.0,0.0,0.0,0.0,0.0,0.0,0.0,0.0,0.0,3.0119,3.2899,3.1514,3.6114,3.8302,0.0,0.0,0.0,0.0,0.0,0.0,4.4959,4.8629,5.1029,5.1669,5.4488,5.4774,5.2298,5.8241,6.1872,6.3122,6.3122,6.3122,6.3216,6.6419,6.8323,6.9188,6.9188,6.9188,6.8663,6.202,5.4504,4.712,4.6284,4.5987,4.5987,4.5987,4.5854,4.5702,4.5702,4.5702,4.5702,4.5702,4.5702,4.4915,4.0853,0.0,0.0,0.0,0.0,6.4083,5.442,5.2563,5.2246,4.8588,4.7242,4.6938,4.7251,4.7273,4.6103,4.2472,4.1545,4.1267,4.107,4.1837,0.0,4.2549,4.4124,4.5684,4.686,4.9735,5.2333,5.4091,5.628,5.7656,5.7656,5.7656,5.6699,5.442,5.2034,5.0,4.8346,4.5656,4.3105,4.0806,0.0,0.0,0.0,0.0,0.0,0.0,0.0,0.0,0.0,0.0,0.0,0.0,0.0,0.0,0.0,0.0,0.0,0.0,0.0,0.0,0.0,0.0,0.0,0.0,0.0,0.0,0.0,2.7871,3.0157,2.8973,3.1685,3.251,0.0,0.0,0.0,0.0,0.0,0.0,0.0,0.0,0.0,4.5113,4.65,4.8096,5.0021,5.6216,5.9298,5.9298,5.9298,5.9298,5.9415,6.2633,6.4082,6.4082,6.4082,6.2719,5.9769,5.1349,4.3925,3.7833,0.0,0.0,0.0,0.0,3.7063,3.7063,3.7063,3.7393,3.7833,3.7833,0.0,0.0,0.0,0.0,0.0,0.0,0.0,5.0848,4.9992,5.053,5.0399,4.6853,4.5804,4.5388,4.4662,4.2381,4.0009,3.8302,3.7173,3.6552,3.6834,3.7522,0.0,0.0,0.0,4.3206,4.5,4.7687,4.9941,5.1316,5.3343,5.4599,5.4599,5.4546,5.341,5.08,4.9163,4.7468,4.5537,4.2867,4.0421,0.0,0.0,0.0,0.0,0.0,0.0,0.0,0.0,0.0,0.0,0.0,0.0,0.0,0.0,0.0,0.0,0.0,0.0,0.0,0.0,0.0,0.0,0.0,0.0,0.0,0.0,0.0,0.0,0.0,3.1029,2.8748,0.0,0.0,0.0,0.0,0.0,0.0,0.0,0.0,0.0,0.0,0.0,0.0,0.0,4.2308,4.8549,5.3415,5.5894,5.5971,5.5971,5.6743,5.8204,5.8944,5.9298,5.9169,5.6937,0.0,4.7729,3.6677,0.0,0.0,0.0,0.0,0.0,0.0,0.0,0.0,0.0,0.0,0.0,0.0,0.0,0.0,0.0,0.0,0.0,0.0,0.0,0.0,0.0,0.0,4.7991,4.5453,4.5112,4.4755,4.2583,3.7934,3.4073,3.3889,3.2561,3.162,0.0,0.0,0.0,0.0,0.0,0.0,4.3882,4.5865,4.7488,4.8804,5.0201,5.1031,5.1031,5.0778,4.9561,4.713,4.6671,4.5307,4.2741,4.0104,0.0,0.0,0.0,0.0,0.0,0.0,0.0,0.0,0.0,0.0,0.0,0.0,0.0,0.0,0.0,0.0,0.0,0.0,0.0,0.0,0.0,0.0,0.0,0.0,0.0,0.0,0.0,0.0,0.0,0.0,0.0,0.0,0.0,0.0,0.0,0.0,0.0,0.0,0.0,0.0,0.0,0.0,0.0,0.0,0.0,0.0,0.0,0.0,0.0,0.0,3.8437,4.3337,5.2559,5.7174,5.9298,5.8494,4.4496,3.7623,3.5806,2.9105,0.0,0.0,0.0,0.0,0.0,0.0,0.0,0.0,0.0,0.0,0.0,0.0,0.0,0.0,0.0,0.0,0.0,0.0,0.0,0.0,0.0,0.0,4.2489,4.0904,4.057,3.9373,3.4621,0.0,0.0,0.0,0.0,0.0,0.0,0.0,0.0,0.0,0.0,0.0,4.0045,4.3407,4.6133,4.7429,4.8744,4.9552,4.9552,4.8535,4.7249,4.5714,4.3608,4.1681,0.0,0.0,0.0,0.0,0.0,0.0,0.0,0.0,0.0,0.0,0.0,0.0,0.0,0.0,0.0,0.0,0.0,0.0,0.0,0.0,0.0,0.0,0.0,0.0,0.0,0.0,0.0,0.0,0.0,0.0,0.0,0.0,0.0,0.0,0.0,0.0,0.0,0.0,0.0,0.0,0.0,0.0,0.0,0.0,0.0,0.0,0.0,0.0,0.0,0.0,0.0,0.0,0.0,0.0,0.0,0.0,0.0,0.0,3.409,2.9125,0.0,0.0,0.0,0.0,0.0,0.0,0.0,0.0,0.0,0.0,0.0,0.0,0.0,0.0,0.0,0.0,0.0,0.0,0.0,0.0,0.0,0.0,0.0,0.0,0.0,0.0,0.0,0.0,0.0,0.0,0.0,0.0,0.0,0.0,0.0,0.0,0.0,0.0,0.0,0.0,3.869,4.2117,4.4805,4.6103,4.7369,4.8176,4.8176,4.7,4.5645,4.4284,4.1717,0.0,0.0,0.0,0.0,0.0,0.0,0.0,0.0,0.0,0.0,0.0,0.0,0.0,0.0,0.0,0.0,0.0,0.0,0.0,0.0,0.0,0.0,0.0,0.0,0.0,0.0,0.0,0.0,0.0,0.0,0.0,0.0,0.0,0.0,0.0,0.0,0.0,0.0,0.0,0.0,0.0,0.0,0.0,0.0,0.0,0.0,0.0,0.0,0.0,0.0,0.0,0.0,0.0,0.0,0.0,0.0,0.0,0.0,0.0,2.5334,2.2934,0.0,0.0,0.0,0.0,0.0,0.0,0.0,0.0,0.0,0.0,0.0,0.0,0.0,0.0,0.0,0.0,0.0,0.0,0.0,0.0,0.0,0.0,0.0,0.0,0.0,0.0,0.0,0.0,0.0,0.0,0.0,0.0,0.0,0.0,0.0,0.0,0.0,0.0,0.0,0.0,3.7583,4.1139,4.3728,4.4775,4.6282,4.71,4.6831,4.5624,4.4161,4.2443,4.0104,0.0,0.0,0.0,0.0,0.0,0.0,0.0,0.0,0.0,0.0,0.0,0.0,0.0,0.0,0.0,0.0,0.0,0.0,0.0,0.0,0.0,0.0,0.0,0.0,0.0,0.0,0.0,0.0,0.0,0.0,0.0,0.0,0.0,0.0,0.0,0.0,0.0,0.0,0.0,0.0,0.0,0.0,0.0,0.0,0.0,0.0,0.0,0.0,0.0,0.0,0.0,0.0,0.0,0.0,0.0,0.0,0.0,0.0,0.0,0.0,0.0,0.0,0.0,0.0,0.0,0.0,0.0,0.0,0.0,0.0,0.0,0.0,0.0,0.0,0.0,0.0,0.0,0.0,0.0,0.0,0.0,0.0,0.0,0.0,0.0,0.0,0.0,0.0,0.0,0.0,0.0,0.0,0.0,0.0,0.0,0.0,0.0,0.0,0.0,0.0,0.0,3.5011,4.0007,4.3399,4.3518,4.5744,4.6761,4.5564,4.4296,4.2416,3.9811,0.0,0.0,0.0,0.0,0.0,0.0,0.0,0.0,0.0,0.0,0.0,0.0,0.0,0.0,0.0,0.0,0.0,0.0,0.0,0.0,0.0,0.0,0.0,0.0,0.0,0.0,0.0,0.0,0.0,0.0,0.0,0.0,0.0,0.0,0.0,0.0,0.0,0.0,0.0,0.0,0.0,0.0,0.0,0.0,0.0,0.0,0.0,0.0,0.0,0.0,0.0,0.0,0.0,0.0,0.0,0.0,0.0,0.0,0.0,0.0,0.0,0.0,0.0,0.0,0.0,0.0,0.0,0.0,0.0,0.0,0.0,0.0,0.0,0.0,0.0,0.0,0.0,0.0,0.0,0.0,0.0,0.0,0.0,0.0,0.0,0.0,0.0,0.0,0.0,0.0,0.0,0.0,0.0,0.0,0.0,0.0,0.0,0.0,0.0,0.0,0.0,0.0,3.4552,3.9118,4.2356,4.3046,4.5576,4.6671,4.5161,4.4012,4.2093,3.9211,0.0,0.0,0.0,0.0,0.0,0.0,0.0,0.0,0.0,0.0,0.0,0.0,0.0,0.0,0.0,0.0,0.0,0.0,0.0,0.0,0.0,0.0,0.0,0.0,0.0,0.0,0.0,0.0,0.0,0.0,0.0,0.0,0.0,0.0,0.0,0.0,0.0,0.0,0.0,0.0,0.0,0.0,0.0,0.0,0.0,0.0,0.0,0.0,0.0,0.0,0.0,0.0,0.0,0.0,0.0,0.0,0.0,0.0,0.0,0.0,0.0,0.0,0.0,0.0,0.0,0.0,0.0,0.0,0.0,0.0,0.0,0.0,0.0,0.0,0.0,0.0,0.0,0.0,0.0,0.0,0.0,0.0,0.0,0.0,0.0,0.0,0.0,0.0,0.0,0.0,0.0,0.0,0.0,0.0,0.0,0.0,0.0,0.0,0.0,0.0,0.0,0.0,3.4417,3.8182,4.1181,4.2845,4.4823,4.5597,4.4546,4.334,4.1258,3.7955,0.0,0.0,0.0,0.0,0.0,0.0,0.0,0.0,0.0,0.0,0.0,0.0,0.0,0.0,0.0,0.0,0.0,0.0,0.0,0.0,0.0,0.0,0.0,0.0,0.0,0.0,0.0,0.0,0.0,0.0,0.0,0.0,0.0,0.0,0.0,0.0,0.0,0.0,0.0,0.0,0.0,0.0,0.0,0.0,0.0,0.0,0.0,0.0,0.0,0.0,0.0,0.0,0.0,0.0,0.0,0.0,0.0,0.0,0.0,0.0,0.0,0.0,0.0,0.0,0.0,0.0,0.0,0.0,0.0,0.0,0.0,0.0,0.0,0.0,0.0,0.0,0.0,0.0,0.0,0.0,0.0,0.0,0.0,0.0,0.0,0.0,0.0,0.0,0.0,0.0,0.0,0.0,0.0,0.0,0.0,0.0,0.0,0.0,0.0,0.0,0.0,0.0,3.4278,3.7219,3.9989,4.2852,4.3168,4.3243,4.335,4.1914,3.9317,0.0,0.0,0.0,0.0,0.0,0.0,0.0,0.0,0.0,0.0,0.0,0.0,0.0,0.0,0.0,0.0,0.0,0.0,0.0,0.0,0.0,0.0,0.0,0.0,0.0,0.0,0.0,0.0,0.0,0.0,0.0,0.0,0.0,0.0,0.0,0.0,0.0,0.0,0.0,0.0,0.0,0.0,0.0,0.0,0.0,0.0,0.0,0.0,0.0,0.0,0.0,0.0,0.0,0.0,0.0,0.0,0.0,0.0,0.0,0.0,0.0,0.0,0.0,0.0,0.0,0.0,0.0,0.0,0.0,0.0,0.0,0.0,0.0,0.0,0.0,0.0,0.0,0.0,0.0,0.0,0.0,0.0,0.0,0.0,0.0,0.0,0.0,0.0,0.0,0.0,0.0,0.0,0.0,0.0,0.0,0.0,0.0,0.0,0.0,0.0,0.0,0.0,0.0,3.2943,3.5764,3.8755,4.2256,4.279,4.2903,4.2941,4.1751,3.9271,3.5247,0.0,0.0,0.0,0.0,0.0,0.0,0.0,0.0,0.0,0.0,0.0,0.0,0.0,0.0,0.0,0.0,0.0,0.0,0.0,0.0,0.0,0.0,0.0,0.0,0.0,0.0,0.0,0.0,0.0,0.0,0.0,0.0,0.0,0.0,0.0,0.0,0.0,0.0,0.0,0.0,0.0,0.0,0.0,0.0,0.0,0.0,0.0,0.0,0.0,0.0,0.0,0.0,0.0,0.0,0.0,0.0,0.0,0.0,0.0,0.0,0.0,0.0,0.0,0.0,0.0,0.0,0.0,0.0,0.0,0.0,0.0,0.0,0.0,0.0,0.0,0.0,0.0,0.0,0.0,0.0,0.0,0.0,0.0,0.0,0.0,0.0,0.0,0.0,0.0,0.0,0.0,0.0,0.0,0.0,0.0,0.0,0.0,0.0,0.0,0.0,0.0,0.0,0.0,3.4549,3.7359,4.1288,4.1388,4.1392,4.1985,4.0823,3.858,3.5109,0.0,0.0,0.0,0.0,0.0,0.0,0.0,0.0,0.0,0.0,0.0,0.0,0.0,0.0,0.0,0.0,0.0,0.0,0.0,0.0,0.0,0.0,0.0,0.0,0.0,0.0,0.0,0.0,0.0,0.0,0.0,0.0,0.0,0.0,0.0,0.0,0.0,0.0,0.0,0.0,0.0,0.0,0.0,0.0,0.0,0.0,0.0,0.0,0.0,0.0,0.0,0.0,0.0,0.0,0.0,0.0,0.0,0.0,0.0,0.0,0.0,0.0,0.0,0.0,0.0,0.0,0.0,0.0,0.0,0.0,0.0,0.0,0.0,0.0,0.0,0.0,0.0,0.0,0.0,0.0,0.0,0.0,0.0,0.0,0.0,0.0,0.0,0.0,0.0,0.0,0.0,0.0,0.0,0.0,0.0,0.0,0.0,0.0,0.0,0.0,0.0,0.0,0.0,3.353,3.5996,4.0146,3.932,3.9127,4.0681,3.9297,3.7347,3.4938,3.2152,0.0,0.0,0.0,0.0,0.0,0.0,0.0,0.0,0.0,0.0,0.0,0.0,0.0,0.0,0.0,0.0,0.0,0.0,0.0,0.0,0.0,0.0,0.0,0.0,0.0,0.0,0.0,0.0,0.0,0.0,0.0,0.0,0.0,0.0,0.0,0.0,0.0,0.0,0.0,0.0,0.0,0.0,0.0,0.0,0.0,0.0,0.0,0.0,0.0,0.0,0.0,0.0,0.0,0.0,0.0,0.0,0.0,0.0,0.0,0.0,0.0,0.0,0.0,0.0,0.0,0.0,0.0,0.0,0.0,0.0,0.0,0.0,0.0,0.0,0.0,0.0,0.0,0.0,0.0,0.0,0.0,0.0,0.0,0.0,0.0,0.0,0.0,0.0,0.0,0.0,0.0,0.0,0.0,0.0,0.0,0.0,0.0,0.0,0.0,0.0,0.0,0.0,3.3053,3.5931,3.991,3.9113,3.8939,4.0387,3.8441,3.6492,3.4879,3.1403,0.0,0.0,0.0,0.0,0.0,0.0,0.0,0.0,0.0,0.0,0.0,0.0,0.0,0.0,0.0,0.0,0.0,0.0,0.0,0.0,0.0,0.0,0.0,0.0,0.0,0.0,0.0,0.0,0.0,0.0,0.0,0.0,0.0,0.0,0.0,0.0,0.0,0.0,0.0,0.0,0.0,0.0,0.0,0.0,0.0,0.0,0.0,0.0,0.0,0.0,0.0,0.0,0.0,0.0,0.0,0.0,0.0,0.0,0.0,0.0,0.0,0.0,0.0,0.0,0.0,0.0,0.0,0.0,0.0,0.0,0.0,0.0,0.0,0.0,0.0,0.0,0.0,0.0,0.0,0.0,0.0,0.0,0.0,0.0,0.0,0.0,0.0,0.0,0.0,0.0,0.0,0.0,0.0,0.0,0.0,0.0,0.0,0.0,0.0,0.0,0.0,0.0,3.0261,3.3518,3.7995,3.8361,3.8606,3.9388,3.7689,3.576,3.3846,2.9564,0.0,0.0,0.0,0.0,0.0,0.0,0.0,0.0,0.0,0.0,0.0,0.0,0.0,0.0,0.0,0.0,0.0,0.0,0.0,0.0,0.0,0.0,0.0,0.0,0.0,0.0,0.0,0.0,0.0,0.0,0.0,0.0,0.0,0.0,0.0,0.0,0.0,0.0,0.0,0.0,0.0,0.0,0.0,0.0,0.0,0.0,0.0,0.0,0.0,0.0,0.0,0.0,0.0,0.0,0.0,0.0,0.0,0.0,0.0,0.0,0.0,0.0,0.0,0.0,0.0,0.0,0.0,0.0,0.0,0.0,0.0,0.0,0.0,0.0,0.0,0.0,0.0,0.0,0.0,0.0,0.0,0.0,0.0,0.0,0.0,0.0,0.0,0.0,0.0,0.0,0.0,0.0,0.0,0.0,0.0,0.0,0.0,0.0,0.0,0.0,0.0,0.0,0.0,3.0567,3.5262,3.7273,3.8204,3.8029,3.679,3.4955,3.2369,0.0,0.0,0.0,0.0,0.0,0.0,0.0,0.0,0.0,0.0,0.0,0.0,0.0,0.0,0.0,0.0,0.0,0.0,0.0,0.0,0.0,0.0,0.0,0.0,0.0,0.0,0.0,0.0,0.0,0.0,0.0,0.0,0.0,0.0,0.0,0.0,0.0,0.0,0.0,0.0,0.0,0.0,0.0,0.0,0.0,0.0,0.0,0.0,0.0,0.0,0.0,0.0,0.0,0.0,0.0,0.0,0.0,0.0,0.0,0.0,0.0,0.0,0.0,0.0,0.0,0.0,0.0,0.0,0.0,0.0,0.0,0.0,0.0,0.0,0.0,0.0,0.0,0.0,0.0,0.0,0.0,0.0,0.0,0.0,0.0,0.0,0.0,0.0,0.0,0.0,0.0,0.0,0.0,0.0,0.0,0.0,0.0,0.0,0.0,0.0,0.0,0.0,0.0,0.0,2.9869,3.276,3.6192,3.7855,3.6732,3.5465,3.3634,3.1148,0.0,0.0,0.0,0.0,0.0,0.0,0.0,0.0,0.0,0.0,0.0,0.0,0.0,0.0]}]]]